[[{"header":{"parameterUnit":"m.s-1","parameterCategory":1,"la1":30.6,"la2":29.2853,"lo1":-89.7004,"lo2":-87.6739,"dy":0.0162,"dx":0.0183,"nx":112,"ny":82,"refTime":"2024-06-08T00:00:00:Z","depth":0,"parameterNumber":2,"parameterNumberName":"U-component_of_WINDS"},"data":[0.0,0.0,0.0,0.0,0.0,0.0,0.0,0.0,0.0,0.0,0.0,0.0,0.0,0.0,0.0,0.0,0.0,0.0,0.0,0.0,0.0,0.0,0.0,0.0,0.0,0.0,0.0,0.0,0.0,0.0,0.0,0.0,0.0,0.0,0.0,0.0,0.0,0.0,0.0,0.0,0.0,0.0,0.0,0.0,0.0,0.0,0.0,0.0,0.0,0.0,0.0,0.0,0.0,0.0,0.0,0.0,0.0,0.0,0.0,0.0,0.0,0.0,0.0,0.0,0.0,0.0,0.0,0.0,0.0,0.0,0.0,0.0,0.0,0.0,0.0,0.0,0.0,0.0,0.0,0.0,0.0,0.0,0.0,0.0,0.0,0.0,0.0,0.0,0.0,0.0,0.0938,0.1001,0.1065,0.1148,0.1244,0.1779,0.1835,0.1209,0.0,0.0,0.0,0.0,0.0,0.0,0.0,0.0,0.0,0.0,0.0,0.0,0.0,0.0,0.0,0.0,0.0,0.0,0.0,0.0,0.0,0.0,0.0,0.0,0.0,0.0,0.0,0.0,0.0,0.0,0.0,0.0,0.0,0.0,0.0,0.0,0.0,0.0,0.0,0.0,0.0,0.0,0.0,0.0,0.0,0.0,0.0,0.0,0.0,0.0,0.0,0.0,0.0,0.0,0.0,0.0,0.0,0.0,0.0,0.0,0.0,0.0,0.0,0.0,0.0,0.0,0.0,0.0,0.0,0.0,0.0,0.0,0.0,0.0,0.0,0.0,0.0,0.0,0.0,0.0,0.0,0.0,0.0,0.0,0.0,0.0,0.0,0.0,0.0,0.0,0.0,0.0,0.0,0.0,0.0,0.0,0.0,0.0,0.0,0.0,0.0,0.0,0.0,0.0,0.0945,0.106,0.1096,0.1344,0.1916,0.2047,0.2064,0.1949,0.0,0.0,0.0,0.0,0.0,0.0,0.0,0.0,0.0,0.0,0.0,0.0,0.0,0.0,0.0,0.0,0.0,0.0,0.0,0.0,0.0,0.0,0.0,0.0,0.0,0.0,0.0,0.0,0.0,0.0,0.0,0.0,0.0,0.0,0.0,0.0,0.0,0.0,0.0,0.0,0.0,0.0,0.0,0.0,0.0,0.0,0.0,0.0,0.0,0.0,0.0,0.0,0.0,0.0,0.0,0.0,0.0,0.0,0.0,0.0,0.0,0.0,0.0,0.0,0.0,0.0,0.0,0.0,0.0,0.0,0.0,0.0,0.0,0.0,0.0,0.0,0.0,0.0,0.0,0.0,0.0,0.0,0.0,0.0,0.0,0.0,0.0,0.0,0.0,0.0,0.0,0.0,0.0,0.0,0.0,0.0,0.0,0.0,0.0,0.0,0.0,0.0,0.0,0.1266,0.1386,0.1138,0.1103,0.1212,0.1548,0.1879,0.1933,0.1517,0.1825,0.0,0.0,0.0,0.0,0.0,0.0,0.0,0.0,0.0,0.0,0.0,0.0,0.0,0.0,0.0,0.0,0.0,0.0,0.0,0.0,0.0,0.0,0.0,0.0,0.0,0.0,0.0,0.0,0.0,0.0,0.0,0.0,0.0,0.0,0.0,0.0,0.0,0.0,0.0,0.0,0.0,0.0,0.0,0.0,0.0,0.0,0.0,0.0,0.0,0.0,0.0,0.0,0.0,0.0,0.0,0.0,0.0,0.0,0.0,0.0,0.0,0.0,0.0,0.0,0.0,0.0,0.0,0.0,0.0,0.0,0.0,0.0,0.0,0.0,0.0,0.0,0.0,0.0,0.0,0.0,0.0,0.0,0.0,0.0,0.0,0.0,0.0,0.0,0.0,0.0,0.0,0.0,0.0,0.0,0.0,0.0,0.0,0.0,0.0,0.0,0.0,0.0,0.1473,0.1646,0.1165,0.1124,0.1197,0.1361,0.1819,0.1868,0.1302,0.1702,0.0,0.0,0.0,0.0,0.0,0.0,0.0,0.0,0.0,0.0,0.0,0.0,0.0,0.0,0.0,0.0,0.0,0.0,0.0,0.0,0.0,0.0,0.0,0.0,0.0,0.0,0.0,0.0,0.0,0.0,0.0,0.0,0.0,0.0,0.0,0.0,0.0,0.0,0.0,0.0,0.0,0.0,0.0,0.0,0.0,0.0,0.0,0.0,0.0,0.0,0.0,0.0,0.0,0.0,0.0,0.0,0.0,0.0,0.0,0.0,0.0,0.0,0.0,0.0,0.0,0.0,0.0,0.0,0.0,0.0,0.0,0.0,0.0,0.0,0.0,0.0,0.0,0.0,0.0,0.0,0.0,0.0,0.0,0.0,0.0,0.0,0.0,0.0,0.0,0.0,0.0,0.0,0.0,0.0,0.0,0.0,0.0,0.0,0.0,0.0,0.0,0.0,0.1142,0.1233,0.1196,0.1187,0.144,0.2066,0.2112,0.2064,0.201,0.1946,0.0,0.0,0.0,0.0,0.0,0.0,0.0,0.0,0.0,0.0,0.0,0.0,0.0,0.0,0.0,0.0,0.0,0.0,0.0,0.0,0.0,0.0,0.0,0.0,0.0,0.0,0.0,0.0,0.0,0.0,0.0,0.0,0.0,0.0,0.0,0.0,0.0,0.0,0.0,0.0,0.0,0.0,0.0,0.0,0.0,0.0,0.0,0.0,0.0,0.0,0.0,0.0,0.0,0.0,0.0,0.0,0.0,0.0,0.0,0.0,0.0,0.0,0.0,0.0,0.0,0.0,0.0,0.0,0.0,0.0,0.0,0.0,0.0,0.0,0.0,0.0,0.0,0.0,0.0,0.0,0.0,0.0,0.0,0.0,0.0,0.0,0.0,0.0,0.0,0.0,0.0,0.0,0.0,0.0,0.0,0.0,0.0,0.0,0.0,0.0,0.0,0.0,0.1402,0.1573,0.1237,0.1213,0.1276,0.151,0.1501,0.1443,0.1424,0.0,0.0,0.0,0.0,0.0,0.0,0.0,0.0,0.0,0.0,0.0,0.0,0.0,0.0,0.0,0.0,0.0,0.0,0.0,0.0,0.0,0.0,0.0,0.0,0.0,0.0,0.0,0.0,0.0,0.0,0.0,0.0,0.0,0.0,0.0,0.0,0.0,0.0,0.0,0.0,0.0,0.0,0.0,0.0,0.0,0.0,0.0,0.0,0.0,0.0,0.0,0.0,0.0,0.0,0.0,0.0,0.0,0.0,0.0,0.0,0.0,0.0,0.0,0.0,0.0,0.0,0.0,0.0,0.0,0.0,0.0,0.0,0.0,0.0,0.0,0.0,0.0,0.0,0.0,0.0,0.0,0.0,0.0,0.0,0.0,0.0,0.0,0.0,0.0,0.0,0.0,0.0,0.0,0.0,0.0,0.0,0.0,0.0,0.0,0.0,0.0,0.0,0.1064,0.1406,0.1508,0.1154,0.1038,0.0986,0.096,0.0996,0.0985,0.0899,0.0,0.0,0.0,0.0,0.0,0.0,0.0,0.0,0.0,0.0,0.0,0.0,0.0,0.0,0.0,0.0,0.0,0.0,0.0,0.0,0.0,0.0,0.0,0.0,0.0,0.0,0.0,0.0,0.0,0.0,0.0,0.0,0.0,0.0,0.0,0.0,0.0,0.0,0.0,0.0,0.0,0.0,0.0,0.0,0.0,0.0,0.0,0.0,0.0,0.0,0.0,0.0,0.0,0.0,0.0,0.0,0.0,0.0,0.0,0.0,0.0,0.0,0.0,0.0,0.0,0.0,0.0,0.0,0.0,0.0,0.0,0.0,0.0,0.0,0.0,0.0,0.0,0.0,0.0,0.0,0.0,0.0,0.0,0.0,0.0,0.0,0.0,0.0,0.0,0.0,0.0,0.0,0.0,0.0,0.0,0.0,0.0,0.0,0.0,0.0,0.0,0.0,0.1093,0.0988,0.0892,0.0899,0.073,0.0599,0.0584,0.073,0.0757,0.0,0.0,0.0,0.0,0.0,0.0,0.0,0.0,0.0,0.0,0.0,0.0,0.0,0.0,0.0,0.0,0.0,0.0,0.0,0.0,0.0,0.0,0.0,0.0,0.0,0.0,0.0,0.0,0.0,0.0,0.0,0.0,0.0,0.0,0.0,0.0,0.0,0.0,0.0,0.0,0.0,0.0,0.0,0.0,0.0,0.0,0.0,0.0,0.0,0.0,0.0,0.0,0.0,0.0,0.0,0.0,0.0,0.0,0.0,0.0,0.0,0.0,0.0,0.0,0.0,0.0,0.0,0.0,0.0,0.0,0.0,0.0,0.0,0.0,0.0,0.0,0.0,0.0,0.0,0.0,0.0,0.0,0.0,0.0,0.0,0.0,0.0,0.0,0.0,0.0,0.0,0.0,0.0,0.0,0.0,0.0,0.0,0.0,0.0,0.0,0.0,0.0,0.0,0.0863,0.0777,0.0706,0.0703,0.0643,0.0588,0.0583,0.0591,0.0592,0.0558,0.0,0.0,0.0,0.0,0.0,0.0,0.0,0.0,0.0,0.0,0.0,0.0,0.0,0.0,0.0,0.0,0.0,0.0,0.0,0.0,0.0,0.0,0.0,0.0,0.0,0.0,0.0,0.0,0.0,0.0,0.0,0.0,0.0,0.0,0.0,0.0,0.0,0.0,0.0,0.0,0.0,0.0,0.0,0.0,0.0,0.0,0.0,0.0,0.0,0.0,0.0,0.0,0.0,0.0,0.0,0.0,0.0,0.0,0.0,0.0,0.0,0.0,0.0,0.0,0.0,0.0,0.0,0.0,0.0,0.0,0.0,0.0,0.0,0.0,0.0,0.0,0.0,0.0,0.0,0.0,0.0,0.0,0.0,0.0,0.0,0.0,0.0,0.0,0.0,0.0,0.0,0.0,0.0,0.0,0.0,0.0,0.0,0.0,0.0,0.0,0.0,0.0,0.0798,0.06,0.0483,0.0469,0.0417,0.0369,0.0365,0.0386,0.0399,0.0372,0.0,0.0,0.0,0.0,0.0,0.0,0.0,0.0,0.0,0.0,0.0,0.0,0.0,0.0,0.0,0.0,0.0,0.0,0.0,0.0,0.0,0.0,0.0,0.0,0.0,0.0,0.0,0.0,0.0,0.0,0.0,0.0,0.0,0.0,0.0,0.0,0.0,0.0,0.0,0.0,0.0,0.0,0.0,0.0,0.0,0.0,0.0,0.0,0.0,0.0,0.0,0.0,0.0,0.0,0.0,0.0,0.0,0.0,0.0,0.0,0.0,0.0,0.0,0.0,0.0,0.0,0.0,0.0,0.0,0.0,0.0,0.0,0.0,0.0,0.0,0.0,0.0,0.0,0.0,0.0,0.0,0.0,0.0,0.0,0.0,0.0,0.0,0.0,0.0,0.0,0.0,0.0,0.0,0.0,0.0,0.0,0.0,0.0,0.0,0.0,0.0,0.0,0.0731,0.046,0.0261,0.0274,0.0115,0.0,0.0,0.0178,0.0237,0.0187,0.0,0.0,0.0,0.0,0.0,0.0,0.0,0.0,0.0,0.0,0.0,0.0,0.0,0.0,0.0,0.0,0.0,0.0,0.0,0.0,0.0,0.0,0.0,0.0,0.0,0.0,0.0,0.0,0.0,0.0,0.0,0.0,0.0,0.0,0.0,0.0,0.0,0.0,0.0,0.0,0.0,0.0,0.0,0.0,0.0,0.0,0.0,0.0,0.0,0.0,0.0,0.0,0.0,0.0,0.0,0.0,0.0,0.0,0.0,0.0,0.5088,0.4905,0.0,0.0,0.0,0.0,0.0,0.0,0.0,0.0,0.0,0.0,0.0,0.0,0.0,0.0,0.0,0.0,0.0,0.0,0.0,0.0,0.0,0.0,0.0,0.0,0.0,0.0,0.0,0.0,0.0,0.0,0.0,0.0,0.0,0.0,0.0,0.0,0.0,0.0,0.0,0.0,0.0333,0.018,0.0076,0.0078,0.0038,0.0,0.0,0.0036,0.0068,0.0032,0.0181,0.0,0.0,0.0,0.0,0.0,0.0,0.0,0.0,0.0,0.0,0.0,0.0,0.0,0.0,0.0,0.0,0.0,0.0,0.0,0.0,0.0,0.0,0.0,0.0,0.0,0.0,0.0,0.0,0.0,0.0,0.0,0.0,0.0,0.0,0.0,0.0,0.0,0.0,0.0,0.0,0.0,0.0,0.0,0.0,0.0,0.0,0.0,0.0,0.0,0.0,0.0,0.0,0.0,0.0,0.0,0.0,0.0,0.0,0.0,0.5442,0.5273,0.0,0.0,0.0,0.0,0.0,0.0,0.0,0.0,0.0,0.0,0.0,0.0,0.0,0.0,0.0,0.0,0.0,0.0,0.0,0.0,0.0,0.0,0.0,0.0,0.0,0.0,0.0,0.0,0.0,0.0,0.0,0.0,0.0,0.0,0.0,0.0,0.0,0.0,0.0,0.0,0.0204,0.0073,0.0,0.0,0.0,0.0,0.0,0.0,0.0,0.0,0.0062,0.0,0.0,0.0,0.0,0.0,0.0,0.0,0.0,0.0,0.0,0.0,0.0,0.0,0.0,0.0,0.0,0.0,0.0,0.0,0.0,0.0,0.0,0.0,0.0,0.0,0.0,0.0,0.0,0.0,0.0,0.0,0.0,0.0,0.0,0.0,0.0,0.0,0.0,0.0,0.0,0.0,0.0,0.0,0.0,0.0,0.0,0.0,0.0,0.0,0.0,0.0,0.0,0.0,0.5895,0.5969,0.5947,0.5947,0.5933,0.5881,0.5755,0.568,0.5613,0.5333,0.0,0.0,0.0,0.0,0.0,0.0,0.0,0.0,0.0,0.0,0.0,0.0,0.0,0.0,0.0,0.0,0.0,0.0,0.0,0.0,0.0,0.0,0.2715,0.2238,0.2219,0.2369,0.2624,0.0,0.0,0.0,0.0,0.0,0.0,0.0,0.0,0.0,0.0,0.0,0.0174,0.0074,0.0,0.0,0.0,0.0,0.0,0.0,0.0,0.0,0.0,0.0029,0.0,0.0,0.0,0.0,0.0,0.0,0.0,0.0,0.0,0.0,0.0,0.0,0.0,0.0,0.0,0.0,0.0,0.0,0.0,0.0,0.0,0.0,0.0,0.0,0.0,0.0,0.0,0.0,0.0,0.0,0.0,0.0,0.4464,0.4706,0.0,0.0,0.0,0.0,0.0,0.0,0.0,0.0,0.0,0.0,0.0,0.0,0.0,0.5672,0.569,0.6191,0.6353,0.6213,0.6621,0.6725,0.6493,0.6493,0.6415,0.6235,0.6207,0.0,0.5785,0.5712,0.0,0.0,0.0,0.0,0.0,0.0,0.0,0.0,0.0,0.0,0.0,0.0,0.0,0.0,0.0,0.0,0.0,0.0,0.0,0.0,0.0,0.0,0.2899,0.2657,0.263,0.2484,0.1882,0.1284,0.0796,0.0516,0.0465,0.0474,0.0,0.0,0.0,0.0,0.0,0.0,0.0035,0.0,0.0,0.0,0.0,0.0,0.0,0.0,0.0,0.0,0.0,0.0,0.0,0.0143,0.0,0.0,0.0,0.0,0.0,0.0,0.0,0.0,0.0,0.0,0.0,0.0,0.0,0.0,0.0,0.0,0.0,0.0,0.0,0.0,0.0,0.0,0.0,0.0,0.0,0.0,0.0,0.0,0.0,0.4585,0.495,0.4969,0.5049,0.4972,0.0,0.0,0.0,0.0,0.0,0.0,0.0,0.0,0.0,0.5672,0.593,0.6124,0.6205,0.6497,0.6609,0.6542,0.6746,0.6774,0.6644,0.6644,0.6606,0.6539,0.6539,0.6426,0.6266,0.5937,0.564,0.5375,0.0,0.0,0.0,0.0,0.5186,0.5118,0.4757,0.4611,0.4489,0.3975,0.0,0.0,0.0,0.0,0.0,0.0,0.0,0.1194,0.1134,0.1364,0.1632,0.1556,0.1534,0.139,0.0953,0.0653,0.0483,0.0468,0.0461,0.0449,0.042,0.0327,0.0,0.0,0.0,0.0069,0.0,0.0,0.0,0.0,0.0,0.0,0.0,0.0,0.0,0.0,0.0,0.0,0.0,0.0061,0.0087,0.0,0.0,0.0,0.0,0.0,0.0,0.0,0.0,0.0,0.0,0.0,0.0,0.0,0.0,0.0,0.0,0.0,0.0,0.0,0.0,0.0,0.0,0.0,0.0,0.0,0.0,0.0,0.0,0.5043,0.5301,0.5115,0.526,0.5182,0.0,0.0,0.0,0.0,0.0,0.0,0.5814,0.5844,0.5915,0.6135,0.6295,0.6463,0.6529,0.6681,0.6759,0.6759,0.6797,0.6793,0.6759,0.6759,0.6736,0.6698,0.6446,0.6322,0.6318,0.6091,0.5918,0.58,0.5402,0.524,0.5218,0.5074,0.4997,0.4856,0.4359,0.4113,0.3923,0.327,0.2595,0.2004,0.1911,0.0,0.0,0.0,0.0,0.0514,0.0452,0.0467,0.052,0.044,0.0446,0.0409,0.0241,0.0237,0.0269,0.0365,0.0363,0.0356,0.0298,0.023,0.0,0.0133,0.007,0.0,0.0,0.0,0.0,0.0,0.0,0.0,0.0,0.0,0.0,0.0,0.0,0.0,0.0,0.0,0.0,0.0,0.0,0.0,0.0,0.0,0.0,0.0,0.0,0.0,0.0,0.0,0.0,0.0,0.0,0.0,0.0,0.0,0.0,0.0,0.0,0.0,0.0,0.0,0.0,0.0,0.0,0.0,0.0,0.0,0.0,0.5129,0.5662,0.0,0.0,0.0,0.0,0.5566,0.5677,0.583,0.6,0.6274,0.6474,0.6487,0.66,0.6681,0.6688,0.6841,0.6873,0.6876,0.7011,0.7004,0.6873,0.6873,0.6837,0.6657,0.5773,0.5352,0.5427,0.6173,0.6467,0.6331,0.5246,0.4848,0.4735,0.3852,0.3591,0.3643,0.3219,0.3202,0.3296,0.3012,0.2417,0.181,0.1814,0.1204,0.0,0.0,0.0555,0.0569,0.0374,0.0293,0.0252,0.0084,0.0042,0.0042,0.0,0.0,0.0,0.0039,0.0038,0.0037,0.0037,0.0,0.0,0.0,0.0,0.0,0.0,0.0,0.0,0.0,0.0,0.0,0.0,0.0,0.0,0.0,0.0,0.0,0.0,0.0,0.0,0.0,0.0,0.0,0.0,0.0,0.0,0.0,0.0,0.0,0.0,0.0,0.0,0.0,0.0,0.0,0.0,0.0,0.0,0.0,0.0,0.0,0.0,0.0,0.0,0.0,0.0,0.0,0.0,0.0,0.0,0.5726,0.5946,0.0,0.56,0.5741,0.5893,0.6047,0.619,0.6342,0.6556,0.6709,0.6854,0.7088,0.7146,0.718,0.7278,0.7333,0.6989,0.626,0.6304,0.5944,0.5212,0.5212,0.519,0.5152,0.4802,0.4539,0.4448,0.4892,0.4967,0.4712,0.4308,0.4089,0.3924,0.36,0.3371,0.3182,0.2503,0.2345,0.2278,0.1617,0.1232,0.1016,0.086,0.0609,0.0362,0.0205,0.0207,0.0208,0.0126,0.0128,0.0086,0.0,0.0,0.0,0.0,0.0,0.0,0.0,0.0,0.0,0.0,0.0,0.0,0.0,0.0,0.0,0.0,0.0,0.0,0.0,0.0,0.0,0.0,0.0,0.0,0.0,0.0,0.0,0.0,0.0,0.0,0.0,0.0,0.0,0.0,0.0,0.0,0.0,0.0,0.0,0.0,0.0,0.0,0.0,0.0,0.0,0.0,0.0,0.0,0.0,0.0,0.0,0.0,0.0,0.0,0.0,0.0,0.0,0.0,0.576,0.5992,0.6004,0.6171,0.6221,0.6003,0.6139,0.6318,0.6474,0.6617,0.6807,0.7065,0.7126,0.7244,0.7441,0.7448,0.7499,0.7597,0.7167,0.6599,0.595,0.5485,0.4896,0.4197,0.4197,0.4134,0.4064,0.3685,0.3442,0.3263,0.3153,0.2966,0.2787,0.3216,0.3215,0.2999,0.2658,0.2443,0.2186,0.1587,0.1331,0.116,0.0602,0.0386,0.0384,0.0258,0.0214,0.0171,0.0043,0.0,0.0,0.0,0.0,0.0,0.0,0.0,0.0,0.0,0.0,0.0,0.0,0.0,0.0,0.0,0.0,0.0,0.0,0.0,0.0,0.0,0.0,0.0,0.0,0.0,0.0,0.0,0.0,0.0,0.0,0.0,0.0,0.0,0.0,0.0,0.0,0.0,-0.003,-0.0105,0.0,0.0,0.0,0.0,0.0,0.0,0.0,0.0,0.0,0.0,0.0,0.0,0.0,0.0,0.0,0.0,0.0,0.0,0.0,0.0,0.0,0.0,0.0,0.5325,0.5881,0.6178,0.589,0.6352,0.66,0.6361,0.6556,0.6783,0.6896,0.7034,0.7176,0.737,0.7519,0.76,0.756,0.756,0.7513,0.7516,0.6222,0.5648,0.5887,0.4559,0.3943,0.3894,0.3894,0.3757,0.346,0.2499,0.2048,0.1976,0.1056,0.0686,0.0808,0.1972,0.2283,0.1925,0.1031,0.0673,0.0673,0.0448,0.0224,0.0,0.0,0.0,0.0,0.0,0.0,0.0,0.0,0.0,0.0,0.0,0.0,0.0,0.0,0.0,0.0,0.0,0.0,0.0,0.0,0.0,0.0,0.0,0.0,0.0,0.0,0.0,0.0,0.0,0.0,0.0,0.0,0.0,0.0,0.0,0.0,0.0,0.0,0.0,0.0,0.0,0.0,0.0,0.0,0.0,-0.012,-0.0309,0.0,0.0,0.0,0.0,0.0,0.0,0.0,0.0,0.0,0.0,0.0,0.0,0.0,0.0,0.0,0.0,0.0,0.0,0.0,0.0,0.0,0.5548,0.5858,0.6004,0.6176,0.6383,0.6586,0.6724,0.6919,0.7095,0.7183,0.7251,0.7404,0.7451,0.7396,0.7246,0.7289,0.7266,0.718,0.6404,0.6052,0.6131,0.4991,0.4076,0.3394,0.3008,0.2409,0.1619,0.1619,0.1566,0.1464,0.1188,0.0995,0.0844,0.0755,0.0518,0.028,0.0952,0.1075,0.0851,0.0583,0.0359,0.018,0.0135,0.0045,0.0,0.0,0.0,0.0,0.0,0.0,0.0,0.0,0.0,0.0,0.0,0.0,0.0,0.0,0.0,0.0,0.0,0.0,0.0,0.0,0.0,0.0,0.0,0.0,0.0,0.0,0.0,0.0,0.0,0.0,0.0,0.0,0.0,0.0,0.0,0.0,0.0,0.0,0.0,0.0,0.0,0.0,-0.0068,-0.0202,-0.0319,-0.0398,0.0,0.0,0.0,0.0,0.0,0.0,0.0,0.0,0.0,0.0,0.0,0.0,0.0,0.0,0.0,0.0,0.0,0.0,0.0,0.0,0.0,0.0,0.5893,0.6231,0.6505,0.6565,0.6637,0.6856,0.7037,0.7183,0.7402,0.7431,0.7502,0.7594,0.756,0.7451,0.7301,0.7215,0.7188,0.7076,0.6481,0.5963,0.5622,0.4418,0.3349,0.2377,0.1833,0.1233,0.0586,0.0586,0.0535,0.0386,0.0389,0.0339,0.0239,0.0337,0.024,0.0048,0.0,0.0,0.0,0.0,0.0135,0.0,0.0,0.0,0.0,0.0,0.0,0.0,0.0,0.0,0.0,0.0,0.0,0.0,0.0,0.0,0.0,0.0,0.0,0.0,0.0,0.0,0.0,0.0,0.0,0.0,0.0,0.0,0.0,0.0,0.0,0.0,0.0,0.0,0.0,0.0,0.0,0.0,0.0,0.0,0.0,0.0,0.0,-0.018,-0.0246,-0.0242,0.0,0.0,0.0,0.0,0.0,-0.0674,0.0,0.0,-0.0746,-0.0687,0.0,0.0,0.0,0.0,0.0,0.0,0.0,0.0,0.0,0.0,0.0,0.0,0.0,0.0,0.0,0.0,0.6213,0.6474,0.6829,0.6913,0.6937,0.6937,0.721,0.7429,0.7463,0.7543,0.7631,0.7601,0.7481,0.7404,0.7356,0.7223,0.0,0.0,0.0,0.6431,0.5322,0.4021,0.2968,0.2115,0.0908,0.0354,0.0354,0.0354,0.02,0.0,0.0,0.0,0.0,0.0,0.0,0.0,0.0281,0.0232,0.0,0.0,0.0,0.0,0.0,0.0,0.0,0.0,0.0,0.0,0.0,0.0,0.0,0.0,0.0,0.0,0.0,0.0,0.0,0.0,0.0,0.0,0.0,0.0,0.0,0.0,0.0,0.0,0.0,0.0,0.0,0.0,0.0,0.0,0.0,0.0,0.0,0.0,0.0,0.0,0.0,0.0,-0.0081,-0.0275,-0.0338,-0.0398,-0.0599,-0.0635,-0.0635,-0.0633,-0.0669,-0.0748,-0.0948,-0.0948,-0.1022,-0.1206,-0.0827,-0.0755,0.0,0.0,0.0,0.0,0.0,0.0,0.0,0.0,0.0,0.0,0.0,0.0,0.0,0.0,0.0,0.6214,0.6542,0.6831,0.6873,0.7132,0.7285,0.7285,0.7381,0.7465,0.7702,0.7753,0.7724,0.7605,0.7588,0.7353,0.6956,0.688,0.6789,0.6587,0.5737,0.473,0.3674,0.2568,0.1462,0.0454,0.0202,0.0,0.0101,0.0101,0.005,0.0,0.0,0.0,0.0,0.0,0.0,0.0,0.0048,0.0047,0.0,0.0,0.0,0.0,0.0,0.0,0.0,0.0,0.0,0.0,0.0,0.0,0.0,0.0,0.0,0.0,0.0,0.0,0.0,0.0,0.0,0.0,0.0,0.0,0.0,0.0,0.0,0.0,0.0,0.0,0.0,0.0,0.0,0.0,0.0,0.0,0.0,0.0,0.0,0.0,0.0,0.0,-0.0084,-0.0276,-0.0458,-0.0557,-0.0615,-0.0738,-0.085,-0.0832,-0.1013,-0.1088,-0.113,-0.113,-0.1179,-0.1202,-0.1118,-0.1105,0.0,0.0,0.0,0.0,0.0,0.0,0.0,0.0,0.0,0.0,0.0,0.5655,0.5999,0.0,0.6325,0.6559,0.6783,0.698,0.7129,0.7278,0.7415,0.7415,0.7502,0.7648,0.7797,0.7736,0.7664,0.759,0.7344,0.7095,0.6795,0.6692,0.6539,0.6387,0.5336,0.428,0.3224,0.2116,0.1059,0.0,0.0,0.0,0.0,0.0,0.0,0.0,0.0,0.0,0.0,0.0,0.0,0.0,0.0,0.0,0.0,0.0,0.0,0.0,0.0,0.0,0.0,0.0,0.0,0.0,0.0,0.0,0.0,0.0,0.0,0.0,0.0,0.0,0.0,0.0,0.0,0.0,0.0,0.0,0.0,0.0,0.0,0.0,0.0,0.0,0.0,0.0,0.0,0.0,0.0,0.0,0.0,0.0,0.0,0.0,0.0,-0.0219,-0.0384,-0.049,-0.0796,-0.0933,-0.0947,-0.1022,-0.1054,-0.1041,-0.1152,-0.1234,-0.125,-0.1265,-0.1243,-0.1257,-0.1257,-0.1249,0.0,0.0,0.0,0.0,0.0,0.0,0.0,0.5216,0.5261,0.5861,0.5976,0.6088,0.6487,0.6539,0.6651,0.6883,0.6953,0.7109,0.7377,0.7441,0.7458,0.7412,0.7573,0.7727,0.7758,0.7625,0.7497,0.7447,0.7045,0.6792,0.6742,0.6539,0.6387,0.6387,0.5584,0.4481,0.3224,0.2368,0.1261,0.0,0.0,0.0,0.0,0.0,0.0,0.0,0.0,0.0,0.0,0.0,0.0,0.0,0.0,0.0,0.0,0.0,0.0,0.0,0.0,0.0,0.0,0.0,0.0,0.0,0.0,0.0,0.0,0.0,0.0,0.0,0.0,0.0,0.0,0.0,0.0,0.0,0.0,0.0,0.0,0.0,0.0,0.0,0.0,0.0,0.0,0.0,0.0,0.0,0.0,0.0,0.0,0.0,0.0,0.0,0.0,-0.0441,-0.0691,-0.0679,-0.1079,-0.1301,-0.1316,-0.1251,-0.1239,-0.1239,-0.1239,-0.125,-0.1314,-0.1299,-0.1311,-0.1312,-0.13,-0.1298,0.4879,0.4859,0.4941,0.5257,0.5204,0.526,0.0,0.6003,0.6,0.6505,0.66,0.6617,0.6664,0.6787,0.6886,0.7048,0.7234,0.738,0.755,0.7682,0.7667,0.743,0.7408,0.7479,0.7608,0.7381,0.7138,0.6892,0.6845,0.6692,0.6437,0.6437,0.6387,0.6387,0.6284,0.5231,0.3224,0.3073,0.2016,0.0,0.0,0.0,0.0,0.0,0.0,0.0,0.0,0.0,0.0,0.0,0.0,0.0,0.0,0.0,0.0,0.0,0.0,0.0,0.0,0.0,0.0,0.0,0.0,0.0,0.0,0.0,0.0,0.0,0.0,0.0,0.0,0.0,0.0,0.0,0.0,0.0,0.0,0.0,0.0,0.0,0.0,0.0,0.0,0.0,0.0,0.0,0.0,0.0,0.0,0.0,0.0,0.0,0.0,0.0,0.0,-0.0441,-0.0696,-0.0694,-0.1062,-0.13,-0.1296,-0.1293,-0.1291,-0.1291,-0.1291,-0.1292,-0.1296,-0.13,-0.1301,-0.1302,-0.1372,-0.137,0.516,0.5243,0.5338,0.5498,0.5644,0.5871,0.6228,0.6313,0.639,0.6759,0.6834,0.6858,0.69,0.7082,0.7207,0.7265,0.7404,0.7556,0.7702,0.7773,0.7714,0.7479,0.7355,0.7325,0.7385,0.7141,0.6942,0.6795,0.6642,0.6539,0.6387,0.6387,0.6387,0.6387,0.5787,0.4732,0.3224,0.2569,0.1513,0.0,0.0,0.0,0.0,0.0,0.0,0.0,0.0,0.0,0.0,0.0,0.0,0.0,0.0,0.0,0.0,0.0,0.0,0.0,0.0,0.0,0.0,0.0,0.0,0.0,0.0,0.0,0.0,0.0,0.0,0.0,0.0,0.0,0.0,0.0,0.0,0.0,0.0,0.0,0.0,0.0,0.0,0.0,0.0,0.0,0.0,0.0,0.0,0.0,0.0,0.0,0.0,0.0,0.0,-0.0045,-0.0224,-0.0534,-0.0753,-0.093,-0.1216,-0.1372,-0.1372,-0.1314,-0.1305,-0.1305,-0.1305,-0.1305,-0.1305,-0.1322,-0.1372,-0.1373,-0.1402,-0.1366,0.5399,0.5539,0.561,0.5691,0.6027,0.632,0.6402,0.6495,0.6671,0.6889,0.6943,0.6974,0.7078,0.7265,0.7433,0.7428,0.756,0.7661,0.7758,0.7729,0.7631,0.7342,0.718,0.7039,0.6989,0.6789,0.6692,0.6692,0.6489,0.6387,0.6387,0.6387,0.6387,0.6387,0.5634,0.4732,0.3676,0.2569,0.1513,0.0454,0.0151,0.0,0.0,0.0,0.0,0.0,0.0,0.0,0.0,0.0,0.0,0.0,0.0,0.0,0.0,0.0,0.0,0.0,0.0,0.0,0.0,0.0,0.0,0.0,0.0,0.0,0.0,0.0,0.0,0.0,0.0,0.0,0.0,0.0,0.0,0.0,0.0,0.0,0.0,0.0,0.0,0.0,0.0,0.0,0.0,0.0,0.0,0.0,0.0,0.0,0.0,0.0,-0.0045,-0.018,-0.0403,-0.0673,-0.0897,-0.1076,-0.1282,-0.1402,-0.1402,-0.134,-0.1329,-0.1329,-0.1329,-0.1329,-0.1329,-0.1393,-0.1402,-0.1403,-0.1381,-0.1391,0.5583,0.5586,0.5657,0.5909,0.6139,0.6375,0.662,0.6807,0.6913,0.7058,0.7088,0.7092,0.7095,0.7265,0.7421,0.7567,0.7712,0.7761,0.7621,0.759,0.7388,0.6889,0.6792,0.6692,0.6437,0.6437,0.6437,0.6437,0.6387,0.6387,0.6387,0.6387,0.6387,0.6387,0.6387,0.5834,0.4784,0.3676,0.262,0.1563,0.0505,0.0,0.0,0.0,0.0,0.0,0.0,0.0,0.0,0.0,0.0,0.0,0.0,0.0,0.0,0.0,0.0,0.0,0.0,0.0,0.0,0.0,0.0,0.0,0.0,0.0,0.0,0.0,0.0,0.0,0.0,0.0,0.0,0.0,0.0,0.0,0.0,0.0,0.0,0.0,0.0,0.0,0.0,0.0,0.0,0.0,0.0,0.0,0.0,0.0,0.0,0.0,-0.0224,-0.0403,-0.0403,-0.0807,-0.1076,-0.1121,-0.13,-0.1389,-0.1389,-0.1388,-0.1387,-0.1387,-0.1387,-0.1387,-0.1387,-0.1389,-0.1389,-0.1389,-0.139,-0.1391,0.5705,0.5803,0.5928,0.6132,0.6369,0.6607,0.6807,0.692,0.7038,0.7085,0.7021,0.691,0.6777,0.6983,0.7223,0.728,0.7415,0.7527,0.7574,0.7444,0.7208,0.6776,0.6793,0.6661,0.6383,0.6393,0.6387,0.6387,0.6387,0.6387,0.6387,0.6387,0.6387,0.6387,0.6387,0.5884,0.4834,0.4431,0.3374,0.1563,0.0505,0.0,0.0,0.0,0.0,0.0,0.0,0.0,0.0,0.0,0.0,0.0,0.0,0.0,0.0,0.0,0.0,0.0,0.0,0.0,0.0,0.0,0.0,0.0,0.0,0.0,0.0,0.0,0.0,0.0,0.0,0.0,0.0,0.0,0.0,0.0,0.0,0.0,0.0,0.0,0.0,0.0,0.0,0.0,0.0,0.0,0.0,0.0,0.0,0.0,0.0,0.0,-0.0226,-0.0448,-0.0583,-0.0897,-0.1166,-0.13,-0.1345,-0.1391,-0.1391,-0.1391,-0.1391,-0.1391,-0.1391,-0.1391,-0.1391,-0.1391,-0.1391,-0.1391,-0.1456,-0.1649,0.5812,0.5884,0.6007,0.6248,0.6477,0.6719,0.6862,0.6994,0.7082,0.7031,0.6906,0.6763,0.6587,0.6701,0.689,0.696,0.7104,0.7227,0.7319,0.7141,0.6959,0.6628,0.6641,0.6562,0.6336,0.6393,0.6387,0.6387,0.6387,0.6387,0.6387,0.6387,0.6387,0.6387,0.6387,0.6084,0.5386,0.4985,0.3726,0.1613,0.0908,0.0353,0.0,0.0,0.0,0.0,0.0,0.0,0.0,0.0,0.0,0.0,0.0,0.0,0.0,0.0,0.0,0.0,0.0,0.0,0.0,0.0,0.0,0.0,0.0,0.0,0.0,0.0,0.0,0.0,0.0,0.0,0.0,0.0,0.0,0.0,0.0,0.0,0.0,0.0,0.0,0.0,0.0,0.0,0.0,0.0,0.0,0.0,0.0,0.0,-0.0047,-0.014,-0.037,-0.0642,-0.0871,-0.1093,-0.1315,-0.1406,-0.1396,-0.1391,-0.1391,-0.1391,-0.1391,-0.1391,-0.1391,-0.1391,-0.1391,-0.1391,-0.1391,-0.1391,-0.1466,-0.1805,0.5912,0.5918,0.5949,0.6229,0.644,0.6625,0.6807,0.695,0.7045,0.6903,0.6748,0.6592,0.6372,0.6382,0.6447,0.6641,0.6793,0.684,0.6807,0.6795,0.6692,0.6437,0.6387,0.6387,0.6387,0.6387,0.6387,0.6387,0.6387,0.6387,0.6387,0.6387,0.6387,0.6387,0.6387,0.6387,0.6387,0.5286,0.3676,0.1663,0.1563,0.1009,0.0,0.0,0.0,0.0,0.0,0.0,0.0,0.0,0.0,0.0,0.0,0.0,0.0,0.0,0.0,0.0,0.0,0.0,0.0,0.0,0.0,0.0,0.0,0.0,0.0,0.0,0.0,0.0,0.0,0.0,0.0,0.0,0.0,0.0,0.0,0.0,0.0,0.0,0.0,0.0,0.0,0.0,0.0,0.0,0.0,0.0,0.0,0.0,-0.0097,-0.0383,-0.0668,-0.0906,-0.1192,-0.1406,-0.1483,-0.1483,-0.1455,-0.1393,-0.1393,-0.1391,-0.1391,-0.1391,-0.1391,-0.1391,-0.1391,-0.1392,-0.1393,-0.1393,-0.147,-0.1811,0.5823,0.5891,0.6014,0.619,0.6257,0.635,0.649,0.6508,0.6513,0.6457,0.6191,0.5904,0.5758,0.5905,0.6062,0.6112,0.6344,0.6595,0.6758,0.6639,0.6487,0.6387,0.6387,0.6387,0.6387,0.6387,0.6387,0.6387,0.6387,0.6387,0.6387,0.6387,0.6387,0.6387,0.6387,0.6387,0.6387,0.4529,0.3324,0.2771,0.116,0.0252,0.0,0.0,0.0,0.0,0.0,0.0,0.0,0.0,0.0,0.0,0.0,0.0,0.0,0.0,0.0,0.0,0.0,0.0,0.0,0.0,0.0,0.0,0.0,0.0,0.0,0.0,0.0,0.0,0.0,0.0,0.0,0.0,0.0,0.0,0.0,0.0,0.0,0.0,0.0,0.0,0.0,0.0,0.0,0.0,0.0,0.0,0.0,-0.0198,-0.0343,-0.039,-0.0818,-0.1144,-0.1192,-0.1376,-0.1515,-0.1515,-0.1486,-0.1469,-0.1469,-0.1447,-0.1391,-0.1391,-0.1391,-0.1391,-0.1391,-0.1458,-0.1469,-0.147,-0.1523,-0.208,0.5973,0.5981,0.5984,0.6118,0.6153,0.6185,0.6313,0.633,0.6251,0.6104,0.5838,0.5551,0.5325,0.5394,0.5499,0.5664,0.5902,0.6216,0.6522,0.6457,0.6387,0.6387,0.6387,0.6387,0.6387,0.6387,0.6387,0.6387,0.6387,0.6387,0.6387,0.6387,0.6387,0.6387,0.6387,0.6387,0.6387,0.473,0.3676,0.3173,0.1513,0.0454,0.0,0.0,0.0,0.0,0.0,0.0,0.0,0.0,0.0,0.0,0.0,0.0,0.0,0.0,0.0,0.0,0.0,0.0,0.0,0.0,0.0,0.0,0.0,0.0,0.0,0.0,0.0,0.0,0.0,0.0,0.0,0.0,0.0,0.0,0.0,0.0,0.0,0.0,0.0,0.0,0.0,0.0,0.0,0.0,-0.0101,-0.0152,-0.0152,-0.03,-0.0497,-0.0746,-0.1034,-0.1272,-0.137,-0.1456,-0.1546,-0.1546,-0.1517,-0.15,-0.15,-0.1484,-0.1429,-0.1429,-0.1429,-0.1429,-0.1429,-0.1492,-0.15,-0.1502,-0.1791,-0.2404,0.6187,0.6048,0.5941,0.6054,0.6068,0.6127,0.6221,0.622,0.6078,0.5783,0.5514,0.5272,0.5006,0.4922,0.4995,0.5312,0.5564,0.5858,0.6268,0.6366,0.6387,0.6387,0.6387,0.6387,0.6387,0.6387,0.6387,0.6387,0.6387,0.6387,0.6387,0.6387,0.6387,0.6387,0.6387,0.6387,0.6387,0.5183,0.413,0.3173,0.1966,0.0908,0.0,0.0,0.0,0.0,0.0,0.0,0.0,0.0,0.0,0.0,0.0,0.0,0.0,0.0,0.0,0.0,0.0,0.0,0.0,0.0,0.0,0.0,0.0,0.0,0.0,0.0,0.0,0.0,0.0,0.0,0.0,0.0,0.0,0.0,0.0,0.0,0.0,0.0,0.0,0.0,0.0,0.0,0.0,-0.0051,-0.0253,-0.0404,-0.0505,-0.0505,-0.0707,-0.1162,-0.1212,-0.1364,-0.1566,-0.1593,-0.1577,-0.1577,-0.1549,-0.1532,-0.1532,-0.1528,-0.1478,-0.1478,-0.1478,-0.1478,-0.1478,-0.153,-0.1532,-0.1533,-0.205,-0.256,0.6148,0.6092,0.6054,0.6077,0.6002,0.5969,0.6029,0.5742,0.5425,0.5322,0.4977,0.468,0.4679,0.4696,0.485,0.5196,0.5507,0.5858,0.6268,0.6366,0.6387,0.6387,0.6387,0.6387,0.6387,0.6387,0.6387,0.6387,0.6387,0.6387,0.6387,0.6387,0.6387,0.6387,0.6387,0.6387,0.6387,0.4479,0.3374,0.3173,0.121,0.0202,0.0,0.0,0.0,0.0,0.0,0.0,0.0,0.0,0.0,0.0,0.0,0.0,0.0,0.0,0.0,0.0,0.0,0.0,0.0,0.0,0.0,0.0,0.0,0.0,0.0,0.0,0.0,0.0,0.0,0.0,0.0,0.0,0.0,0.0,0.0,0.0,0.0,0.0,0.0,0.0,0.0,0.0,-0.0051,-0.0303,-0.0354,-0.0556,-0.101,-0.1061,-0.1111,-0.1212,-0.1415,-0.1566,-0.1617,-0.1612,-0.1609,-0.1609,-0.1581,-0.1564,-0.1564,-0.1539,-0.1478,-0.1478,-0.1478,-0.1478,-0.1478,-0.1551,-0.1564,-0.1564,-0.1694,-0.201,0.6445,0.6349,0.6257,0.6257,0.6159,0.6035,0.5966,0.571,0.5395,0.5055,0.4797,0.458,0.4388,0.4464,0.4649,0.4824,0.5121,0.5507,0.5931,0.6089,0.6227,0.6363,0.6387,0.6387,0.6387,0.6387,0.6387,0.6387,0.6387,0.6387,0.6387,0.6387,0.6387,0.6387,0.6387,0.6387,0.6387,0.4277,0.3224,0.3173,0.1009,0.0,0.0,0.0,0.0,0.0,0.0,0.0,0.0,0.0,0.0,0.0,0.0,0.0,0.0,0.0,0.0,0.0,0.0,0.0,0.0,0.0,0.0,0.0,0.0,0.0,0.0,0.0,0.0,0.0,0.0,0.0,0.0,0.0,0.0,0.0,0.0,0.0,0.0,0.0,0.0,0.0,0.0,0.0,-0.0051,-0.0152,-0.0455,-0.0707,-0.096,-0.1212,-0.1415,-0.1415,-0.1516,-0.1617,-0.1617,-0.1617,-0.1617,-0.1617,-0.1603,-0.1595,-0.1595,-0.1581,-0.1573,-0.1573,-0.1573,-0.1573,-0.1573,-0.1588,-0.1595,-0.1596,-0.1911,-0.217,0.6762,0.6634,0.6476,0.6476,0.6356,0.6182,0.6031,0.5812,0.5468,0.4974,0.4764,0.4593,0.4236,0.4303,0.4446,0.4495,0.4757,0.5114,0.5618,0.5852,0.6064,0.6346,0.6387,0.6387,0.6387,0.6387,0.6387,0.6387,0.6387,0.6387,0.6387,0.6387,0.6387,0.6387,0.6387,0.6387,0.6387,0.4479,0.3425,0.3173,0.1261,0.0202,0.0,0.0,0.0,0.0,0.0,0.0,0.0,0.0,0.0,0.0,0.0,0.0,0.0,0.0,0.0,0.0,0.0,0.0,0.0,0.0,0.0,0.0,0.0,0.0,0.0,0.0,0.0,0.0,0.0,0.0,0.0,0.0,0.0,0.0,0.0,0.0,0.0,0.0,0.0,0.0,0.0,0.0,-0.0051,-0.0152,-0.0505,-0.0859,-0.096,-0.1364,-0.1617,-0.1617,-0.1617,-0.1617,-0.1617,-0.1617,-0.1617,-0.1617,-0.1617,-0.1617,-0.1617,-0.1617,-0.1617,-0.1617,-0.1617,-0.1617,-0.1617,-0.1617,-0.1617,-0.1617,-0.2019,-0.227,0.6681,0.6692,0.6748,0.6748,0.6506,0.6274,0.6254,0.5772,0.5273,0.5114,0.4694,0.4364,0.437,0.4233,0.4221,0.4468,0.4683,0.5019,0.5607,0.5926,0.6159,0.6357,0.6387,0.6387,0.6387,0.6387,0.6387,0.6387,0.6387,0.6387,0.6387,0.6387,0.6387,0.6387,0.6387,0.6387,0.6387,0.5233,0.418,0.3173,0.2016,0.0958,0.0,0.0,0.0,0.0,0.0,0.0,0.0,0.0,0.0,0.0,0.0,0.0,0.0,0.0,0.0,0.0,0.0,0.0,0.0,0.0,0.0,0.0,0.0,0.0,0.0,0.0,0.0,0.0,0.0,0.0,0.0,0.0,0.0,0.0,0.0,0.0,0.0,0.0,0.0,0.0,0.0,0.0,-0.0152,-0.0657,-0.0758,-0.096,-0.1465,-0.1566,-0.1617,-0.1617,-0.1617,-0.1617,-0.1617,-0.1617,-0.1617,-0.1617,-0.1617,-0.1617,-0.1617,-0.1617,-0.1617,-0.1617,-0.1617,-0.1617,-0.1617,-0.1617,-0.1617,-0.1617,-0.1667,-0.1919,0.6747,0.686,0.6966,0.6966,0.6681,0.6351,0.6146,0.5694,0.5193,0.4861,0.4625,0.4402,0.4139,0.4101,0.4124,0.4145,0.3889,0.3927,0.4477,0.4758,0.5043,0.5398,0.5994,0.6363,0.6379,0.6387,0.6387,0.6387,0.6387,0.6387,0.6387,0.6387,0.6387,0.6387,0.6387,0.6387,0.6387,0.468,0.3626,0.3173,0.1462,0.0404,0.0,0.0,0.0,0.0,0.0,0.0,0.0,0.0,0.0,0.0,0.0,0.0,0.0,0.0,0.0,0.0,0.0,0.0,0.0,0.0,0.0,0.0,0.0,0.0,0.0,0.0,0.0,0.0,0.0,0.0,0.0,0.0,0.0,0.0,0.0,0.0,0.0,0.0,0.0,0.0,0.0,0.0,-0.0152,-0.0505,-0.0707,-0.096,-0.1314,-0.1516,-0.1617,-0.1617,-0.1617,-0.1617,-0.1617,-0.1617,-0.1617,-0.1617,-0.1617,-0.1617,-0.1617,-0.1617,-0.1617,-0.1617,-0.1617,-0.1617,-0.1617,-0.1617,-0.1617,-0.1617,-0.1617,-0.1868,0.6671,0.6868,0.6967,0.6967,0.6709,0.6369,0.6066,0.5653,0.5195,0.4888,0.4695,0.4502,0.4156,0.41,0.4005,0.3671,0.3521,0.3451,0.3463,0.3855,0.4161,0.4328,0.5197,0.5869,0.5926,0.6216,0.6387,0.6387,0.6387,0.6387,0.6387,0.6387,0.6387,0.6387,0.6387,0.6387,0.6387,0.458,0.3525,0.3173,0.1361,0.0303,0.0,0.0,0.0,0.0,0.0,0.0,0.0,0.0,0.0,0.0,0.0,0.0,0.0,0.0,0.0,0.0,0.0,0.0,0.0,0.0,0.0,0.0,0.0,0.0,0.0,0.0,0.0,0.0,0.0,0.0,0.0,0.0,0.0,0.0,0.0,0.0,0.0,0.0,0.0,0.0,0.0,-0.0051,-0.0202,-0.0455,-0.0758,-0.101,-0.1263,-0.1465,-0.1617,-0.1617,-0.1617,-0.1617,-0.1617,-0.1617,-0.1617,-0.1617,-0.1617,-0.1617,-0.1617,-0.1617,-0.1617,-0.1617,-0.1617,-0.1617,-0.1617,-0.1617,-0.1617,-0.1617,-0.1768,-0.2221,0.6306,0.6481,0.6705,0.6705,0.6481,0.6259,0.603,0.5656,0.5333,0.5393,0.498,0.4583,0.4507,0.4336,0.3908,0.3046,0.3805,0.4054,0.2879,0.3497,0.3861,0.3305,0.4089,0.4743,0.4789,0.5773,0.6387,0.6387,0.6387,0.6387,0.6387,0.6387,0.6387,0.6387,0.6387,0.6387,0.6387,0.5334,0.423,0.3173,0.2116,0.1009,0.0,0.0,0.0,0.0,0.0,0.0,0.0,0.0,0.0,0.0,0.0,0.0,0.0,0.0,0.0,0.0,0.0,0.0,0.0,0.0,0.0,0.0,0.0,0.0,0.0,0.0,0.0,0.0,0.0,0.0,0.0,0.0,0.0,0.0,0.0,0.0,0.0,0.0,0.0,0.0,0.0,-0.0202,-0.0505,-0.0758,-0.101,-0.1313,-0.1566,-0.1617,-0.1617,-0.1617,-0.1617,-0.1617,-0.1617,-0.1617,-0.1617,-0.1617,-0.1617,-0.1617,-0.1617,-0.1617,-0.1617,-0.1617,-0.1617,-0.1617,-0.1617,-0.1617,-0.1617,-0.1617,-0.212,-0.2976,0.6074,0.6247,0.6439,0.6439,0.6173,0.5899,0.5706,0.5399,0.5145,0.5006,0.4786,0.4551,0.4329,0.4244,0.3928,0.3053,0.2852,0.2501,0.1722,0.2615,0.3312,0.3196,0.4777,0.5893,0.5879,0.6213,0.6387,0.6387,0.6387,0.6387,0.6387,0.6387,0.6387,0.6387,0.6387,0.6387,0.6387,0.463,0.3525,0.3173,0.1361,0.0353,0.0,0.0,0.0,0.0,0.0,0.0,0.0,0.0,0.0,0.0,0.0,0.0,0.0,0.0,0.0,0.0,0.0,0.0,0.0,0.0,0.0,0.0,0.0,0.0,0.0,0.0,0.0,0.0,0.0,0.0,0.0,0.0,0.0,0.0,0.0,0.0,0.0,0.0,0.0,0.0,0.0,-0.0202,-0.0505,-0.0758,-0.101,-0.1313,-0.1566,-0.1617,-0.1617,-0.1617,-0.1617,-0.1617,-0.1617,-0.1617,-0.1617,-0.1617,-0.1617,-0.1617,-0.1617,-0.1617,-0.1617,-0.1617,-0.1617,-0.1617,-0.1617,-0.1617,-0.1768,-0.217,-0.2675,-0.333,0.5691,0.5928,0.6126,0.6126,0.5901,0.5686,0.5548,0.5364,0.519,0.506,0.4874,0.4653,0.4442,0.4336,0.3889,0.2745,0.2529,0.2229,0.1347,0.2224,0.3181,0.3711,0.4947,0.5924,0.6322,0.6363,0.6387,0.6387,0.6387,0.6387,0.6387,0.6387,0.6387,0.6387,0.6387,0.6184,0.5784,0.4076,0.3022,0.2569,0.0807,0.0,0.0,0.0,0.0,0.0,0.0,0.0,0.0,0.0,0.0,0.0,0.0,0.0,0.0,0.0,0.0,0.0,0.0,0.0,0.0,0.0,0.0,0.0,0.0,0.0,0.0,0.0,0.0,0.0,0.0,0.0,0.0,0.0,0.0,0.0,0.0,0.0,0.0,0.0,0.0,0.0,0.0,-0.0303,-0.0606,-0.0758,-0.1111,-0.1415,-0.1566,-0.1617,-0.1617,-0.1617,-0.1617,-0.1617,-0.1617,-0.1617,-0.1617,-0.1617,-0.1617,-0.1617,-0.1617,-0.1617,-0.1617,-0.1617,-0.1617,-0.1617,-0.1617,-0.1818,-0.217,-0.2725,-0.3229,-0.3783,0.0,0.5498,0.5728,0.5749,0.5654,0.5559,0.5569,0.5498,0.0,0.5395,0.5125,0.4833,0.4666,0.4494,0.3847,0.2205,0.2698,0.2864,0.1564,0.2344,0.3486,0.4692,0.4898,0.5296,0.623,0.6374,0.6387,0.6387,0.6387,0.6387,0.6387,0.6387,0.6387,0.6387,0.6387,0.5884,0.4834,0.3728,0.267,0.1563,0.0505,0.0,0.0,0.0,0.0,0.0,0.0,0.0,0.0,0.0,0.0,0.0,0.0,0.0,0.0,0.0,0.0,0.0,0.0,0.0,0.0,0.0,0.0,0.0,0.0,0.0,0.0,0.0,0.0,0.0,0.0,0.0,0.0,0.0,0.0,0.0,0.0,0.0,0.0,0.0,0.0,0.0,0.0,-0.0404,-0.0758,-0.0808,-0.1263,-0.1566,-0.1617,-0.1617,-0.1617,-0.1617,-0.1617,-0.1617,-0.1617,-0.1617,-0.1617,-0.1617,-0.1617,-0.1617,-0.1617,-0.1617,-0.1617,-0.1617,-0.1617,-0.1617,-0.1617,-0.212,-0.2623,-0.323,-0.3732,-0.4234,0.4473,0.0,0.5006,0.5197,0.5231,0.527,0.0,0.5423,0.5395,0.5395,0.5125,0.4677,0.3978,0.4147,0.3699,0.1522,0.1851,0.2155,0.1479,0.3059,0.4684,0.5876,0.603,0.6098,0.6346,0.6371,0.6387,0.6387,0.6387,0.6387,0.6387,0.6387,0.6387,0.6387,0.6387,0.5884,0.4834,0.3728,0.267,0.1563,0.0505,0.0,0.0,0.0,0.0,0.0,0.0,0.0,0.0,0.0,0.0,0.0,0.0,0.0,0.0,0.0,0.0,0.0,0.0,0.0,0.0,0.0,0.0,0.0,0.0,0.0,0.0,0.0,0.0,0.0,0.0,0.0,0.0,0.0,0.0,0.0,0.0,0.0,0.0,0.0,0.0,0.0,0.0,-0.0253,-0.0556,-0.0758,-0.1061,-0.1364,-0.1566,-0.1617,-0.1617,-0.1617,-0.1617,-0.1617,-0.1617,-0.1617,-0.1617,-0.1617,-0.1617,-0.1617,-0.1617,-0.1617,-0.1617,-0.1617,-0.1617,-0.1617,-0.1617,-0.1717,-0.2272,-0.318,-0.3331,-0.3882,0.4035,0.4409,0.4833,0.4961,0.5135,0.5257,0.5375,0.5395,0.5395,0.5395,0.4903,0.4429,0.4243,0.4134,0.3522,0.1763,0.226,0.2697,0.2215,0.3152,0.4334,0.5515,0.5684,0.5837,0.6337,0.6387,0.6387,0.6387,0.6387,0.6387,0.6387,0.6387,0.6187,0.5687,0.6134,0.5634,0.4078,0.3475,0.2418,0.0858,0.0252,0.0,0.0,0.0,0.0,0.0,0.0,0.0,0.0,0.0,0.0,0.0,0.0,0.0,0.0,0.0,0.0,0.0,0.0,0.0,0.0,0.0,0.0,0.0,0.0,0.0,0.0,0.0,0.0,0.0,0.0,0.0,0.0,0.0,0.0,0.0,0.0,0.0,0.0,0.0,0.0,0.0,0.0,-0.0202,-0.0505,-0.0758,-0.101,-0.1313,-0.1566,-0.1617,-0.1617,-0.1617,-0.1617,-0.1617,-0.1617,-0.1617,-0.1617,-0.1617,-0.1617,-0.1617,-0.1617,-0.1617,-0.1617,-0.1617,-0.1617,-0.1617,-0.1617,-0.1869,-0.2373,-0.323,-0.3432,-0.4033,0.3856,0.4345,0.4857,0.4877,0.5108,0.5365,0.5388,0.5395,0.5395,0.5395,0.4756,0.4292,0.4687,0.4278,0.3489,0.2258,0.2959,0.3596,0.3305,0.3402,0.3893,0.4922,0.5035,0.5384,0.6337,0.6387,0.6387,0.6387,0.6387,0.6387,0.6387,0.6387,0.5884,0.4834,0.5837,0.5281,0.2972,0.3123,0.2116,0.0,0.0,0.0,0.0,0.0,0.0,0.0,0.0,0.0,0.0,0.0,0.0,0.0,0.0,0.0,0.0,0.0,0.0,0.0,0.0,0.0,0.0,0.0,0.0,0.0,0.0,0.0,0.0,0.0,0.0,0.0,0.0,0.0,0.0,0.0,0.0,0.0,0.0,0.0,0.0,0.0,0.0,0.0,0.0,-0.0202,-0.0455,-0.0707,-0.096,-0.1212,-0.1516,-0.1566,-0.1617,-0.1617,-0.1617,-0.1617,-0.1617,-0.1617,-0.1617,-0.1617,-0.1617,-0.1617,-0.1617,-0.1617,-0.1617,-0.1617,-0.1617,-0.1617,-0.1617,-0.207,-0.2574,-0.323,-0.3682,-0.4234,0.4115,0.4351,0.4593,0.4694,0.4948,0.5199,0.5365,0.5395,0.5395,0.5395,0.5155,0.4764,0.4149,0.445,0.4069,0.179,0.2371,0.3437,0.4413,0.5266,0.5865,0.6124,0.6137,0.6234,0.6387,0.6387,0.6387,0.6387,0.6387,0.6387,0.6387,0.6387,0.5884,0.4834,0.5837,0.4929,0.1865,0.2771,0.2116,0.0,0.0,0.0,0.0,0.0,0.0,0.0,0.0,0.0,0.0,0.0,0.0,0.0,0.0,0.0,0.0,0.0,0.0,0.0,0.0,0.0,0.0,0.0,0.0,0.0,0.0,0.0,0.0,0.0,0.0,0.0,0.0,0.0,0.0,0.0,0.0,0.0,0.0,0.0,0.0,0.0,0.0,0.0,0.0,-0.0051,-0.0152,-0.0404,-0.0707,-0.096,-0.1212,-0.1465,-0.1617,-0.1617,-0.1617,-0.1617,-0.1617,-0.1617,-0.1617,-0.1617,-0.1617,-0.1617,-0.1617,-0.1617,-0.1617,-0.1617,-0.1617,-0.1617,-0.1617,-0.1667,-0.2222,-0.318,-0.3281,-0.3833,0.3124,0.362,0.4125,0.4201,0.4791,0.5396,0.5501,0.5579,0.5599,0.5599,0.5243,0.4817,0.4638,0.4656,0.4488,0.3782,0.3341,0.3477,0.4578,0.4691,0.4835,0.5479,0.5536,0.5787,0.6337,0.6387,0.6387,0.6387,0.6387,0.6137,0.5584,0.5536,0.478,0.3123,0.4126,0.3423,0.0757,0.1815,0.1563,0.0,0.0,0.0,0.0,0.0,0.0,0.0,0.0,0.0,0.0,0.0,0.0,0.0,0.0,0.0,0.0,0.0,0.0,0.0,0.0,0.0,0.0,0.0,0.0,0.0,0.0,0.0,0.0,0.0,0.0,0.0,0.0,0.0,0.0,0.0,0.0,0.0,0.0,0.0,0.0,0.0,0.0,0.0,0.0,0.0,-0.0101,-0.0354,-0.0505,-0.0758,-0.1162,-0.1314,-0.1415,-0.1566,-0.1617,-0.1617,-0.1617,-0.1617,-0.1617,-0.1617,-0.1617,-0.1617,-0.1617,-0.1617,-0.1617,-0.1617,-0.1617,-0.1617,-0.1617,-0.1617,-0.2172,-0.318,-0.318,-0.3783,0.2382,0.3074,0.3825,0.3872,0.4741,0.5555,0.5623,0.5725,0.5823,0.5895,0.542,0.5066,0.5381,0.4934,0.4731,0.5369,0.4391,0.3902,0.4967,0.444,0.4279,0.5083,0.5186,0.5484,0.6337,0.6387,0.6387,0.6387,0.6387,0.6034,0.5236,0.4935,0.3927,0.2016,0.2771,0.2167,0.0,0.1059,0.1059,0.0,0.0,0.0,0.0,0.0,0.0,0.0,0.0,0.0,0.0,0.0,0.0,0.0,0.0,0.0,0.0,0.0,0.0,0.0,0.0,0.0,0.0,0.0,0.0,0.0,0.0,0.0,0.0,0.0,0.0,0.0,0.0,0.0,0.0,0.0,0.0,0.0,0.0,0.0,0.0,0.0,0.0,0.0,0.0,0.0,-0.0051,-0.0253,-0.0354,-0.0556,-0.096,-0.1111,-0.1263,-0.1465,-0.1566,-0.1617,-0.1617,-0.1617,-0.1617,-0.1617,-0.1617,-0.1617,-0.1617,-0.1617,-0.1617,-0.1617,-0.1617,-0.1617,-0.1617,-0.1617,-0.207,-0.3027,-0.313,-0.3682,0.2772,0.33,0.3863,0.4117,0.4807,0.5484,0.5725,0.5793,0.5881,0.6207,0.6021,0.586,0.6086,0.5248,0.4561,0.4731,0.4653,0.4967,0.6142,0.6229,0.6184,0.6284,0.6284,0.6337,0.6387,0.6387,0.6387,0.6387,0.6387,0.6387,0.6284,0.5334,0.428,0.3123,0.3173,0.2167,0.0,0.1059,0.1059,0.0,0.0,0.0,0.0,0.0,0.0,0.0,0.0,0.0,0.0,0.0,0.0,0.0,0.0,0.0,0.0,0.0,0.0,0.0,0.0,0.0,0.0,0.0,0.0,0.0,0.0,0.0,0.0,0.0,0.0,0.0,0.0,0.0,0.0,0.0,0.0,0.0,0.0,0.0,0.0,0.0,0.0,0.0,0.0,0.0,0.0,-0.0051,-0.0253,-0.0404,-0.0455,-0.0909,-0.1212,-0.1212,-0.1465,-0.1617,-0.1617,-0.1617,-0.1617,-0.1617,-0.1617,-0.1617,-0.1617,-0.1617,-0.1617,-0.1617,-0.1617,-0.1617,-0.1617,-0.1617,-0.1919,-0.2472,-0.2977,-0.3531,0.2037,0.2845,0.364,0.3995,0.488,0.5688,0.5895,0.6017,0.6211,0.6471,0.6451,0.6413,0.6434,0.5803,0.5347,0.5701,0.5714,0.5863,0.6313,0.6387,0.6387,0.6387,0.6387,0.6387,0.6387,0.6387,0.6387,0.6387,0.6387,0.6087,0.5436,0.5035,0.3979,0.2267,0.2217,0.1513,0.0,0.0404,0.0404,0.0,0.0,0.0,0.0,0.0,0.0,0.0,0.0,0.0,0.0,0.0,0.0,0.0,0.0,0.0,0.0,0.0,0.0,0.0,0.0,0.0,0.0,0.0,0.0,0.0,0.0,0.0,0.0,0.0,0.0,0.0,0.0,0.0,0.0,0.0,0.0,0.0,0.0,0.0,0.0,0.0,0.0,0.0,0.0,0.0,0.0,0.0,-0.0101,-0.0202,-0.0354,-0.0707,-0.101,-0.1162,-0.1465,-0.1617,-0.1617,-0.1617,-0.1617,-0.1617,-0.1617,-0.1617,-0.1617,-0.1617,-0.1617,-0.1617,-0.1617,-0.1617,-0.1617,-0.1617,-0.1869,-0.2422,-0.2623,-0.2977,0.1691,0.2712,0.3719,0.406,0.4924,0.581,0.6101,0.6251,0.6463,0.677,0.6841,0.6655,0.6103,0.5978,0.5882,0.58,0.6032,0.6252,0.6366,0.6365,0.6387,0.6387,0.6387,0.6387,0.6387,0.6387,0.6387,0.6387,0.6387,0.6087,0.5334,0.4682,0.3626,0.2167,0.1462,0.0757,0.0,0.0,0.0,0.0,0.0,0.0,0.0,0.0,0.0,0.0,0.0,0.0,0.0,0.0,0.0,0.0,0.0,0.0,0.0,0.0,0.0,0.0,0.0,0.0,0.0,0.0,0.0,0.0,0.0,0.0,0.0,0.0,0.0,0.0,0.0,0.0,0.0,0.0,0.0,0.0,0.0,0.0,0.0,0.0,0.0,0.0,0.0,0.0,0.0,0.0,0.0,-0.0051,-0.0253,-0.0505,-0.0808,-0.1162,-0.1465,-0.1617,-0.1617,-0.1617,-0.1617,-0.1617,-0.1617,-0.1617,-0.1617,-0.1617,-0.1617,-0.1617,-0.1617,-0.1617,-0.1617,-0.1617,-0.1768,-0.217,-0.2321,-0.2573,0.2005,0.3058,0.4235,0.4365,0.4997,0.5749,0.6378,0.6511,0.66,0.7004,0.7095,0.6605,0.5006,0.5628,0.5981,0.4732,0.5393,0.6127,0.63,0.6366,0.6387,0.6387,0.6387,0.6387,0.6387,0.6387,0.6387,0.6387,0.6387,0.6387,0.6387,0.4377,0.3224,0.3173,0.111,0.0,0.0,0.0,0.0,0.0,0.0,0.0,0.0,0.0,0.0,0.0,0.0,0.0,0.0,0.0,0.0,0.0,0.0,0.0,0.0,0.0,0.0,0.0,0.0,0.0,0.0,0.0,0.0,0.0,0.0,0.0,0.0,0.0,0.0,0.0,0.0,0.0,0.0,0.0,0.0,0.0,0.0,0.0,0.0,0.0,0.0,0.0,0.0,0.0,0.0,0.0,0.0,0.0,0.0,-0.0253,-0.0606,-0.1162,-0.1415,-0.1617,-0.1617,-0.1617,-0.1617,-0.1617,-0.1617,-0.1617,-0.1617,-0.1617,-0.1617,-0.1617,-0.1617,-0.1617,-0.1617,-0.1617,-0.1617,-0.1617,-0.217,-0.2371,0.2257,0.2668,0.3179,0.4556,0.5036,0.5399,0.6304,0.6511,0.66,0.7004,0.6966,0.6748,0.6257,0.6169,0.6078,0.5794,0.5958,0.6127,0.63,0.6366,0.6387,0.6387,0.6387,0.6387,0.6387,0.6387,0.6387,0.6387,0.6387,0.6087,0.5336,0.4682,0.3626,0.2116,0.1462,0.0757,0.0,0.0,0.0,0.0,0.0,0.0,0.0,0.0,0.0,0.0,0.0,0.0,0.0,0.0,0.0,0.0,0.0,0.0,0.0,0.0,0.0,0.0,0.0,0.0,0.0,0.0,0.0,0.0,0.0,0.0,0.0,0.0,0.0,0.0,0.0,0.0,0.0,0.0,0.0,0.0,0.0,0.0,0.0,0.0,0.0,0.0,0.0,0.0,0.0,0.0,0.0,-0.0051,-0.0253,-0.0354,-0.0606,-0.1162,-0.1263,-0.1415,-0.1566,-0.1617,-0.1617,-0.1617,-0.1617,-0.1617,-0.1617,-0.1617,-0.1617,-0.1617,-0.1617,-0.1617,-0.1617,-0.1617,-0.1617,-0.1617,-0.1768,-0.1818,0.2553,0.2743,0.3021,0.4561,0.493,0.5202,0.6318,0.6654,0.6814,0.7041,0.701,0.6881,0.6795,0.6482,0.6239,0.6232,0.6121,0.6056,0.6179,0.6295,0.6385,0.6381,0.6387,0.6387,0.6387,0.6387,0.6387,0.6387,0.6387,0.6137,0.5486,0.4632,0.3575,0.2267,0.1412,0.0656,0.0,0.0,0.0,0.0,0.0,0.0,0.0,0.0,0.0,0.0,0.0,0.0,0.0,0.0,0.0,0.0,0.0,0.0,0.0,0.0,0.0,0.0,0.0,0.0,0.0,0.0,0.0,0.0,0.0,0.0,0.0,0.0,0.0,0.0,0.0,0.0,0.0,0.0,0.0,0.0,0.0,0.0,0.0,0.0,0.0,0.0,0.0,0.0,0.0,0.0,0.0,-0.0051,-0.0202,-0.0354,-0.0556,-0.101,-0.1111,-0.1314,-0.1566,-0.1617,-0.1617,-0.1617,-0.1617,-0.1617,-0.1617,-0.1617,-0.1617,-0.1617,-0.1617,-0.1617,-0.1617,-0.1617,-0.1617,-0.1617,-0.1617,-0.1617,0.2705,0.2937,0.3246,0.4316,0.4701,0.5136,0.6314,0.683,0.7082,0.7092,0.7095,0.7054,0.6836,0.6567,0.6343,0.6127,0.6006,0.5942,0.6053,0.6184,0.6306,0.6407,0.6381,0.6387,0.6387,0.6387,0.6387,0.6387,0.6287,0.6234,0.6134,0.4176,0.3022,0.2922,0.1009,0.0,0.0,0.0,0.0,0.0,0.0,0.0,0.0,0.0,0.0,0.0,0.0,0.0,0.0,0.0,0.0,0.0,0.0,0.0,0.0,0.0,0.0,0.0,0.0,0.0,0.0,0.0,0.0,0.0,0.0,0.0,0.0,0.0,0.0,0.0,0.0,0.0,0.0,0.0,0.0,0.0,0.0,0.0,0.0,0.0,0.0,0.0,0.0,0.0,0.0,0.0,0.0,0.0,0.0,-0.0202,-0.0455,-0.0758,-0.101,-0.1263,-0.1566,-0.1566,-0.1617,-0.1617,-0.1617,-0.1617,-0.1617,-0.1617,-0.1617,-0.1617,-0.1617,-0.1617,-0.1617,-0.1617,-0.1617,-0.1617,-0.1617,-0.1617,0.1878,0.177,0.1814,0.3232,0.4358,0.5231,0.565,0.6372,0.6964,0.7071,0.7095,0.7054,0.6836,0.6567,0.6343,0.6127,0.6006,0.5912,0.5937,0.613,0.6325,0.6301,0.6382,0.6387,0.6387,0.6387,0.6387,0.6387,0.5636,0.4782,0.3925,0.267,0.1563,0.0707,0.0252,0.0,0.0,0.0,0.0,0.0,0.0,0.0,0.0,0.0,0.0,0.0,0.0,0.0,0.0,0.0,0.0,0.0,0.0,0.0,0.0,0.0,0.0,0.0,0.0,0.0,0.0,0.0,0.0,0.0,0.0,0.0,0.0,0.0,0.0,0.0,0.0,0.0,0.0,0.0,0.0,0.0,0.0,0.0,0.0,0.0,0.0,0.0,0.0,0.0,0.0,0.0,0.0,0.0,0.0,-0.0051,-0.0202,-0.0455,-0.0707,-0.101,-0.1263,-0.1465,-0.1617,-0.1617,-0.1617,-0.1617,-0.1617,-0.1617,-0.1617,-0.1617,-0.1617,-0.1617,-0.1617,-0.1617,-0.1617,-0.1617,-0.1617,-0.1617,0.1635,0.14,0.1322,0.2605,0.3758,0.4756,0.5262,0.5877,0.647,0.6894,0.7048,0.7051,0.6969,0.6745,0.6523,0.6302,0.609,0.5975,0.5896,0.6013,0.6116,0.6173,0.6233,0.6293,0.635,0.6358,0.638,0.6381,0.5384,0.4533,0.3979,0.2469,0.1361,0.0807,0.0252,0.0,0.0,0.0,0.0,0.0,0.0,0.0,0.0,0.0,0.0,0.0,0.0,0.0,0.0,0.0,0.0,0.0,0.0,0.0,0.0,0.0,0.0,0.0,0.0,0.0,0.0,0.0,0.0,0.0,0.0,0.0,0.0,0.0,0.0,0.0,0.0,0.0,0.0,0.0,0.0,0.0,0.0,0.0,0.0,0.0,0.0,0.0,0.0,0.0,0.0,0.0,0.0,0.0,0.0,0.0,-0.0101,-0.0354,-0.0505,-0.0758,-0.1162,-0.1314,-0.1465,-0.1617,-0.1617,-0.1617,-0.1617,-0.1617,-0.1617,-0.1617,-0.1617,-0.1617,-0.1617,-0.1617,-0.1617,-0.1617,-0.1617,-0.1617,0.1475,0.1314,0.1208,0.2047,0.3013,0.3911,0.4615,0.5087,0.5613,0.6282,0.6803,0.7095,0.7095,0.6922,0.6748,0.652,0.6257,0.6073,0.5949,0.5936,0.5939,0.6043,0.6072,0.6077,0.6031,0.6042,0.5989,0.5847,0.4858,0.4266,0.423,0.2368,0.1311,0.1311,0.0454,0.0,0.0,0.0,0.0,0.0,0.0,0.0,0.0,0.0,0.0,0.0,0.0,0.0,0.0,0.0,0.0,0.0,0.0,0.0,0.0,0.0,0.0,0.0,0.0,0.0,0.0,0.0,0.0,0.0,0.0,0.0,0.0,0.0,0.0,0.0,0.0,0.0,0.0,0.0,0.0,0.0,0.0,0.0,0.0,0.0,0.0,0.0,0.0,0.0,0.0,0.0,0.0,0.0,0.0,0.0,-0.0101,-0.0303,-0.0354,-0.0556,-0.101,-0.1162,-0.1313,-0.1516,-0.1566,-0.1617,-0.1617,-0.1617,-0.1617,-0.1617,-0.1617,-0.1617,-0.1617,-0.1617,-0.1617,-0.1617,-0.1617,-0.1617,0.0949,0.1004,0.1128,0.1342,0.2053,0.2771,0.2986,0.3664,0.4276,0.4532,0.5909,0.7095,0.7095,0.6922,0.6795,0.6748,0.6393,0.6088,0.6061,0.5975,0.5909,0.5926,0.6021,0.5805,0.5009,0.4914,0.457,0.3679,0.2654,0.2031,0.2014,0.0858,0.0202,0.0202,0.0051,0.0,0.0,0.0,0.0,0.0,0.0,0.0,0.0,0.0,0.0,0.0,0.0,0.0,0.0,0.0,0.0,0.0,0.0,0.0,0.0,0.0,0.0,0.0,0.0,0.0,0.0,0.0,0.0,0.0,0.0,0.0,0.0,0.0,0.0,0.0,0.0,0.0,0.0,0.0,0.0,0.0,0.0,0.0,0.0,0.0,0.0,0.0,0.0,0.0,0.0,0.0,0.0,0.0,0.0,0.0,0.0,-0.0051,-0.0253,-0.0404,-0.0505,-0.0909,-0.1212,-0.1263,-0.1465,-0.1617,-0.1617,-0.1617,-0.1617,-0.1617,-0.1617,-0.1617,-0.1617,-0.1617,-0.1617,-0.1617,-0.1617,-0.1617,0.086,0.0936,0.1078,0.1185,0.1489,0.1896,0.2455,0.2933,0.3413,0.3983,0.4811,0.5494,0.5469,0.5849,0.5944,0.5275,0.5453,0.5408,0.4603,0.4416,0.4351,0.4219,0.4253,0.4156,0.3781,0.3738,0.3599,0.3224,0.2204,0.1581,0.1611,0.0606,0.0,0.0,0.0,0.0,0.0,0.0,0.0,0.0,0.0,0.0,0.0,0.0,0.0,0.0,0.0,0.0,0.0,0.0,0.0,0.0,0.0,0.0,0.0,0.0,0.0,0.0,0.0,0.0,0.0,0.0,0.0,0.0,0.0,0.0,0.0,0.0,0.0,0.0,0.0,0.0,0.0,0.0,0.0,0.0,0.0,0.0,0.0,0.0,0.0,0.0,0.0,0.0,0.0,0.0,0.0,0.0,0.0,0.0,0.0,0.0,-0.0101,-0.0253,-0.0404,-0.0606,-0.0859,-0.1162,-0.1314,-0.1465,-0.1617,-0.1617,-0.1617,-0.1617,-0.1617,-0.1617,-0.1617,-0.1617,-0.1617,-0.1617,-0.1617,-0.1617,0.0911,0.0934,0.1003,0.1105,0.1189,0.1369,0.2013,0.2256,0.2533,0.3175,0.3399,0.347,0.3482,0.4485,0.5019,0.4156,0.4559,0.4648,0.3532,0.3264,0.313,0.2999,0.2911,0.2838,0.2606,0.2609,0.2555,0.2406,0.1642,0.1172,0.12,0.0451,0.0,0.0,0.0,0.0,0.0,0.0,0.0,0.0,0.0,0.0,0.0,0.0,0.0,0.0,0.0,0.0,0.0,0.0,0.0,0.0,0.0,0.0,0.0,0.0,0.0,0.0,0.0,0.0,0.0,0.0,0.0,0.0,0.0,0.0,0.0,0.0,0.0,0.0,0.0,0.0,0.0,0.0,0.0,0.0,0.0,0.0,0.0,0.0,0.0,0.0,0.0,0.0,0.0,0.0,0.0,0.0,0.0,0.0,0.0,0.0,0.0,-0.0101,-0.0303,-0.0354,-0.0556,-0.096,-0.1111,-0.1313,-0.1465,-0.1566,-0.1617,-0.1617,-0.1617,-0.1617,-0.1617,-0.1617,-0.1617,-0.1617,-0.1617,-0.1617,0.091,0.0901,0.0932,0.0995,0.1093,0.1212,0.1251,0.1314,0.1378,0.1416,0.1444,0.1468,0.147,0.2995,0.4276,0.4275,0.4113,0.3937,0.3892,0.3489,0.3173,0.3173,0.2999,0.251,0.1572,0.1482,0.1133,0.0232,0.0093,0.0094,0.0098,0.0049,0.0,0.0,0.0,0.0,0.0,0.0,0.0,0.0,0.0,0.0,0.0,0.0,0.0,0.0,0.0,0.0,0.0,0.0,0.0,0.0,0.0,0.0,0.0,0.0,0.0,0.0,0.0,0.0,0.0,0.0,0.0,0.0,0.0,0.0,0.0,0.0,0.0,0.0,0.0,0.0,0.0,0.0,0.0,0.0,0.0,0.0,0.0,0.0,0.0,0.0,0.0,0.0,0.0,0.0,0.0,0.0,0.0,0.0,0.0,0.0,0.0,0.0,0.0,-0.0253,-0.0404,-0.0455,-0.0909,-0.1212,-0.1212,-0.1465,-0.1617,-0.1617,-0.1617,-0.1617,-0.1617,-0.1617,-0.1617,-0.1617,-0.1617,-0.1617,0.086,0.0868,0.0904,0.0982,0.108,0.114,0.1198,0.122,0.1234,0.1292,0.1305,0.1319,0.1299,0.2415,0.312,0.2535,0.285,0.2954,0.219,0.1971,0.1747,0.1433,0.1344,0.1076,0.0539,0.0494,0.0362,0.0046,0.0,0.0,0.0,0.0,0.0,0.0,0.0,0.0,0.0,0.0,0.0,0.0,0.0,0.0,0.0,0.0,0.0,0.0,0.0,0.0,0.0,0.0,0.0,0.0,0.0,0.0,0.0,0.0,0.0,0.0,0.0,0.0,0.0,0.0,0.0,0.0,0.0,0.0,0.0,0.0,0.0,0.0,0.0,0.0,0.0,0.0,0.0,0.0,0.0,0.0,0.0,0.0,0.0,0.0,0.0,0.0,0.0,0.0,0.0,0.0,0.0,0.0,0.0,0.0,0.0,0.0,0.0,-0.0101,-0.0202,-0.0404,-0.0556,-0.0758,-0.096,-0.1212,-0.1364,-0.1364,-0.1516,-0.1617,-0.1617,-0.1617,-0.1617,-0.1617,-0.1617,-0.1617,0.086,0.0844,0.0915,0.0955,0.1033,0.1082,0.1163,0.1189,0.1205,0.1274,0.1289,0.1303,0.1284,0.183,0.2074,0.1454,0.1901,0.205,0.1329,0.1161,0.0987,0.0673,0.0493,0.0314,0.0135,0.0045,0.0,0.0,0.0,0.0,0.0,0.0,0.0,0.0,0.0,0.0,0.0,0.0,0.0,0.0,0.0,0.0,0.0,0.0,0.0,0.0,0.0,0.0,0.0,0.0,0.0,0.0,0.0,0.0,0.0,0.0,0.0,0.0,0.0,0.0,0.0,0.0,0.0,0.0,0.0,0.0,0.0,0.0,0.0,0.0,0.0,0.0,0.0,0.0,0.0,0.0,0.0,0.0,0.0,0.0,0.0,0.0,0.0,0.0,0.0,0.0,0.0,0.0,0.0,0.0,0.0,0.0,0.0,0.0,0.0,0.0,-0.0101,-0.0253,-0.0455,-0.0606,-0.0808,-0.1162,-0.1314,-0.1314,-0.1516,-0.1617,-0.1617,-0.1617,-0.1617,-0.1617,-0.1617,-0.1617,0.0,0.0,0.0,0.0905,0.0956,0.1014,0.1071,0.1142,0.1208,0.1204,0.1234,0.1294,0.1296,0.1296,0.1317,0.1294,0.1369,0.1388,0.139,0.1238,0.1121,0.1121,0.0673,0.0403,0.0403,0.018,0.0,0.0,0.0,0.0,0.0,0.0,0.0,0.0,0.0,0.0,0.0,0.0,0.0,0.0,0.0,0.0,0.0,0.0,0.0,0.0,0.0,0.0,0.0,0.0,0.0,0.0,0.0,0.0,0.0,0.0,0.0,0.0,0.0,0.0,0.0,0.0,0.0,0.0,0.0,0.0,0.0,0.0,0.0,0.0,0.0,0.0,0.0,0.0,0.0,0.0,0.0,0.0,0.0,0.0,0.0,0.0,0.0,0.0,0.0,0.0,0.0,0.0,0.0,0.0,0.0,0.0,0.0,0.0,0.0,0.0,0.0,0.0,-0.0505,-0.0808,-0.0808,-0.1313,-0.1566,-0.1566,-0.1617,-0.1617,-0.1617,-0.1617,-0.1617,-0.1617,-0.1617,-0.1617,0.0876,0.0,0.0,0.0,0.0,0.0,0.1069,0.1079,0.1097,0.1192,0.1201,0.1243,0.1288,0.1296,0.1303,0.1319,0.1307,0.1341,0.1384,0.1354,0.1278,0.1119,0.0807,0.0538,0.0403,0.018,0.0,0.0,0.0,0.0,0.0,0.0,0.0,0.0,0.0,0.0,0.0,0.0,0.0,0.0,0.0,0.0,0.0,0.0,0.0,0.0,0.0,0.0,0.0,0.0,0.0,0.0,0.0,0.0,0.0,0.0,0.0,0.0,0.0,0.0,0.0,0.0,0.0,0.0,0.0,0.0,0.0,0.0,0.0,0.0,0.0,0.0,0.0,0.0,0.0,0.0,0.0,0.0,0.0,0.0,0.0,0.0,0.0,0.0,0.0,0.0,0.0,0.0,0.0,0.0,0.0,0.0,0.0,0.0,0.0,0.0,0.0,0.0,-0.0303,-0.0505,-0.0505,-0.101,-0.1314,-0.1314,-0.1516,-0.1617,-0.1617,-0.1617,-0.1617,-0.1617,-0.1617,-0.1617,0.0,0.0,0.0,0.0913,0.0,0.0,0.1037,0.1013,0.1027,0.1119,0.117,0.1214,0.125,0.1268,0.1277,0.1277,0.1264,0.1305,0.1364,0.1382,0.1357,0.1253,0.0897,0.0673,0.0538,0.0224,0.0,0.0,0.0,0.0,0.0,0.0,0.0,0.0,0.0,0.0,0.0,0.0,0.0,0.0,0.0,0.0,0.0,0.0,0.0,0.0,0.0,0.0,0.0,0.0,0.0,0.0,0.0,0.0,0.0,0.0,0.0,0.0,0.0,0.0,0.0,0.0,0.0,0.0,0.0,0.0,0.0,0.0,0.0,0.0,0.0,0.0,0.0,0.0,0.0,0.0,0.0,0.0,0.0,0.0,0.0,0.0,0.0,0.0,0.0,0.0,0.0,0.0,0.0,0.0,0.0,0.0,0.0,0.0,0.0,0.0,0.0,0.0,-0.0253,-0.0404,-0.0404,-0.0808,-0.101,-0.101,-0.1162,-0.1263,-0.1263,-0.1516,-0.1617,-0.1617,-0.1617,-0.1617,0.1011,0.0915,0.0,0.0907,0.0899,0.0,0.0975,0.0996,0.1016,0.107,0.1138,0.1194,0.1201,0.1188,0.1207,0.1207,0.1232,0.1275,0.1297,0.1369,0.1397,0.1387,0.1031,0.0762,0.0762,0.0359,0.009,0.0045,0.0,0.0,0.0,0.0,0.0,0.0,0.0,0.0,0.0,0.0,0.0,0.0,0.0,0.0,0.0,0.0,0.0,0.0,0.0,0.0,0.0,0.0,0.0,0.0,0.0,0.0,0.0,0.0,0.0,0.0,0.0,0.0,0.0,0.0,0.0,0.0,0.0,0.0,0.0,0.0,0.0,0.0,0.0,0.0,0.0,0.0,0.0,0.0,0.0,0.0,0.0,0.0,0.0,0.0,0.0,0.0,0.0,0.0,0.0,0.0,0.0,0.0,0.0,0.0,0.0,0.0,0.0,0.0,0.0,0.0,-0.0253,-0.0404,-0.0404,-0.0657,-0.0808,-0.0808,-0.0808,-0.0808,-0.0808,-0.1263,-0.1516,-0.1516,-0.1566,-0.1566,0.1265,0.1117,0.0967,0.0918,0.0945,0.0,0.0938,0.0967,0.1011,0.1077,0.1123,0.1143,0.1194,0.1208,0.1212,0.1212,0.12,0.1251,0.1294,0.1311,0.1333,0.1384,0.1166,0.1031,0.1031,0.0762,0.0493,0.0314,0.0135,0.0,0.0,0.0,0.0,0.0,0.0,0.0,0.0,0.0,0.0,0.0,0.0,0.0,0.0,0.0,0.0,0.0,0.0,0.0,0.0,0.0,0.0,0.0,0.0,0.0,0.0,0.0,0.0,0.0,0.0,0.0,0.0,0.0,0.0,0.0,0.0,0.0,0.0,0.0,0.0,0.0,0.0,0.0,0.0,0.0,0.0,0.0,0.0,0.0,0.0,0.0,0.0,0.0,0.0,0.0,0.0,0.0,0.0,0.0,0.0,0.0,0.0,0.0,0.0,0.0,0.0,0.0,0.0,0.0,-0.0253,-0.0404,-0.0404,-0.0657,-0.0808,-0.0808,-0.0808,-0.0808,-0.0808,-0.0909,-0.096,-0.096,-0.1162,-0.1263,0.1333,0.1143,0.0985,0.0969,0.0988,0.0,0.0,0.098,0.1013,0.1089,0.1086,0.1123,0.1136,0.1144,0.1144,0.1144,0.1169,0.1211,0.1232,0.1265,0.13,0.1343,0.1174,0.1048,0.1059,0.0839,0.0621,0.0403,0.0269,0.0135,0.0,0.0,0.0,0.0,0.0,0.0,0.0,0.0,0.0,0.0,0.0,0.0,0.0,0.0,0.0,0.0,0.0,0.0,0.0,0.0,0.0,0.0,0.0,0.0,0.0,0.0,0.0,0.0,0.0,0.0,0.0,0.0,0.0,0.0,0.0,0.0,0.0,0.0,0.0,0.0,0.0,0.0,0.0,0.0,0.0,0.0,0.0,0.0,0.0,0.0,0.0,0.0,0.0,0.0,0.0,0.0,0.0,0.0,0.0,0.0,0.0,0.0,0.0,0.0,0.0,0.0,0.0,0.0,-0.0101,-0.0202,-0.0202,-0.0354,-0.0404,-0.0404,-0.0404,-0.0404,-0.0404,-0.0404,-0.0556,-0.0808,-0.1061,-0.1212,0.0,0.1214,0.102,0.1008,0.1014,0.1023,0.0,0.0,0.0,0.1062,0.1089,0.1083,0.1108,0.1112,0.1112,0.1112,0.1138,0.1166,0.1191,0.1236,0.1284,0.1284,0.1168,0.1054,0.1073,0.086,0.065,0.0487,0.0355,0.0222,0.0,0.0,0.0,0.0,0.0,0.0,0.0,0.0,0.0,0.0,0.0,0.0,0.0,0.0,0.0,0.0,0.0,0.0,0.0,0.0,0.0,0.0,0.0,0.0,0.0,0.0,0.0,0.0,0.0,0.0,0.0,0.0,0.0,0.0,0.0,0.0,0.0,0.0,0.0,0.0,0.0,0.0,0.0,0.0,0.0,0.0,0.0,0.0,0.0,0.0,0.0,0.0,0.0,0.0,0.0,0.0,0.0,0.0,0.0,0.0,0.0,0.0,0.0,0.0,0.0,0.0,0.0,0.0,0.0,0.0,0.0,0.0,0.0,0.0,0.0,0.0,0.0,0.0,-0.0202,-0.0657,-0.0909,-0.1061,0.0,0.0,0.0,0.1113,0.1141,0.1154,0.1017,0.0,0.1064,0.102,0.0,0.1111,0.1114,0.0,0.0,0.1115,0.1106,0.1127,0.1095,0.1102,0.1173,0.1297,0.1292,0.1269,0.1272,0.0903,0.0704,0.0678,0.0297,0.0043,0.0,0.0,0.0,0.0,0.0,0.0,0.0,0.0,0.0,0.0,0.0,0.0,0.0,0.0,0.0,0.0,0.0,0.0,0.0,0.0,0.0,0.0,0.0,0.0,0.0,0.0,0.0,0.0,0.0,0.0,0.0,0.0,0.0,0.0,0.0,0.0,0.0,0.0,0.0,0.0,0.0,0.0,0.0,0.0,0.0,0.0,0.0,0.0,0.0,0.0,0.0,0.0,0.0,0.0,0.0,0.0,0.0,0.0,0.0,0.0,0.0,0.0,0.0,0.0,0.0,0.0,0.0,0.0,0.0,0.0,0.0,0.0,0.0,0.0,0.0,0.0,0.0,0.0,-0.0051,-0.0101,-0.0354,-0.0606,0.0,0.0,0.1911,0.1251,0.1575,0.1889,0.1218,0.1068,0.1093,0.1052,0.0,0.0,0.0,0.0,0.0,0.0,0.1087,0.1089,0.1039,0.0983,0.0948,0.1046,0.1125,0.1211,0.1246,0.1001,0.0817,0.066,0.0372,0.0168,0.0,0.0,0.0,0.0,0.0,0.0,0.0,0.0,0.0,0.0,0.0,0.0,0.0,0.0,0.0,0.0,0.0,0.0,0.0,0.0,0.0,0.0,0.0,0.0,0.0,0.0,0.0,0.0,0.0,0.0,0.0,0.0,0.0,0.0,0.0,0.0,0.0,0.0,0.0,0.0,0.0,0.0,0.0,0.0,0.0,0.0,0.0,0.0,0.0,0.0,0.0,0.0,0.0,0.0,0.0,0.0,-0.0152,-0.0253,-0.0253,-0.0357,-0.046,-0.0455,-0.0306,-0.0256,-0.0253,-0.0101,0.0,0.0,0.0,0.0,0.0,0.0,0.0,0.0,0.0,0.0,0.0,0.0,0.0,0.0,-0.0253,-0.0455,0.1816,0.2045,0.2136,0.1321,0.1697,0.2065,0.1287,0.1116,0.1092,0.1106,0.1097,0.0,0.0,0.0,0.1109,0.1109,0.0,0.1302,0.1048,0.1288,0.1317,0.0914,0.0914,0.0996,0.1034,0.0881,0.0708,0.0518,0.0359,0.0204,0.0,0.0,0.0,0.0,0.0,0.0,0.0,0.0,0.0,0.0,0.0,0.0,0.0,0.0,0.0,0.0,0.0,0.0,0.0,0.0,0.0,0.0,0.0,0.0,0.0,0.0,0.0,0.0,0.0,0.0,0.0,0.0,0.0,0.0,0.0,0.0,0.0,0.0,0.0,0.0,0.0,0.0,0.0,0.0,0.0,0.0,0.0,0.0,0.0,0.0,0.0,0.0,0.0,0.0,0.0,-0.0101,-0.0253,-0.0404,-0.0505,-0.0664,-0.082,-0.0809,-0.0614,-0.0461,-0.0404,-0.0202,-0.0101,0.0,0.0,0.0,0.0,0.0,0.0,0.0,0.0,0.0,0.0,0.0,0.0,0.0,-0.0203,-0.0305,0.2116,0.1607,0.1317,0.1217,0.1238,0.1221,0.1123,0.1098,0.1112,0.1117,0.0,0.1111,0.1116,0.0,0.0,0.0,0.1646,0.0,0.0,0.2259,0.2543,0.0972,0.0679,0.0631,0.0632,0.0422,0.0324,0.0303,0.0114,0.0,0.0,0.0,0.0,0.0,0.0,0.0,0.0,0.0,0.0,0.0,0.0,0.0,0.0,0.0,0.0,0.0,0.0,0.0,0.0,0.0,0.0,0.0,0.0,0.0,0.0,0.0,0.0,0.0,0.0,0.0,0.0,0.0,0.0,0.0,0.0,0.0,0.0,0.0,0.0,0.0,0.0,0.0,0.0,0.0,0.0,0.0,0.0,0.0,0.0,0.0,0.0,0.0,0.0,0.0,-0.0101,-0.0354,-0.0404,-0.0505,-0.0758,-0.0809,-0.0809,-0.0808,-0.0809,-0.0657,-0.0404,-0.0404,-0.0253,0.0,0.0,0.0,0.0,0.0,0.0,0.0,0.0,0.0,0.0,0.0,0.0,0.0,0.0,-0.0156,0.347,0.3756,0.3647,0.2371,0.2578,0.2701,0.1393,0.1114,0.1112,0.1116,0.0,0.0,0.0,0.0,0.0,0.0,0.0,0.0,0.0,0.264,0.261,0.1926,0.1557,0.1112,0.0581,0.0382,0.0284,0.0295,0.0111,0.0,0.0,0.0,0.0,0.0,0.0,0.0,0.0,0.0,0.0,0.0,0.0,0.0,0.0,0.0,0.0,0.0,0.0,0.0,0.0,0.0,0.0,0.0,0.0,0.0,0.0,0.0,0.0,0.0,0.0,0.0,0.0,0.0,0.0,0.0,0.0,0.0,0.0,0.0,0.0,0.0,0.0,0.0,0.0,0.0,0.0,0.0,0.0,0.0,0.0,0.0,0.0,-0.0051,-0.0253,-0.0253,-0.0303,-0.0404,-0.0707,-0.096,-0.1061,-0.1212,-0.1371,-0.1388,-0.1221,-0.1066,-0.0977,-0.0823,-0.0669,-0.0617,-0.0364,-0.0262,-0.0262,-0.0105,0.0,0.0,0.0,0.0,0.0,0.0,0.0,0.0,0.0,-0.0053,0.4324,0.4613,0.4542,0.3264,0.3428,0.3499,0.1904,0.1552,0.1551,0.1577,0.1521,0.0,0.0,0.0,0.0,0.0,0.0,0.0,0.0,0.3459,0.31,0.2931,0.2326,0.1638,0.0798,0.064,0.0484,0.0215,0.0072,0.0,0.0,0.0,0.0,0.0,0.0,0.0,0.0,0.0,0.0,0.0,0.0,0.0,0.0,0.0,0.0,0.0,0.0,0.0,0.0,0.0,0.0,0.0,0.0,0.0,0.0,0.0,0.0,0.0,0.0,0.0,0.0,0.0,0.0,0.0,0.0,0.0,0.0,0.0,0.0,0.0,0.0,0.0,0.0,0.0,0.0,0.0,0.0,0.0,0.0,0.0,-0.0101,-0.0202,-0.0354,-0.0559,-0.0713,-0.0708,-0.1016,-0.1275,-0.1378,-0.1539,-0.1655,-0.1675,-0.1504,-0.1345,-0.1309,-0.1049,-0.0891,-0.0891,-0.0689,-0.0587,-0.0587,-0.032,-0.016,-0.016,-0.0053,-0.0053,-0.016,-0.016,-0.016,-0.016,-0.0163,-0.0324]},{"header":{"parameterUnit":"m.s-1","parameterCategory":1,"la1":30.6,"la2":29.2853,"lo1":-89.7004,"lo2":-87.6739,"dy":0.0162,"dx":0.0183,"nx":112,"ny":82,"refTime":"2024-06-08T00:00:00:Z","depth":0,"parameterNumber":3,"parameterNumberName":"V-component_of_WINDS"},"data":[0.0,0.0,0.0,0.0,0.0,0.0,0.0,0.0,0.0,0.0,0.0,0.0,0.0,0.0,0.0,0.0,0.0,0.0,0.0,0.0,0.0,0.0,0.0,0.0,0.0,0.0,0.0,0.0,0.0,0.0,0.0,0.0,0.0,0.0,0.0,0.0,0.0,0.0,0.0,0.0,0.0,0.0,0.0,0.0,0.0,0.0,0.0,0.0,0.0,0.0,0.0,0.0,0.0,0.0,0.0,0.0,0.0,0.0,0.0,0.0,0.0,0.0,0.0,0.0,0.0,0.0,0.0,0.0,0.0,0.0,0.0,0.0,0.0,0.0,0.0,0.0,0.0,0.0,0.0,0.0,0.0,0.0,0.0,0.0,0.0,0.0,0.0,0.0,0.0,0.0,2.7718,2.9592,3.0509,3.0936,3.0795,3.073,3.0002,2.8392,0.0,0.0,0.0,0.0,0.0,0.0,0.0,0.0,0.0,0.0,0.0,0.0,0.0,0.0,0.0,0.0,0.0,0.0,0.0,0.0,0.0,0.0,0.0,0.0,0.0,0.0,0.0,0.0,0.0,0.0,0.0,0.0,0.0,0.0,0.0,0.0,0.0,0.0,0.0,0.0,0.0,0.0,0.0,0.0,0.0,0.0,0.0,0.0,0.0,0.0,0.0,0.0,0.0,0.0,0.0,0.0,0.0,0.0,0.0,0.0,0.0,0.0,0.0,0.0,0.0,0.0,0.0,0.0,0.0,0.0,0.0,0.0,0.0,0.0,0.0,0.0,0.0,0.0,0.0,0.0,0.0,0.0,0.0,0.0,0.0,0.0,0.0,0.0,0.0,0.0,0.0,0.0,0.0,0.0,0.0,0.0,0.0,0.0,0.0,0.0,0.0,0.0,0.0,0.0,2.7933,3.0353,3.1387,3.1573,3.078,3.0713,2.9988,2.8312,0.0,0.0,0.0,0.0,0.0,0.0,0.0,0.0,0.0,0.0,0.0,0.0,0.0,0.0,0.0,0.0,0.0,0.0,0.0,0.0,0.0,0.0,0.0,0.0,0.0,0.0,0.0,0.0,0.0,0.0,0.0,0.0,0.0,0.0,0.0,0.0,0.0,0.0,0.0,0.0,0.0,0.0,0.0,0.0,0.0,0.0,0.0,0.0,0.0,0.0,0.0,0.0,0.0,0.0,0.0,0.0,0.0,0.0,0.0,0.0,0.0,0.0,0.0,0.0,0.0,0.0,0.0,0.0,0.0,0.0,0.0,0.0,0.0,0.0,0.0,0.0,0.0,0.0,0.0,0.0,0.0,0.0,0.0,0.0,0.0,0.0,0.0,0.0,0.0,0.0,0.0,0.0,0.0,0.0,0.0,0.0,0.0,0.0,0.0,0.0,0.0,0.0,0.0,2.8292,2.9518,3.0682,3.1582,3.1735,3.082,3.0724,2.9996,2.8358,2.695,0.0,0.0,0.0,0.0,0.0,0.0,0.0,0.0,0.0,0.0,0.0,0.0,0.0,0.0,0.0,0.0,0.0,0.0,0.0,0.0,0.0,0.0,0.0,0.0,0.0,0.0,0.0,0.0,0.0,0.0,0.0,0.0,0.0,0.0,0.0,0.0,0.0,0.0,0.0,0.0,0.0,0.0,0.0,0.0,0.0,0.0,0.0,0.0,0.0,0.0,0.0,0.0,0.0,0.0,0.0,0.0,0.0,0.0,0.0,0.0,0.0,0.0,0.0,0.0,0.0,0.0,0.0,0.0,0.0,0.0,0.0,0.0,0.0,0.0,0.0,0.0,0.0,0.0,0.0,0.0,0.0,0.0,0.0,0.0,0.0,0.0,0.0,0.0,0.0,0.0,0.0,0.0,0.0,0.0,0.0,0.0,0.0,0.0,0.0,0.0,0.0,0.0,3.0668,3.1402,3.1404,3.2187,3.2263,3.1181,3.0845,3.0,2.8388,2.641,0.0,0.0,0.0,0.0,0.0,0.0,0.0,0.0,0.0,0.0,0.0,0.0,0.0,0.0,0.0,0.0,0.0,0.0,0.0,0.0,0.0,0.0,0.0,0.0,0.0,0.0,0.0,0.0,0.0,0.0,0.0,0.0,0.0,0.0,0.0,0.0,0.0,0.0,0.0,0.0,0.0,0.0,0.0,0.0,0.0,0.0,0.0,0.0,0.0,0.0,0.0,0.0,0.0,0.0,0.0,0.0,0.0,0.0,0.0,0.0,0.0,0.0,0.0,0.0,0.0,0.0,0.0,0.0,0.0,0.0,0.0,0.0,0.0,0.0,0.0,0.0,0.0,0.0,0.0,0.0,0.0,0.0,0.0,0.0,0.0,0.0,0.0,0.0,0.0,0.0,0.0,0.0,0.0,0.0,0.0,0.0,0.0,0.0,0.0,0.0,0.0,0.0,3.1718,3.3219,3.3221,3.4003,3.3817,3.2062,3.1178,2.9988,2.8308,2.5806,0.0,0.0,0.0,0.0,0.0,0.0,0.0,0.0,0.0,0.0,0.0,0.0,0.0,0.0,0.0,0.0,0.0,0.0,0.0,0.0,0.0,0.0,0.0,0.0,0.0,0.0,0.0,0.0,0.0,0.0,0.0,0.0,0.0,0.0,0.0,0.0,0.0,0.0,0.0,0.0,0.0,0.0,0.0,0.0,0.0,0.0,0.0,0.0,0.0,0.0,0.0,0.0,0.0,0.0,0.0,0.0,0.0,0.0,0.0,0.0,0.0,0.0,0.0,0.0,0.0,0.0,0.0,0.0,0.0,0.0,0.0,0.0,0.0,0.0,0.0,0.0,0.0,0.0,0.0,0.0,0.0,0.0,0.0,0.0,0.0,0.0,0.0,0.0,0.0,0.0,0.0,0.0,0.0,0.0,0.0,0.0,0.0,0.0,0.0,0.0,0.0,0.0,3.1316,3.2755,3.3336,3.3689,3.3394,3.2172,3.1253,3.0043,2.8363,0.0,0.0,0.0,0.0,0.0,0.0,0.0,0.0,0.0,0.0,0.0,0.0,0.0,0.0,0.0,0.0,0.0,0.0,0.0,0.0,0.0,0.0,0.0,0.0,0.0,0.0,0.0,0.0,0.0,0.0,0.0,0.0,0.0,0.0,0.0,0.0,0.0,0.0,0.0,0.0,0.0,0.0,0.0,0.0,0.0,0.0,0.0,0.0,0.0,0.0,0.0,0.0,0.0,0.0,0.0,0.0,0.0,0.0,0.0,0.0,0.0,0.0,0.0,0.0,0.0,0.0,0.0,0.0,0.0,0.0,0.0,0.0,0.0,0.0,0.0,0.0,0.0,0.0,0.0,0.0,0.0,0.0,0.0,0.0,0.0,0.0,0.0,0.0,0.0,0.0,0.0,0.0,0.0,0.0,0.0,0.0,0.0,0.0,0.0,0.0,0.0,0.0,2.9532,3.1414,3.2895,3.4102,3.3988,3.3462,3.2583,3.1488,3.0101,2.8404,0.0,0.0,0.0,0.0,0.0,0.0,0.0,0.0,0.0,0.0,0.0,0.0,0.0,0.0,0.0,0.0,0.0,0.0,0.0,0.0,0.0,0.0,0.0,0.0,0.0,0.0,0.0,0.0,0.0,0.0,0.0,0.0,0.0,0.0,0.0,0.0,0.0,0.0,0.0,0.0,0.0,0.0,0.0,0.0,0.0,0.0,0.0,0.0,0.0,0.0,0.0,0.0,0.0,0.0,0.0,0.0,0.0,0.0,0.0,0.0,0.0,0.0,0.0,0.0,0.0,0.0,0.0,0.0,0.0,0.0,0.0,0.0,0.0,0.0,0.0,0.0,0.0,0.0,0.0,0.0,0.0,0.0,0.0,0.0,0.0,0.0,0.0,0.0,0.0,0.0,0.0,0.0,0.0,0.0,0.0,0.0,0.0,0.0,0.0,0.0,0.0,0.0,3.0351,3.2329,3.407,3.5809,3.5207,3.4331,3.3471,3.1867,3.0166,0.0,0.0,0.0,0.0,0.0,0.0,0.0,0.0,0.0,0.0,0.0,0.0,0.0,0.0,0.0,0.0,0.0,0.0,0.0,0.0,0.0,0.0,0.0,0.0,0.0,0.0,0.0,0.0,0.0,0.0,0.0,0.0,0.0,0.0,0.0,0.0,0.0,0.0,0.0,0.0,0.0,0.0,0.0,0.0,0.0,0.0,0.0,0.0,0.0,0.0,0.0,0.0,0.0,0.0,0.0,0.0,0.0,0.0,0.0,0.0,0.0,0.0,0.0,0.0,0.0,0.0,0.0,0.0,0.0,0.0,0.0,0.0,0.0,0.0,0.0,0.0,0.0,0.0,0.0,0.0,0.0,0.0,0.0,0.0,0.0,0.0,0.0,0.0,0.0,0.0,0.0,0.0,0.0,0.0,0.0,0.0,0.0,0.0,0.0,0.0,0.0,0.0,0.0,3.0417,3.2354,3.4075,3.5813,3.4662,3.3686,3.3413,3.1869,3.015,2.8412,0.0,0.0,0.0,0.0,0.0,0.0,0.0,0.0,0.0,0.0,0.0,0.0,0.0,0.0,0.0,0.0,0.0,0.0,0.0,0.0,0.0,0.0,0.0,0.0,0.0,0.0,0.0,0.0,0.0,0.0,0.0,0.0,0.0,0.0,0.0,0.0,0.0,0.0,0.0,0.0,0.0,0.0,0.0,0.0,0.0,0.0,0.0,0.0,0.0,0.0,0.0,0.0,0.0,0.0,0.0,0.0,0.0,0.0,0.0,0.0,0.0,0.0,0.0,0.0,0.0,0.0,0.0,0.0,0.0,0.0,0.0,0.0,0.0,0.0,0.0,0.0,0.0,0.0,0.0,0.0,0.0,0.0,0.0,0.0,0.0,0.0,0.0,0.0,0.0,0.0,0.0,0.0,0.0,0.0,0.0,0.0,0.0,0.0,0.0,0.0,0.0,0.0,3.0458,3.2358,3.4079,3.5817,3.4744,3.3787,3.3435,3.2166,3.0505,2.8435,0.0,0.0,0.0,0.0,0.0,0.0,0.0,0.0,0.0,0.0,0.0,0.0,0.0,0.0,0.0,0.0,0.0,0.0,0.0,0.0,0.0,0.0,0.0,0.0,0.0,0.0,0.0,0.0,0.0,0.0,0.0,0.0,0.0,0.0,0.0,0.0,0.0,0.0,0.0,0.0,0.0,0.0,0.0,0.0,0.0,0.0,0.0,0.0,0.0,0.0,0.0,0.0,0.0,0.0,0.0,0.0,0.0,0.0,0.0,0.0,0.0,0.0,0.0,0.0,0.0,0.0,0.0,0.0,0.0,0.0,0.0,0.0,0.0,0.0,0.0,0.0,0.0,0.0,0.0,0.0,0.0,0.0,0.0,0.0,0.0,0.0,0.0,0.0,0.0,0.0,0.0,0.0,0.0,0.0,0.0,0.0,0.0,0.0,0.0,0.0,0.0,0.0,3.046,3.2438,3.4159,3.5819,3.5215,3.4375,3.3594,3.2656,3.1054,2.8574,0.0,0.0,0.0,0.0,0.0,0.0,0.0,0.0,0.0,0.0,0.0,0.0,0.0,0.0,0.0,0.0,0.0,0.0,0.0,0.0,0.0,0.0,0.0,0.0,0.0,0.0,0.0,0.0,0.0,0.0,0.0,0.0,0.0,0.0,0.0,0.0,0.0,0.0,0.0,0.0,0.0,0.0,0.0,0.0,0.0,0.0,0.0,0.0,0.0,0.0,0.0,0.0,0.0,0.0,0.0,0.0,0.0,0.0,0.0,0.0,2.3938,2.3078,0.0,0.0,0.0,0.0,0.0,0.0,0.0,0.0,0.0,0.0,0.0,0.0,0.0,0.0,0.0,0.0,0.0,0.0,0.0,0.0,0.0,0.0,0.0,0.0,0.0,0.0,0.0,0.0,0.0,0.0,0.0,0.0,0.0,0.0,0.0,0.0,0.0,0.0,0.0,0.0,3.0545,3.2968,3.4824,3.5898,3.5215,3.4629,3.4434,3.3047,3.1367,2.9434,2.7695,0.0,0.0,0.0,0.0,0.0,0.0,0.0,0.0,0.0,0.0,0.0,0.0,0.0,0.0,0.0,0.0,0.0,0.0,0.0,0.0,0.0,0.0,0.0,0.0,0.0,0.0,0.0,0.0,0.0,0.0,0.0,0.0,0.0,0.0,0.0,0.0,0.0,0.0,0.0,0.0,0.0,0.0,0.0,0.0,0.0,0.0,0.0,0.0,0.0,0.0,0.0,0.0,0.0,0.0,0.0,0.0,0.0,0.0,0.0,2.6019,2.5077,0.0,0.0,0.0,0.0,0.0,0.0,0.0,0.0,0.0,0.0,0.0,0.0,0.0,0.0,0.0,0.0,0.0,0.0,0.0,0.0,0.0,0.0,0.0,0.0,0.0,0.0,0.0,0.0,0.0,0.0,0.0,0.0,0.0,0.0,0.0,0.0,0.0,0.0,0.0,0.0,3.1132,3.3359,3.5039,3.5918,3.5586,3.5156,3.4746,3.3516,3.2051,3.0332,2.8203,0.0,0.0,0.0,0.0,0.0,0.0,0.0,0.0,0.0,0.0,0.0,0.0,0.0,0.0,0.0,0.0,0.0,0.0,0.0,0.0,0.0,0.0,0.0,0.0,0.0,0.0,0.0,0.0,0.0,0.0,0.0,0.0,0.0,0.0,0.0,0.0,0.0,0.0,0.0,0.0,0.0,0.0,0.0,0.0,0.0,0.0,0.0,0.0,0.0,0.0,0.0,0.0,0.0,3.0868,3.1251,3.0957,3.0957,3.0881,3.0612,2.8447,2.7765,2.8057,2.6659,0.0,0.0,0.0,0.0,0.0,0.0,0.0,0.0,0.0,0.0,0.0,0.0,0.0,0.0,0.0,0.0,0.0,0.0,0.0,0.0,0.0,0.0,3.0269,3.1033,3.1739,3.1415,2.8552,0.0,0.0,0.0,0.0,0.0,0.0,0.0,0.0,0.0,0.0,0.0,3.1816,3.3769,3.5195,3.5918,3.5996,3.5703,3.498,3.3984,3.2754,3.1211,2.8828,2.6738,0.0,0.0,0.0,0.0,0.0,0.0,0.0,0.0,0.0,0.0,0.0,0.0,0.0,0.0,0.0,0.0,0.0,0.0,0.0,0.0,0.0,0.0,0.0,0.0,0.0,0.0,0.0,0.0,0.0,0.0,0.0,0.0,2.1115,2.2142,0.0,0.0,0.0,0.0,0.0,0.0,0.0,0.0,0.0,0.0,0.0,0.0,0.0,2.9698,2.9793,3.2223,3.3067,3.2338,3.4666,3.5004,3.3597,3.3597,3.3194,3.2453,3.212,0.0,2.9934,2.973,0.0,0.0,0.0,0.0,0.0,0.0,0.0,0.0,0.0,0.0,0.0,0.0,0.0,0.0,0.0,0.0,0.0,0.0,0.0,0.0,0.0,0.0,3.2723,3.2842,3.2962,3.2934,3.2524,3.0168,2.8055,2.7827,2.6656,2.5581,0.0,0.0,0.0,0.0,0.0,0.0,3.1953,3.4316,3.5879,3.5996,3.5996,3.5957,3.584,3.4336,3.3008,3.209,3.0273,2.8809,2.7832,2.621,0.0,0.0,0.0,0.0,0.0,0.0,0.0,0.0,0.0,0.0,0.0,0.0,0.0,0.0,0.0,0.0,0.0,0.0,0.0,0.0,0.0,0.0,0.0,0.0,0.0,0.0,0.0,0.0,0.0,2.1689,2.3668,2.4023,2.4405,2.4301,0.0,0.0,0.0,0.0,0.0,0.0,0.0,0.0,0.0,3.1366,3.259,3.3448,3.389,3.5484,3.6099,3.5734,3.6848,3.7002,3.6291,3.6291,3.608,3.5715,3.5715,3.5318,3.4435,3.2033,3.0618,2.9911,0.0,0.0,0.0,0.0,2.941,2.9402,3.0036,3.0177,3.0037,2.9696,0.0,0.0,0.0,0.0,0.0,0.0,0.0,3.1247,3.2461,3.3781,3.4766,3.477,3.5142,3.5383,3.4928,3.3275,3.1617,3.0621,3.0211,2.9411,2.7497,2.7244,0.0,0.0,0.0,3.168,3.3398,3.5019,3.5996,3.5996,3.5996,3.5996,3.5996,3.4844,3.3769,3.293,3.1269,2.9941,2.9062,2.7832,2.6523,0.0,0.0,0.0,0.0,0.0,0.0,0.0,0.0,0.0,0.0,0.0,0.0,0.0,0.0,0.0,0.0,0.0,0.0,0.0,0.0,0.0,0.0,0.0,0.0,0.0,0.0,0.0,0.0,2.4247,2.5769,2.5568,2.6295,2.6351,0.0,0.0,0.0,0.0,0.0,0.0,3.2154,3.2724,3.3545,3.4795,3.5699,3.6423,3.7026,3.7892,3.8334,3.8334,3.8546,3.8527,3.8334,3.8334,3.82,3.7988,3.8012,3.8033,3.7756,3.4327,3.2929,3.2891,3.2068,3.1738,3.1821,3.2497,3.2469,3.2254,3.3389,3.3498,3.3147,3.3199,3.2514,3.1636,3.125,0.0,0.0,0.0,0.0,3.3629,3.4509,3.568,3.6676,3.6677,3.7165,3.7459,3.6816,3.6151,3.5175,3.3435,3.326,3.2654,3.033,3.0116,0.0,3.0547,3.1875,3.3379,3.4844,3.5996,3.6582,3.6367,3.6328,3.623,3.6016,3.5195,3.4414,3.3769,3.2344,3.1152,3.0293,2.9434,2.8242,2.6738,0.0,0.0,0.0,0.0,0.0,0.0,0.0,0.0,0.0,0.0,0.0,0.0,0.0,0.0,0.0,0.0,0.0,0.0,0.0,0.0,0.0,0.0,0.0,0.0,0.0,0.0,0.0,0.0,0.0,2.654,2.9302,0.0,0.0,0.0,0.0,3.1365,3.2199,3.3064,3.4026,3.5584,3.6481,3.6558,3.743,3.7892,3.793,3.8796,3.9227,3.9246,4.0015,3.9977,3.9227,3.9227,3.8777,3.7995,3.8061,3.8083,3.8013,3.6889,3.6442,3.6367,3.5631,3.5333,3.5368,3.5534,3.6052,3.6577,3.5891,3.6147,3.6747,3.6732,3.568,3.4542,3.5344,3.4471,0.0,0.0,3.6363,3.7242,3.8104,3.8397,3.8476,3.8476,3.8496,3.8516,3.8476,3.8437,3.7891,3.6133,3.4492,3.3613,3.4277,0.0,3.2324,3.3086,3.3984,3.4902,3.582,3.7422,3.8144,3.7324,3.7226,3.6894,3.6074,3.5195,3.4687,3.4648,3.3789,3.291,3.2109,3.123,3.0332,2.9414,2.6973,0.0,0.0,0.0,0.0,0.0,0.0,0.0,0.0,0.0,0.0,0.0,0.0,0.0,0.0,0.0,0.0,0.0,0.0,0.0,0.0,0.0,0.0,0.0,0.0,0.0,0.0,0.0,0.0,3.0522,3.1693,0.0,3.1161,3.2148,3.3212,3.4077,3.4885,3.5968,3.7418,3.8046,3.8873,3.9942,4.0269,4.0719,4.1277,4.1585,4.1486,4.097,4.1259,4.0997,4.0269,4.0269,4.0095,3.9805,3.9829,3.984,3.9811,3.9483,3.8706,3.7695,3.7448,3.7335,3.7333,3.7386,3.7583,3.7796,3.7553,3.7661,3.792,3.7993,3.7636,3.7232,3.7549,3.7221,3.6873,3.7499,3.791,3.8202,3.8515,3.9023,3.9297,3.873,3.9023,3.9277,3.8711,3.8594,3.8574,3.8516,3.7559,3.668,3.6426,3.5879,3.5586,3.5879,3.6172,3.6699,3.7559,3.8223,3.8476,3.8164,3.7637,3.7168,3.6855,3.6035,3.5059,3.3926,3.3574,3.2793,3.1426,3.1074,3.0488,2.9629,2.8672,2.6699,0.0,0.0,0.0,0.0,0.0,0.0,0.0,0.0,0.0,0.0,0.0,0.0,0.0,0.0,0.0,0.0,0.0,0.0,0.0,0.0,0.0,0.0,0.0,0.0,0.0,3.0158,3.1943,3.2795,3.3916,3.4403,3.3827,3.4814,3.5834,3.6719,3.7526,3.8604,4.0065,4.0412,4.1085,4.22,4.2239,4.2527,4.3085,4.3119,4.2874,4.2338,4.2381,4.2158,4.1684,4.1684,4.1513,4.1265,4.1595,4.142,4.0886,4.1208,4.0516,3.9237,3.9224,3.9204,3.9202,3.9246,3.924,3.9255,3.9304,3.9333,3.9358,3.9448,3.9275,3.908,3.9394,3.9277,3.9101,3.9394,3.9473,3.9473,3.9473,3.9902,4.0195,3.9609,3.9922,4.0176,3.9609,3.9473,3.9648,4.0234,3.9394,3.8516,3.8223,3.793,3.7734,3.7734,3.7988,3.8398,3.8965,3.9297,3.9355,3.9062,3.8516,3.7949,3.7344,3.6504,3.5371,3.3926,3.3555,3.2773,3.1406,3.1348,3.0937,3.0059,2.9453,2.7461,2.4043,0.0,0.0,0.0,0.0,0.0,0.0,0.0,0.0,0.0,0.0,0.0,0.0,0.0,0.0,0.0,0.0,0.0,0.0,0.0,0.0,0.0,0.0,0.0,2.9266,3.2122,3.3954,3.3192,3.6026,3.743,3.5846,3.718,3.8469,3.9361,4.015,4.0958,4.1797,4.2643,4.3104,4.3151,4.3151,4.3159,4.3179,4.3246,4.3266,4.3254,4.3374,4.3435,4.3419,4.3419,4.2941,4.2202,4.317,4.2646,4.1144,4.2076,4.1947,4.1164,4.1046,4.0991,4.1009,4.1081,4.1108,4.1108,4.1091,4.1152,4.1191,4.1191,4.0625,4.0098,4.0937,4.0605,4.0117,4.0957,4.1191,4.1191,4.1191,4.1191,4.1191,4.1191,4.1191,4.1191,4.1191,4.1191,4.1191,4.1191,3.9844,3.8945,3.9805,3.9238,3.8672,3.8672,3.9394,0.0,3.9941,4.0684,4.0879,4.0039,3.9922,3.9219,3.748,3.6543,3.5644,3.4726,3.3867,3.3047,3.2226,3.2168,3.1758,3.0918,2.9199,2.7461,2.5779,0.0,0.0,0.0,0.0,0.0,0.0,0.0,0.0,0.0,0.0,0.0,0.0,0.0,0.0,0.0,0.0,0.0,0.0,0.0,0.0,0.0,3.0873,3.2801,3.2795,3.4153,3.5743,3.7353,3.838,3.9238,3.9981,4.0481,4.1123,4.1989,4.2258,4.2486,4.273,4.298,4.342,4.4087,4.4167,4.4473,4.5053,4.5115,4.4893,4.4362,4.441,4.4133,4.3622,4.3622,4.3487,4.3276,4.3558,4.3406,4.298,4.3236,4.32,4.2851,4.1571,4.106,4.1065,4.109,4.1131,4.1171,4.1172,4.1172,4.1191,4.1191,4.1035,4.0898,4.1133,4.1035,4.0898,4.1133,4.1191,4.1191,4.1191,4.1191,4.1191,4.1191,4.1191,4.1191,4.1191,4.1191,4.1191,4.1191,4.0801,4.0566,4.0801,4.0644,4.0488,4.0488,4.0684,4.084,4.084,4.1055,4.1113,4.0879,4.0273,3.9453,3.834,3.7441,3.6035,3.3887,3.3535,3.3047,3.2226,3.1582,3.1133,3.0898,2.9197,2.8064,0.0,0.0,0.0,0.0,0.0,0.0,0.0,0.0,0.0,0.0,0.0,0.0,0.0,0.0,0.0,0.0,0.0,0.0,0.0,0.0,0.0,0.0,3.3212,3.5115,3.6197,3.6762,3.7642,3.913,3.9912,4.0739,4.1712,4.2143,4.2547,4.3066,4.3429,4.3646,4.3631,4.4002,4.4442,4.4994,4.5044,4.5293,4.5789,4.5881,4.5737,4.5348,4.5393,4.5198,4.4781,4.4781,4.4587,4.4256,4.4627,4.4374,4.373,4.4081,4.4023,4.3555,0.0,0.0,0.0,0.0,4.1172,4.1191,4.1191,4.1191,4.1191,4.1191,4.1191,4.1191,4.1191,4.1191,4.1191,4.1191,4.1191,4.1191,4.1191,4.1191,4.1191,4.1191,4.1191,4.1191,4.1191,4.1191,4.1191,4.1191,4.1191,0.0,4.1191,4.1191,4.1191,4.1191,4.1191,4.1191,4.1191,4.1191,4.1191,4.1191,4.0742,4.0098,3.9219,3.8008,0.0,0.0,0.0,3.3027,3.2186,3.1679,0.0,0.0,0.0,0.0,0.0,2.9426,0.0,0.0,2.8506,2.8605,0.0,0.0,0.0,0.0,0.0,0.0,0.0,0.0,0.0,0.0,0.0,0.0,0.0,0.0,0.0,0.0,3.5238,3.6719,3.8977,3.9457,3.9592,3.9592,4.0893,4.1865,4.2058,4.2777,4.3278,4.3382,4.4116,4.4545,4.4553,4.5287,0.0,0.0,0.0,4.5761,4.5825,4.5957,4.6057,4.6123,4.6241,4.6307,4.6307,4.6307,4.5878,4.5195,4.5957,4.543,4.4043,4.4824,4.4629,4.3769,4.289,4.2499,4.2305,4.1601,4.1289,4.1191,4.1191,0.0,0.0,4.1308,4.1348,4.1348,4.1445,4.1484,4.1484,4.1484,4.1484,4.1484,4.1484,4.1484,4.1484,4.1484,4.1406,4.1348,4.1348,4.1269,4.1191,4.1191,4.1191,4.1191,4.1191,4.1191,4.1191,4.1191,4.1191,4.1191,4.1191,4.1191,4.1191,4.1191,4.1191,0.0,3.9961,3.8476,3.7148,3.6073,3.4451,3.3162,3.228,3.2337,3.2357,3.2259,3.2259,3.2628,3.3404,3.3404,3.3441,3.3474,3.0321,3.0088,0.0,0.0,0.0,0.0,0.0,0.0,0.0,0.0,0.0,0.0,0.0,0.0,0.0,0.0,0.0,3.5019,3.7103,3.8738,3.9227,4.045,4.1316,4.1316,4.1596,4.2335,4.3682,4.397,4.4372,4.5145,4.5346,4.5464,4.5526,4.5696,4.5769,4.5778,4.5893,4.5968,4.6045,4.612,4.6188,4.6267,4.6289,0.0,4.6308,4.6308,4.6211,4.6055,4.623,4.6113,4.5801,4.5976,4.5527,4.4668,4.3789,4.3027,4.2383,4.2226,4.1758,4.1191,4.1191,4.1191,4.1308,4.1953,4.2168,4.2305,4.3008,4.3223,0.0,4.3223,4.3223,4.3223,4.3223,4.3223,4.3223,4.3223,4.2676,4.2168,4.2168,4.166,4.1191,4.1191,4.1191,4.1191,4.1191,4.1191,4.1191,4.1191,4.1191,4.1191,4.1191,4.1191,4.1191,4.1191,4.1191,4.0859,3.9961,3.959,3.8437,3.6132,3.5016,3.4058,3.3178,3.382,3.3876,3.3154,3.3149,3.3224,3.3399,3.3399,3.3768,3.4413,3.3047,3.2677,0.0,0.0,0.0,0.0,0.0,0.0,0.0,0.0,0.0,0.0,0.0,3.1667,3.3808,0.0,3.5872,3.7199,3.8469,3.9585,4.0431,4.1277,4.1788,4.1788,4.2547,4.3374,4.422,4.4726,4.5194,4.5662,4.5722,4.5762,4.5807,4.5803,4.5805,4.5807,4.5941,4.6032,4.6098,4.6162,4.6238,4.6308,4.6308,4.6308,4.6308,4.6308,4.6308,4.6308,4.6308,4.6308,4.6308,4.6308,4.6035,4.5605,4.5176,4.4199,4.3047,4.3047,4.2793,4.2441,4.2441,4.2441,4.2519,4.293,4.3047,4.3125,4.3574,4.3691,4.3691,4.3691,4.3691,4.3691,4.3691,4.3691,4.3691,4.3691,4.3379,4.3047,4.3047,4.2734,4.2441,4.2441,4.2441,4.2441,4.2441,4.2441,4.2168,4.1328,4.1191,4.1191,4.1191,4.1191,4.1191,4.1191,4.1191,4.1016,4.0586,4.0156,3.9158,3.7419,3.6476,3.5613,3.4733,3.4692,3.4496,3.4066,3.4043,3.4275,3.4704,3.5133,3.5584,3.5994,3.5994,3.5779,0.0,0.0,0.0,0.0,0.0,0.0,0.0,2.9206,3.0031,3.3237,3.3891,3.4526,3.6558,3.7084,3.7719,3.9284,3.9688,4.0315,4.1835,4.22,4.2297,4.2305,4.3506,4.4391,4.4564,4.5261,4.5717,4.5726,4.577,4.5788,4.5795,4.5805,4.5807,4.5807,4.5892,4.6013,4.6098,4.615,4.6213,4.6308,4.6308,4.6308,4.6308,4.6308,4.6308,4.6308,4.6308,4.6308,4.6308,4.6308,4.6308,4.6308,4.6308,4.5449,4.418,4.4023,4.3848,4.3691,4.3691,4.3691,4.373,4.3906,4.3945,4.3984,4.4141,4.4219,4.4219,4.4219,4.4219,4.4219,4.4219,4.4219,4.4219,4.4219,4.4082,4.3945,4.3945,4.3828,4.3691,4.3691,4.3691,4.3691,4.3691,4.3691,4.3183,4.166,4.1426,4.1387,4.1211,4.1191,4.1191,4.1191,4.1191,4.1191,4.1191,4.0408,3.9603,3.89,3.8031,3.7243,3.6539,3.5837,3.5467,3.5467,3.5467,3.5798,3.65,3.7204,3.7555,3.7575,3.8435,3.8376,2.7322,2.7385,2.7846,2.9437,2.9327,2.9833,0.0,3.4045,3.4244,3.6892,3.743,3.7526,3.7796,3.8488,3.9304,4.0227,4.1027,4.1854,4.2816,4.3566,4.4045,4.4105,4.4267,4.4691,4.5461,4.5637,4.5715,4.5773,4.58,4.5803,4.58,4.58,4.5807,4.5807,4.5801,4.5914,4.6098,4.6109,4.6167,4.6308,4.6308,4.6308,4.6308,4.6308,4.6308,4.6308,4.6308,4.6308,4.6308,4.6308,4.6308,4.6308,4.6308,4.6172,4.5918,4.5137,4.4355,4.3691,4.3691,4.3691,4.3828,4.4609,4.4844,4.5,4.5762,4.6016,4.6016,4.6016,4.6016,4.6016,4.6016,4.6016,4.6016,4.6016,4.543,4.4844,4.4844,4.4258,4.3691,4.3691,4.3691,4.3691,4.3691,4.3691,4.3379,4.2402,4.2266,4.2012,4.1289,4.1191,4.1191,4.1191,4.1191,4.1191,4.1191,4.0408,3.9857,3.9759,3.8931,3.8415,3.8318,3.822,3.8162,3.8162,3.8162,3.8201,3.8318,3.8415,3.8454,3.8474,3.9292,3.9234,2.9077,2.9737,3.0275,3.0981,3.2006,3.3295,3.5096,3.5577,3.6238,3.8334,3.8757,3.8892,3.9381,4.0162,4.0873,4.12,4.1989,4.2854,4.3682,4.4085,4.4314,4.4394,4.485,4.529,4.5657,4.5735,4.5765,4.5807,4.581,4.5805,4.5807,4.5807,4.5807,4.5807,4.5886,4.5988,4.6098,4.6139,4.6206,4.6308,4.6308,4.6308,4.6308,4.6308,4.6308,4.6308,4.6308,4.6308,4.6308,4.6308,4.6308,4.6308,4.6308,4.6308,4.6269,4.5898,4.5527,4.5215,4.5215,4.5215,4.5273,4.5644,4.5762,4.582,4.6191,4.6308,4.6308,4.6308,4.6308,4.6308,4.6308,4.6308,4.6308,4.6308,4.6016,4.5762,4.5762,4.5469,4.5215,4.5215,4.5215,4.5215,4.5215,4.5215,4.4922,4.4043,4.3476,4.2851,4.2012,4.1894,4.1719,4.125,4.1191,4.1172,4.1152,4.0817,4.0598,4.0595,3.9786,3.9292,3.9292,3.8845,3.8591,3.8591,3.8591,3.8591,3.8591,3.9079,3.9292,3.9312,4.0151,4.0387,3.0423,3.1212,3.1814,3.2275,3.3962,3.5615,3.6077,3.6834,3.7834,3.9323,3.9631,3.9804,4.04,4.12,4.1885,4.2124,4.2874,4.3728,4.4564,4.4688,4.4705,4.4773,4.5333,4.5731,4.5739,4.5769,4.5803,4.5803,4.5812,4.5807,4.5807,4.5807,4.5807,4.5807,4.5886,4.5988,4.6064,4.6139,4.6206,4.6267,4.6289,4.6308,4.6308,4.6308,4.6308,4.6308,4.6308,4.6308,4.6308,4.6308,4.6308,4.6308,4.6308,4.6308,4.6308,4.6308,4.6308,4.6308,4.6308,4.6308,4.6308,4.6308,4.6308,4.6308,4.6308,4.6308,4.6308,4.6308,4.6308,4.6308,4.6308,4.6308,4.6308,4.6308,4.6308,4.6308,4.6308,4.6308,4.6308,4.6308,4.6308,4.6308,4.6308,4.6308,4.6094,4.5449,4.4824,4.4023,4.2891,4.2558,4.209,4.1289,4.1172,4.1152,4.1092,4.1108,4.1103,4.1099,4.0507,4.0151,4.0151,3.9606,3.9294,3.9294,3.9294,3.9294,3.9294,3.9878,4.0151,4.0171,4.0816,4.1109,3.166,3.1679,3.2083,3.3725,3.4814,3.5923,3.7546,3.8604,3.9457,4.0285,4.0458,4.0477,4.0496,4.12,4.2085,4.2912,4.3739,4.4583,4.5539,4.5662,4.5676,4.5754,4.5788,4.5803,4.58,4.58,4.58,4.58,4.5807,4.5807,4.5807,4.5807,4.5807,4.5807,4.5807,4.5861,4.6002,4.6064,4.6137,4.6204,4.6267,4.6308,4.6308,4.6308,4.6308,4.6308,4.6308,4.6308,4.6308,4.6308,4.6308,4.6308,4.6308,4.6308,4.6308,4.6308,4.6308,4.6308,4.6308,4.6308,4.6308,4.6308,4.6308,4.6308,4.6308,4.6308,4.6308,4.6308,4.6308,4.6308,4.6308,4.6308,4.6308,4.6308,4.6308,4.6308,4.6308,4.6308,4.6308,4.6308,4.6308,4.6308,4.6308,4.6308,4.6289,4.6269,4.623,4.5605,4.3887,4.293,4.209,4.1289,4.1132,4.1092,4.1092,4.1105,4.1099,4.1098,4.1073,4.1051,4.1051,4.1031,4.1012,4.1012,4.1012,4.1012,4.1012,4.1051,4.1051,4.1051,4.109,4.1109,3.2352,3.291,3.3622,3.4776,3.6122,3.7469,3.8604,3.9496,4.0169,4.0439,4.0073,3.9696,3.9699,4.0377,4.1227,4.209,4.3434,4.4683,4.5566,4.5706,4.5507,4.5,4.5452,4.559,4.5058,4.549,4.5807,4.5807,4.5807,4.5807,4.5807,4.5807,4.5807,4.5807,4.5807,4.5854,4.5997,4.6018,4.6087,4.6204,4.6267,4.6308,4.6308,4.6308,4.6308,4.6308,4.6308,4.6308,4.6308,4.6308,4.6308,4.6308,4.6308,4.6308,4.6308,4.6308,4.6308,4.6308,4.6308,4.6308,4.6308,4.6308,4.6308,4.6308,4.6308,4.6308,4.6308,4.6308,4.6308,4.6308,4.6308,4.6308,4.6308,4.6308,4.6308,4.6308,4.6308,4.6308,4.6308,4.6308,4.6308,4.6308,4.6308,4.6308,4.6308,4.6308,4.5801,4.5234,4.4648,4.3301,4.2305,4.2031,4.1464,4.1091,4.1109,4.1103,4.1097,4.1093,4.1091,4.1109,4.1109,4.1109,4.1109,4.1109,4.1109,4.1109,4.1109,4.1109,4.1109,4.1109,4.1693,4.196,3.3603,3.4244,3.4956,3.6124,3.7452,3.8599,3.9169,3.9919,4.0419,4.0131,3.9419,3.8849,3.884,3.9256,4.0096,4.159,4.3031,4.4376,4.5568,4.5735,4.5545,4.5022,4.5455,4.5604,4.5084,4.549,4.5807,4.5807,4.5807,4.5807,4.5807,4.5807,4.5807,4.5807,4.5807,4.5828,4.5935,4.598,4.606,4.6202,4.6241,4.6288,4.6308,4.6308,4.6308,4.6308,4.6308,4.6308,4.6308,4.6308,4.6308,4.6308,4.6308,4.6308,4.6308,4.6308,4.6308,4.6308,4.6308,4.6308,4.6308,4.6308,4.6308,4.6308,4.6308,4.6308,4.6308,4.6308,4.6308,4.6308,4.6308,4.6308,4.6308,4.6308,4.6308,4.6308,4.6308,4.6308,4.6308,4.6308,4.6308,4.6308,4.6308,4.6308,4.6308,4.6308,4.582,4.5351,4.5039,4.4023,4.3203,4.289,4.2362,4.2026,4.2022,4.1743,4.1561,4.1558,4.1265,4.1109,4.1109,4.1109,4.1109,4.1109,4.1109,4.1109,4.1109,4.1109,4.1109,4.1129,4.1986,4.2403,3.5329,3.5605,3.6036,3.7731,3.8746,3.9329,3.9357,3.9927,4.0208,3.94,3.8515,3.7868,3.7826,3.7884,3.8784,4.1345,4.2587,4.3805,4.5549,4.5807,4.5803,4.58,4.5807,4.5807,4.5807,4.5807,4.5807,4.5807,4.5807,4.5807,4.5807,4.5807,4.5807,4.5807,4.5807,4.5807,4.5807,4.5947,4.6064,4.6181,4.6204,4.6239,4.6308,4.6308,4.6308,4.6308,4.6308,4.6308,4.6308,4.6308,4.6308,4.6308,4.6308,4.6308,4.6308,4.6308,4.6308,4.6308,4.6308,4.6308,4.6308,4.6308,4.6308,4.6308,4.6308,4.6308,4.6308,4.6308,4.6308,4.6308,4.6308,4.6308,4.6308,4.6308,4.6308,4.6308,4.6308,4.6308,4.6308,4.6308,4.6308,4.6308,4.6308,4.6308,4.6308,4.6308,4.6308,4.5996,4.5176,4.5039,4.4687,4.3846,4.3725,4.3701,4.3695,4.2946,4.2474,4.2474,4.1654,4.1168,4.1168,4.1129,4.1109,4.1109,4.1109,4.1109,4.1109,4.1148,4.1168,4.1187,4.2103,4.254,3.6254,3.6935,3.7707,3.8806,3.9231,3.9532,4.0123,3.9962,3.9446,3.8584,3.7243,3.6003,3.5354,3.626,3.7739,3.9708,4.1826,4.3803,4.5556,4.5791,4.5793,4.5807,4.5807,4.5807,4.5807,4.5807,4.5807,4.5807,4.5807,4.5807,4.5807,4.5807,4.5807,4.5807,4.5807,4.5807,4.5807,4.5988,4.6091,4.6128,4.6235,4.6288,4.6308,4.6308,4.6308,4.6308,4.6308,4.6308,4.6308,4.6308,4.6308,4.6308,4.6308,4.6308,4.6308,4.6308,4.6308,4.6308,4.6308,4.6308,4.6308,4.6308,4.6308,4.6308,4.6308,4.6308,4.6308,4.6308,4.6308,4.6308,4.6308,4.6308,4.6308,4.6308,4.6308,4.6308,4.6308,4.6308,4.6308,4.6308,4.6308,4.6308,4.6308,4.6308,4.6308,4.6308,4.6308,4.6211,4.5996,4.539,4.4901,4.4686,4.4094,4.3696,4.3695,4.3494,4.3372,4.3372,4.2552,4.2064,4.2064,4.1439,4.1109,4.1109,4.1109,4.1109,4.1109,4.1752,4.2064,4.2103,4.3626,4.4307,3.7713,3.8305,3.8878,3.9747,3.9978,3.9894,3.9578,3.914,3.8381,3.6723,3.5361,3.432,3.3861,3.4542,3.5988,3.8472,4.0707,4.2872,4.4979,4.558,4.5807,4.5807,4.5807,4.5807,4.5807,4.5807,4.5807,4.5807,4.5807,4.5807,4.5807,4.5807,4.5807,4.5807,4.5807,4.5807,4.5807,4.5968,4.6064,4.6102,4.6206,4.6267,4.6308,4.6308,4.6308,4.6308,4.6308,4.6308,4.6308,4.6308,4.6308,4.6308,4.6308,4.6308,4.6308,4.6308,4.6308,4.6308,4.6308,4.6308,4.6308,4.6308,4.6308,4.6308,4.6308,4.6308,4.6308,4.6308,4.6308,4.6308,4.6308,4.6308,4.6308,4.6308,4.6308,4.6308,4.6308,4.6308,4.6308,4.6308,4.6308,4.6308,4.6308,4.6308,4.6308,4.6308,4.6308,4.6308,4.6308,4.5878,4.5564,4.556,4.5125,4.4845,4.4842,4.4488,4.427,4.427,4.345,4.2962,4.2962,4.2494,4.2241,4.2241,4.2241,4.2241,4.2241,4.2728,4.2962,4.3001,4.4339,4.4936,3.9341,3.958,3.9754,4.0507,4.0604,4.0101,3.8465,3.7931,3.7064,3.4558,3.3395,3.2821,3.2764,3.2935,3.4188,3.7497,3.9591,4.168,4.4246,4.5297,4.5807,4.5807,4.5807,4.5807,4.5807,4.5807,4.5807,4.5807,4.5807,4.5807,4.5807,4.5807,4.5807,4.5807,4.5807,4.5807,4.5807,4.5939,4.6046,4.6102,4.6189,4.6241,4.6308,4.6308,4.6308,4.6308,4.6308,4.6308,4.6308,4.6308,4.6308,4.6308,4.6308,4.6308,4.6308,4.6308,4.6308,4.6308,4.6308,4.6308,4.6308,4.6308,4.6308,4.6308,4.6308,4.6308,4.6308,4.6308,4.6308,4.6308,4.6308,4.6308,4.6308,4.6308,4.6308,4.6308,4.6308,4.6308,4.6308,4.6308,4.6308,4.6308,4.6308,4.6308,4.6308,4.6308,4.6308,4.6307,4.6306,4.6306,4.6303,4.6294,4.6293,4.6308,4.6302,4.5617,4.5168,4.5168,4.4348,4.386,4.386,4.3762,4.3705,4.3705,4.3705,4.3705,4.3705,4.3821,4.386,4.3899,4.4719,4.5084,4.0236,4.0462,4.0507,4.0662,4.0159,3.9354,3.8337,3.7038,3.5506,3.3604,3.2571,3.1786,3.1075,3.2139,3.3972,3.6684,3.9185,4.168,4.4246,4.5297,4.5807,4.5807,4.5807,4.5807,4.5807,4.5807,4.5807,4.5807,4.5807,4.5807,4.5807,4.5807,4.5807,4.5807,4.5807,4.5807,4.5807,4.5993,4.6087,4.6102,4.6215,4.6289,4.6308,4.6308,4.6308,4.6308,4.6308,4.6308,4.6308,4.6308,4.6308,4.6308,4.6308,4.6308,4.6308,4.6308,4.6308,4.6308,4.6308,4.6308,4.6308,4.6308,4.6308,4.6308,4.6308,4.6308,4.6308,4.6308,4.6308,4.6308,4.6308,4.6308,4.6308,4.6308,4.6308,4.6308,4.6308,4.6308,4.6308,4.6308,4.6308,4.6308,4.6308,4.6308,4.6308,4.6307,4.6307,4.6305,4.6297,4.6296,4.6295,4.6293,4.6306,4.6302,4.63,4.6163,4.6066,4.6066,4.5265,4.4777,4.4777,4.4075,4.3705,4.3705,4.3705,4.3705,4.3705,4.4426,4.4777,4.4797,4.5652,4.603,4.0407,4.066,4.0654,4.0654,4.0017,3.8929,3.7141,3.5797,3.4305,3.2144,3.1393,3.0873,3.0033,3.1265,3.2817,3.4054,3.6439,3.9185,4.2202,4.3324,4.4311,4.5633,4.5807,4.5807,4.5807,4.5807,4.5807,4.5807,4.5807,4.5807,4.5807,4.5807,4.5807,4.5807,4.5807,4.5807,4.5807,4.5993,4.6098,4.6102,4.6239,4.6308,4.6308,4.6308,4.6308,4.6308,4.6308,4.6308,4.6308,4.6308,4.6308,4.6308,4.6308,4.6308,4.6308,4.6308,4.6308,4.6308,4.6308,4.6308,4.6308,4.6308,4.6308,4.6308,4.6308,4.6308,4.6308,4.6308,4.6308,4.6308,4.6308,4.6308,4.6308,4.6308,4.6308,4.6308,4.6308,4.6308,4.6308,4.6308,4.6308,4.6308,4.6308,4.6308,4.6308,4.6308,4.6306,4.6303,4.6299,4.6293,4.6306,4.6306,4.6303,4.63,4.63,4.63,4.63,4.63,4.5909,4.5675,4.5675,4.5285,4.5051,4.5051,4.5051,4.5051,4.5051,4.546,4.5675,4.5695,4.6074,4.6238,4.0137,4.0456,4.06,4.06,3.9848,3.8491,3.6042,3.4732,3.3344,3.097,3.0509,3.0279,2.9443,3.038,3.1386,3.1734,3.3847,3.6676,4.0294,4.1641,4.315,4.5517,4.5807,4.5807,4.5807,4.5807,4.5807,4.5807,4.5807,4.5807,4.5807,4.5807,4.5807,4.5807,4.5807,4.5807,4.5807,4.5993,4.6084,4.6102,4.6213,4.6289,4.6308,4.6308,4.6308,4.6308,4.6308,4.6308,4.6308,4.6308,4.6308,4.6308,4.6308,4.6308,4.6308,4.6308,4.6308,4.6308,4.6308,4.6308,4.6308,4.6308,4.6308,4.6308,4.6308,4.6308,4.6308,4.6308,4.6308,4.6308,4.6308,4.6308,4.6308,4.6308,4.6308,4.6308,4.6308,4.6308,4.6308,4.6308,4.6308,4.6308,4.6308,4.6308,4.6308,4.6308,4.6306,4.6301,4.6299,4.6308,4.63,4.63,4.63,4.63,4.63,4.63,4.63,4.63,4.63,4.63,4.63,4.63,4.63,4.63,4.63,4.63,4.63,4.63,4.63,4.63,4.6245,4.6214,3.9398,3.9991,4.0595,4.0595,3.9408,3.7744,3.5925,3.4263,3.2604,3.0769,3.05,3.0332,2.9463,2.9424,3.0037,3.1541,3.3325,3.5999,4.0216,4.2164,4.3827,4.5594,4.5807,4.5807,4.5807,4.5807,4.5807,4.5807,4.5807,4.5807,4.5807,4.5807,4.5807,4.5807,4.5807,4.5807,4.5807,4.5933,4.6041,4.6102,4.6167,4.624,4.6308,4.6308,4.6308,4.6308,4.6308,4.6308,4.6308,4.6308,4.6308,4.6308,4.6308,4.6308,4.6308,4.6308,4.6308,4.6308,4.6308,4.6308,4.6308,4.6308,4.6308,4.6308,4.6308,4.6308,4.6308,4.6308,4.6308,4.6308,4.6308,4.6308,4.6308,4.6308,4.6308,4.6308,4.6308,4.6308,4.6308,4.6308,4.6308,4.6308,4.6308,4.6308,4.6308,4.6304,4.6302,4.6299,4.6305,4.6302,4.63,4.63,4.63,4.63,4.63,4.63,4.63,4.63,4.63,4.63,4.63,4.63,4.63,4.63,4.63,4.63,4.63,4.63,4.63,4.63,4.6298,4.6269,3.9011,3.9923,4.0539,4.0539,3.8883,3.6958,3.5765,3.3801,3.1885,3.0692,3.0491,3.0129,2.8766,2.8949,2.934,2.9495,3.0574,3.2872,3.7133,3.8752,4.0704,4.3967,4.4776,4.5278,4.5749,4.5807,4.5807,4.5807,4.5807,4.5807,4.5807,4.5807,4.5807,4.5807,4.5807,4.5807,4.5807,4.5973,4.6068,4.6102,4.6207,4.6268,4.6308,4.6308,4.6308,4.6308,4.6308,4.6308,4.6308,4.6308,4.6308,4.6308,4.6308,4.6308,4.6308,4.6308,4.6308,4.6308,4.6308,4.6308,4.6308,4.6308,4.6308,4.6308,4.6308,4.6308,4.6308,4.6308,4.6308,4.6308,4.6308,4.6308,4.6308,4.6308,4.6308,4.6308,4.6308,4.6308,4.6308,4.6308,4.6308,4.6308,4.6308,4.6308,4.6308,4.6306,4.6303,4.6299,4.6309,4.6303,4.63,4.63,4.63,4.63,4.63,4.63,4.63,4.63,4.63,4.63,4.63,4.63,4.63,4.63,4.63,4.63,4.63,4.63,4.63,4.63,4.63,4.6251,3.7834,3.895,3.9765,3.9765,3.8046,3.6122,3.5303,3.3333,3.1468,3.0648,3.0283,2.968,2.8231,2.8496,2.8726,2.8121,2.9202,3.1511,3.5554,3.7066,3.9174,4.2986,4.3912,4.4576,4.5396,4.5673,4.5807,4.5807,4.5807,4.5807,4.5807,4.5807,4.5807,4.5807,4.5807,4.5807,4.5807,4.5983,4.6076,4.6102,4.621,4.6288,4.6308,4.6308,4.6308,4.6308,4.6308,4.6308,4.6308,4.6308,4.6308,4.6308,4.6308,4.6308,4.6308,4.6308,4.6308,4.6308,4.6308,4.6308,4.6308,4.6308,4.6308,4.6308,4.6308,4.6308,4.6308,4.6308,4.6308,4.6308,4.6308,4.6308,4.6308,4.6308,4.6308,4.6308,4.6308,4.6308,4.6308,4.6308,4.6308,4.6308,4.6308,4.6308,4.6308,4.6306,4.6302,4.6297,4.6291,4.6305,4.63,4.63,4.63,4.63,4.63,4.63,4.63,4.63,4.63,4.63,4.63,4.63,4.63,4.63,4.63,4.63,4.63,4.63,4.63,4.63,4.6275,4.6236,3.5538,3.6757,3.8027,3.8027,3.6757,3.5269,3.4417,3.2916,3.1445,3.0583,2.9762,2.8936,2.8058,2.7967,2.803,2.8097,3.0171,3.3014,3.6586,3.8513,4.0559,4.3194,4.346,4.3747,4.4626,4.5376,4.5807,4.5807,4.5807,4.5807,4.5807,4.5807,4.5807,4.5807,4.5807,4.5807,4.5807,4.5922,4.6036,4.6102,4.6162,4.6239,4.6308,4.6308,4.6308,4.6308,4.6308,4.6308,4.6308,4.6308,4.6308,4.6308,4.6308,4.6308,4.6308,4.6308,4.6308,4.6308,4.6308,4.6308,4.6308,4.6308,4.6308,4.6308,4.6308,4.6308,4.6308,4.6308,4.6308,4.6308,4.6308,4.6308,4.6308,4.6308,4.6308,4.6308,4.6308,4.6308,4.6308,4.6308,4.6308,4.6308,4.6308,4.6308,4.6306,4.6302,4.6297,4.629,4.6302,4.63,4.63,4.63,4.63,4.63,4.63,4.63,4.63,4.63,4.63,4.63,4.63,4.63,4.63,4.63,4.63,4.63,4.63,4.63,4.63,4.63,4.624,4.6174,3.4449,3.543,3.6288,3.6288,3.5007,3.3667,3.3423,3.2048,3.0744,3.053,2.9794,2.8941,2.8126,2.7981,2.8401,2.9667,3.1041,3.3167,3.6678,3.8603,4.0392,4.238,4.4058,4.5144,4.5422,4.5653,4.5807,4.5807,4.5807,4.5807,4.5807,4.5807,4.5807,4.5807,4.5807,4.5807,4.5807,4.5978,4.6076,4.6102,4.621,4.6288,4.6308,4.6308,4.6308,4.6308,4.6308,4.6308,4.6308,4.6308,4.6308,4.6308,4.6308,4.6308,4.6308,4.6308,4.6308,4.6308,4.6308,4.6308,4.6308,4.6308,4.6308,4.6308,4.6308,4.6308,4.6308,4.6308,4.6308,4.6308,4.6308,4.6308,4.6308,4.6308,4.6308,4.6308,4.6308,4.6308,4.6308,4.6308,4.6308,4.6308,4.6308,4.6308,4.6306,4.6302,4.6297,4.629,4.6302,4.63,4.63,4.63,4.63,4.63,4.63,4.63,4.63,4.63,4.63,4.63,4.63,4.63,4.63,4.63,4.63,4.63,4.63,4.63,4.6275,4.6238,4.6212,4.6169,3.2275,3.3622,3.4519,3.4519,3.3468,3.2455,3.2499,3.142,3.04,3.0442,2.9522,2.8569,2.8049,2.7967,2.8348,2.9521,3.1265,3.3441,3.6303,3.8432,4.0422,4.2416,4.4275,4.5377,4.5343,4.5633,4.5807,4.5807,4.5807,4.5807,4.5807,4.5807,4.5807,4.5807,4.5807,4.5815,4.5867,4.6011,4.6112,4.6139,4.6243,4.6308,4.6308,4.6308,4.6308,4.6308,4.6308,4.6308,0.0,4.6308,4.6308,4.6308,4.6308,4.6308,4.6308,4.6308,4.6308,4.6308,4.6308,4.6308,4.6308,4.6308,4.6308,4.6308,4.6308,4.6308,4.6308,4.6308,4.6308,4.6308,4.6308,4.6308,4.6308,4.6308,4.6308,4.6308,4.6308,4.6308,4.6308,4.6308,4.6308,4.6308,4.6308,4.6307,4.6305,4.6302,4.6295,4.6306,4.6302,4.63,4.63,4.63,4.63,4.63,4.63,4.63,4.63,4.63,4.63,4.63,4.63,4.63,4.63,4.63,4.63,4.63,4.63,4.6273,4.6238,4.6209,4.6176,4.6134,0.0,3.1179,3.2487,3.2602,3.2064,3.1525,3.1583,3.0981,0.0,3.0404,2.9063,2.7944,2.8072,2.7981,2.8038,2.8411,3.1231,3.402,3.5825,3.8327,4.0867,4.3281,4.4281,4.4746,4.4685,4.5355,4.5807,4.5807,4.5807,4.5807,4.5807,4.5807,4.5807,4.5807,4.5807,4.5854,4.5997,4.608,4.6134,4.6204,4.6267,4.6308,4.6308,4.6308,4.6308,4.6308,4.6308,4.6308,4.6308,4.6308,4.6308,4.6308,4.6308,4.6308,4.6308,4.6308,4.6308,4.6308,4.6308,4.6308,4.6308,4.6308,4.6308,4.6308,4.6308,4.6308,4.6308,4.6308,4.6308,4.6308,4.6308,4.6308,4.6308,4.6308,4.6308,4.6308,4.6308,4.6308,4.6308,4.6308,4.6308,4.6308,4.6308,4.6307,4.6302,4.6301,4.6291,4.6302,4.63,4.63,4.63,4.63,4.63,4.63,4.63,4.63,4.63,4.63,4.63,4.63,4.63,4.63,4.63,4.63,4.63,4.63,4.63,4.624,4.6195,4.6196,4.6138,4.6075,2.5529,0.0,2.839,2.9665,2.9858,2.989,0.0,3.0558,3.0404,3.0404,2.9063,2.8327,2.9715,2.8824,2.8826,3.1682,3.3895,3.5873,3.7647,4.0568,4.3204,4.5009,4.5422,4.5551,4.5517,4.5691,4.5807,4.5807,4.5807,4.5807,4.5807,4.5807,4.5807,4.5807,4.5807,4.5854,4.5997,4.608,4.6134,4.6204,4.6267,4.6308,4.6308,4.6308,4.6308,4.6308,4.6308,4.6308,4.6308,4.6308,4.6308,4.6308,4.6308,4.6308,4.6308,4.6308,4.6308,4.6308,4.6308,4.6308,4.6308,4.6308,4.6308,4.6308,4.6308,4.6308,4.6308,4.6308,4.6308,4.6308,4.6308,4.6308,4.6308,4.6308,4.6308,4.6308,4.6308,4.6308,4.6308,4.6308,4.6308,4.6308,4.6308,4.6308,4.6305,4.6302,4.6296,4.6308,4.6302,4.63,4.63,4.63,4.63,4.63,4.63,4.63,4.63,4.63,4.63,4.63,4.63,4.63,4.63,4.63,4.63,4.63,4.63,4.6277,4.6253,4.6199,4.6189,4.6106,2.3028,2.5005,2.7409,2.8319,2.9121,2.9813,3.0288,3.0404,3.0404,3.0404,2.9102,2.8367,2.9718,2.9181,2.9478,3.2296,3.4477,3.6835,3.9782,4.2422,4.4496,4.5743,4.588,4.588,4.5814,4.5807,4.5807,4.5807,4.5807,4.5807,4.5807,4.5807,4.5834,4.5899,4.5822,4.5886,4.6031,4.608,4.6147,4.6242,4.6288,4.6308,4.6308,4.6308,4.6308,4.6308,4.6308,4.6308,4.6308,4.6308,4.6308,4.6308,4.6308,4.6308,4.6308,4.6308,4.6308,4.6308,4.6308,4.6308,4.6308,4.6308,4.6308,4.6308,4.6308,4.6308,4.6308,4.6308,4.6308,4.6308,4.6308,4.6308,4.6308,4.6308,4.6308,4.6308,4.6308,4.6308,4.6308,4.6308,4.6308,4.6308,4.6308,4.6308,4.6306,4.6302,4.6297,4.629,4.6302,4.63,4.63,4.63,4.63,4.63,4.63,4.63,4.63,4.63,4.63,4.63,4.63,4.63,4.63,4.63,4.63,4.63,4.63,4.6271,4.6248,4.6196,4.6181,4.6093,2.187,2.4639,2.7544,2.7659,2.8967,3.0231,3.0365,3.0404,3.0404,3.0404,2.9205,2.8507,2.9592,2.9733,3.0327,3.2284,3.4698,3.7778,4.1999,4.3833,4.5066,4.5869,4.5975,4.5916,4.5814,4.5807,4.5807,4.5807,4.5807,4.5807,4.5807,4.5807,4.5854,4.5997,4.588,4.5908,4.6115,4.6105,4.6162,4.6308,4.6308,4.6308,4.6308,4.6308,4.6308,4.6308,4.6308,4.6308,4.6308,4.6308,4.6308,4.6308,4.6308,4.6308,4.6308,4.6308,4.6308,4.6308,4.6308,4.6308,4.6308,4.6308,4.6308,4.6308,4.6308,4.6308,4.6308,4.6308,4.6308,4.6308,4.6308,4.6308,4.6308,4.6308,4.6308,4.6308,4.6308,4.6308,4.6308,4.6308,4.6308,4.6308,4.6308,4.6308,4.6306,4.6303,4.6299,4.6293,4.6303,4.6302,4.63,4.63,4.63,4.63,4.63,4.63,4.63,4.63,4.63,4.63,4.63,4.63,4.63,4.63,4.63,4.63,4.63,4.6243,4.6217,4.6196,4.6142,4.6075,2.349,2.4678,2.5885,2.6621,2.8063,2.9486,3.0231,3.0404,3.0404,3.0404,2.9613,2.9659,3.2057,3.1918,3.2264,3.4876,3.7425,4.0303,4.3821,4.4494,4.4931,4.5744,4.5841,4.5808,4.5807,4.5807,4.5807,4.5807,4.5807,4.5807,4.5807,4.5807,4.5854,4.5997,4.588,4.5928,4.6173,4.6128,4.6162,4.6308,4.6308,4.6308,4.6308,4.6308,4.6308,4.6308,4.6308,4.6308,4.6308,4.6308,4.6308,4.6308,4.6308,4.6308,4.6308,4.6308,4.6308,4.6308,4.6308,4.6308,4.6308,4.6308,4.6308,4.6308,4.6308,4.6308,4.6308,4.6308,4.6308,4.6308,4.6308,4.6308,4.6308,4.6308,4.6308,4.6308,4.6308,4.6308,4.6308,4.6308,4.6308,4.6308,4.6308,4.6308,4.6308,4.6307,4.6303,4.6299,4.6293,4.6305,4.63,4.63,4.63,4.63,4.63,4.63,4.63,4.63,4.63,4.63,4.63,4.63,4.63,4.63,4.63,4.63,4.63,4.6298,4.6255,4.6199,4.6192,4.613,2.2952,2.4401,2.6043,2.5971,2.8249,3.0602,3.1,3.1442,3.1756,3.1756,3.1124,3.1074,3.2739,3.3131,3.4376,3.7976,4.0742,4.2984,4.4492,4.5108,4.5525,4.5865,4.5917,4.5886,4.5814,4.5807,4.5807,4.5807,4.5807,4.5841,4.5892,4.5917,4.5963,4.6105,4.6007,4.6064,4.6244,4.6195,4.6204,4.6308,4.6308,4.6308,4.6308,4.6308,4.6308,4.6308,4.6308,4.6308,4.6308,4.6308,4.6308,4.6308,4.6308,4.6308,4.6308,4.6308,4.6308,4.6308,4.6308,4.6308,4.6308,4.6308,4.6308,4.6308,4.6308,4.6308,4.6308,4.6308,4.6308,4.6308,4.6308,4.6308,4.6308,4.6308,4.6308,4.6308,4.6308,4.6308,4.6308,4.6308,4.6308,4.6308,4.6308,4.6308,4.6308,4.6307,4.6306,4.6302,4.6294,4.6309,4.6306,4.6302,4.63,4.63,4.63,4.63,4.63,4.63,4.63,4.63,4.63,4.63,4.63,4.63,4.63,4.63,4.63,4.63,4.6277,4.6199,4.6199,4.6134,2.2904,2.4594,2.6582,2.6101,2.8713,3.1506,3.1891,3.2468,3.3026,3.343,3.3055,3.2913,3.3734,3.4828,3.6866,4.0781,4.3136,4.4595,4.4902,4.5585,4.6012,4.595,4.5958,4.5904,4.5814,4.5807,4.5807,4.5807,4.5807,4.5835,4.5953,4.5986,4.6044,4.6167,4.6128,4.616,4.6308,4.6238,4.6238,4.6308,4.6308,4.6308,4.6308,4.6308,4.6308,4.6308,4.6308,4.6308,4.6308,4.6308,4.6308,4.6308,4.6308,4.6308,4.6308,4.6308,4.6308,4.6308,4.6308,4.6308,4.6308,4.6308,4.6308,4.6308,4.6308,4.6308,4.6308,4.6308,4.6308,4.6308,4.6308,4.6308,4.6308,4.6308,4.6308,4.6308,4.6308,4.6308,4.6308,4.6308,4.6308,4.6308,4.6308,4.6308,4.6308,4.6308,4.6307,4.6305,4.6299,4.6295,4.6291,4.6305,4.6302,4.63,4.63,4.63,4.63,4.63,4.63,4.63,4.63,4.63,4.63,4.63,4.63,4.63,4.63,4.63,4.6262,4.619,4.6203,4.6142,2.5062,2.5943,2.6852,2.7546,2.9117,3.0904,3.2468,3.2852,3.3353,3.4981,3.5271,3.5496,3.6369,3.7939,4.0034,4.2766,4.3364,4.4017,4.5505,4.5769,4.5815,4.5801,4.5801,4.5814,4.5807,4.5807,4.5807,4.5807,4.5807,4.5807,4.5801,4.5922,4.6032,4.6105,4.6102,4.616,4.6308,4.6238,4.6238,4.6308,4.6308,4.6308,4.6308,4.6308,4.6308,4.6308,4.6308,4.6308,4.6308,4.6308,4.6308,4.6308,4.6308,4.6308,4.6308,4.6308,4.6308,4.6308,4.6308,4.6308,4.6308,4.6308,4.6308,4.6308,4.6308,4.6308,4.6308,4.6308,4.6308,4.6308,4.6308,4.6308,4.6308,4.6308,4.6308,4.6308,4.6308,4.6308,4.6308,4.6308,4.6308,4.6308,4.6308,4.6308,4.6308,4.6308,4.6308,4.6307,4.6306,4.63,4.6293,4.6293,4.6305,4.63,4.63,4.63,4.63,4.63,4.63,4.63,4.63,4.63,4.63,4.63,4.63,4.63,4.63,4.63,4.6269,4.6203,4.6193,4.6154,2.4838,2.6508,2.8125,2.7346,2.9561,3.2256,3.343,3.4122,3.5,3.6699,3.706,3.7324,3.8192,3.9419,4.0961,4.2943,4.3769,4.4537,4.564,4.5807,4.5807,4.5807,4.5807,4.5807,4.5807,4.5807,4.5807,4.5807,4.5807,4.5848,4.5929,4.5975,4.6059,4.6155,4.6158,4.6206,4.6308,4.6268,4.6268,4.6308,4.6308,4.6308,4.6308,4.6308,4.6308,4.6308,4.6308,4.6308,4.6308,4.6308,4.6308,4.6308,4.6308,4.6308,4.6308,4.6308,4.6308,4.6308,4.6308,4.6308,4.6308,4.6308,4.6308,4.6308,4.6308,4.6308,4.6308,4.6308,4.6308,4.6308,4.6308,4.6308,4.6308,4.6308,4.6308,4.6308,4.6308,4.6308,4.6308,4.6308,4.6308,4.6308,4.6308,4.6308,4.6308,4.6308,4.6308,4.6308,4.6307,4.6303,4.6297,4.6294,4.6305,4.63,4.63,4.63,4.63,4.63,4.63,4.63,4.63,4.63,4.63,4.63,4.63,4.63,4.63,4.63,4.6271,4.6206,4.6195,4.6193,2.4962,2.6934,2.8981,2.7791,3.0029,3.2949,3.4603,3.5449,3.6423,3.8392,3.8796,3.8987,3.965,4.0301,4.1203,4.2615,4.3608,4.4485,4.5297,4.5652,4.5807,4.5807,4.5807,4.5807,4.5807,4.5807,4.5807,4.5807,4.5807,4.5848,4.5922,4.5993,4.6068,4.616,4.6207,4.6244,4.6308,4.6308,4.6308,4.6308,4.6308,4.6308,4.6308,4.6308,4.6308,4.6308,4.6308,4.6308,4.6308,4.6308,4.6308,4.6308,4.6308,4.6308,4.6308,4.6308,4.6308,4.6308,4.6308,4.6308,4.6308,4.6308,4.6308,4.6308,4.6308,4.6308,4.6308,4.6308,4.6308,4.6308,4.6308,4.6308,4.6308,4.6308,4.6308,4.6308,4.6308,4.6308,4.6308,4.6308,4.6308,4.6308,4.6308,4.6308,4.6308,4.6308,4.6308,4.6308,4.6308,4.6306,4.6301,4.6294,4.6305,4.63,4.63,4.63,4.63,4.63,4.63,4.63,4.63,4.63,4.63,4.63,4.63,4.63,4.63,4.63,4.6275,4.6238,4.6211,4.6198,2.584,2.7369,2.9206,2.9207,3.0472,3.2602,3.5942,3.6692,3.743,3.9977,4.0496,4.0559,4.0768,4.0687,4.0933,4.1941,4.2767,4.3595,4.4478,4.5297,4.5807,4.5807,4.5807,4.5807,4.5807,4.5807,4.5807,4.5807,4.5807,4.5807,4.5807,4.5983,4.6098,4.6102,4.6237,4.6308,4.6308,4.6308,4.6308,4.6308,4.6308,4.6308,4.6308,4.6308,4.6308,4.6308,4.6308,4.6308,4.6308,4.6308,4.6308,4.6308,4.6308,4.6308,4.6308,4.6308,4.6308,4.6308,4.6308,4.6308,4.6308,4.6308,4.6308,4.6308,4.6308,4.6308,4.6308,4.6308,4.6308,4.6308,4.6308,4.6308,4.6308,4.6308,4.6308,4.6308,4.6308,4.6308,4.6308,4.6308,4.6308,4.6308,4.6308,4.6308,4.6308,4.6308,4.6308,4.6308,4.6308,4.6308,4.6305,4.6294,4.6306,4.63,4.63,4.63,4.63,4.63,4.63,4.63,4.63,4.63,4.63,4.63,4.63,4.63,4.63,4.63,4.63,4.63,4.6238,4.6209,2.58,2.739,2.932,2.9178,3.1356,3.4087,3.6213,3.6692,3.743,3.9977,4.0539,4.0595,4.0654,4.0668,4.0977,4.1886,4.2731,4.3595,4.4478,4.5297,4.5807,4.5807,4.5807,4.5807,4.5807,4.5807,4.5807,4.5807,4.5807,4.5848,4.5941,4.5993,4.6068,4.6162,4.6207,4.6244,4.6308,4.6308,4.6308,4.6308,4.6308,4.6308,4.6308,4.6308,4.6308,4.6308,4.6308,4.6308,4.6308,4.6308,4.6308,4.6308,4.6308,4.6308,4.6308,4.6308,4.6308,4.6308,4.6308,4.6308,4.6308,4.6308,4.6308,4.6308,4.6308,4.6308,4.6308,4.6308,4.6308,4.6308,4.6308,4.6308,4.6308,4.6308,4.6308,4.6308,4.6308,4.6308,4.6308,4.6308,4.6308,4.6308,4.6308,4.6308,4.6308,4.6308,4.6308,4.6308,4.6308,4.6307,4.6305,4.6294,4.6291,4.6306,4.6302,4.63,4.63,4.63,4.63,4.63,4.63,4.63,4.63,4.63,4.63,4.63,4.63,4.63,4.63,4.63,4.6275,4.6273,2.6518,2.8167,3.0004,3.052,3.2499,3.4809,3.6766,3.7738,3.8642,4.0189,4.0531,4.0573,4.0607,4.0639,4.0835,4.1389,4.2215,4.3092,4.3962,4.4794,4.5432,4.5768,4.5807,4.5807,4.5807,4.5807,4.5807,4.5807,4.5807,4.5841,4.5923,4.5998,4.6072,4.6155,4.6209,4.6265,4.6308,4.6308,4.6308,4.6308,4.6308,4.6308,4.6308,4.6308,4.6308,4.6308,4.6308,4.6308,4.6308,4.6308,4.6308,4.6308,4.6308,4.6308,4.6308,4.6308,4.6308,4.6308,4.6308,4.6308,4.6308,4.6308,4.6308,4.6308,4.6308,4.6308,4.6308,4.6308,4.6308,4.6308,4.6308,4.6308,4.6308,4.6308,4.6308,4.6308,4.6308,4.6308,4.6308,4.6308,4.6308,4.6308,4.6308,4.6308,4.6308,4.6308,4.6308,4.6308,4.6308,4.6307,4.6305,4.6297,4.6295,4.6309,4.6302,4.63,4.63,4.63,4.63,4.63,4.63,4.63,4.63,4.63,4.63,4.63,4.63,4.63,4.63,4.63,4.63,4.63,2.7465,2.9169,3.0884,3.2508,3.3717,3.5154,3.748,3.9234,4.0419,4.0477,4.0496,4.0523,4.058,4.0605,4.0621,4.0694,4.1422,4.228,4.3073,4.4001,4.4871,4.5587,4.5768,4.5807,4.5807,4.5807,4.5807,4.5807,4.5821,4.5808,4.5822,4.6002,4.6112,4.6118,4.6239,4.6308,4.6308,4.6308,4.6308,4.6308,4.6308,4.6308,4.6308,4.6308,4.6308,4.6308,4.6308,4.6308,4.6308,4.6308,4.6308,4.6308,4.6308,4.6308,4.6308,4.6308,4.6308,4.6308,4.6308,4.6308,4.6308,4.6308,4.6308,4.6308,4.6308,4.6308,4.6308,4.6308,4.6308,4.6308,4.6308,4.6308,4.6308,4.6308,4.6308,4.6308,4.6308,4.6308,4.6308,4.6308,4.6308,4.6308,4.6308,4.6308,4.6308,4.6308,4.6308,4.6308,4.6308,4.6308,4.6306,4.6302,4.6297,4.6291,4.6302,4.6302,4.63,4.63,4.63,4.63,4.63,4.63,4.63,4.63,4.63,4.63,4.63,4.63,4.63,4.63,4.63,4.63,2.6046,2.7932,3.0199,3.175,3.4255,3.664,3.7803,3.8856,3.9746,4.0362,4.0496,4.0523,4.058,4.0605,4.0621,4.0694,4.1422,4.2067,4.2241,4.3614,4.4652,4.4833,4.5413,4.5807,4.5807,4.5807,4.5807,4.5807,4.5905,4.5982,4.6024,4.6134,4.6204,4.6264,4.6288,4.6308,4.6308,4.6308,4.6308,4.6308,4.6308,4.6308,4.6308,4.6308,4.6308,4.6308,4.6308,4.6308,4.6308,4.6308,4.6308,4.6308,4.6308,4.6308,4.6308,4.6308,4.6308,4.6308,4.6308,4.6308,4.6308,4.6308,4.6308,4.6308,4.6308,4.6308,4.6308,4.6308,4.6308,4.6308,4.6308,4.6308,4.6308,4.6308,4.6308,4.6308,4.6308,4.6308,4.6308,4.6308,4.6308,4.6308,4.6308,4.6308,4.6308,4.6308,4.6308,4.6308,4.6308,4.6308,4.6308,4.6306,4.6303,4.6297,4.6291,4.6305,4.63,4.63,4.63,4.63,4.63,4.63,4.63,4.63,4.63,4.63,4.63,4.63,4.63,4.63,4.63,4.63,2.5808,2.7875,3.0284,3.3101,3.5387,3.7059,3.7444,3.846,3.9453,3.9857,4.0227,4.0504,4.0558,4.0576,4.0612,4.0647,4.1055,4.1525,4.1951,4.2783,4.3518,4.3924,4.4349,4.4775,4.5181,4.5239,4.5394,4.5768,4.5916,4.6027,4.6059,4.6145,4.621,4.6243,4.6288,4.6308,4.6308,4.6308,4.6308,4.6308,4.6308,4.6308,4.6308,4.6308,4.6308,4.6308,4.6308,4.6308,4.6308,4.6308,4.6308,4.6308,4.6308,4.6308,4.6308,4.6308,4.6308,4.6308,4.6308,4.6308,4.6308,4.6308,4.6308,4.6308,4.6308,4.6308,4.6308,4.6308,4.6308,4.6308,4.6308,4.6308,4.6308,4.6308,4.6308,4.6308,4.6308,4.6308,4.6308,4.6308,4.6308,4.6308,4.6308,4.6308,4.6308,4.6308,4.6308,4.6308,4.6308,4.6308,4.6308,4.6307,4.6306,4.6302,4.6294,4.6309,4.6305,4.63,4.63,4.63,4.63,4.63,4.63,4.63,4.63,4.63,4.63,4.63,4.63,4.63,4.63,4.63,2.5485,2.7996,3.0757,3.4705,3.6262,3.6824,3.692,3.8001,3.9012,3.9108,3.9853,4.0496,4.0496,4.0546,4.0595,4.0593,4.0654,4.0939,4.1667,4.1906,4.226,4.2995,4.3208,4.3582,4.4318,4.4395,4.4738,4.5564,4.5739,4.5876,4.6036,4.615,4.6212,4.6212,4.6267,4.6308,4.6308,4.6308,4.6308,4.6308,4.6308,4.6308,4.6308,4.6308,4.6308,4.6308,4.6308,4.6308,4.6308,4.6308,4.6308,4.6308,4.6308,4.6308,4.6308,4.6308,4.6308,4.6308,4.6308,4.6308,4.6308,4.6308,4.6308,4.6308,4.6308,4.6308,4.6308,4.6308,4.6308,4.6308,4.6308,4.6308,4.6308,4.6308,4.6308,4.6308,4.6308,4.6308,4.6308,4.6308,4.6308,4.6308,4.6308,4.6308,4.6308,4.6308,4.6308,4.6308,4.6308,4.6308,4.6308,4.6307,4.6307,4.6305,4.6297,4.6294,4.629,4.6303,4.6302,4.63,4.63,4.63,4.63,4.63,4.63,4.63,4.63,4.63,4.63,4.63,4.63,4.63,2.3496,2.7052,3.1327,3.4153,3.5468,3.6222,3.6911,3.7203,3.7531,3.8287,3.9541,4.0496,4.0496,4.0546,4.0607,4.0595,4.0653,4.0739,4.0861,4.1525,4.2048,4.2164,4.2841,4.3363,4.3541,4.3552,4.3943,4.4869,4.5,4.5384,4.6128,4.6242,4.6289,4.6289,4.6308,4.6308,4.6308,4.6308,4.6308,4.6308,4.6308,4.6308,4.6308,4.6308,4.6308,4.6308,4.6308,4.6308,4.6308,4.6308,4.6308,4.6308,4.6308,4.6308,4.6308,4.6308,4.6308,4.6308,4.6308,4.6308,4.6308,4.6308,4.6308,4.6308,4.6308,4.6308,4.6308,4.6308,4.6308,4.6308,4.6308,4.6308,4.6308,4.6308,4.6308,4.6308,4.6308,4.6308,4.6308,4.6308,4.6308,4.6308,4.6308,4.6308,4.6308,4.6308,4.6308,4.6308,4.6308,4.6308,4.6308,4.6308,4.6308,4.6307,4.6306,4.63,4.6293,4.6291,4.6305,4.63,4.63,4.63,4.63,4.63,4.63,4.63,4.63,4.63,4.63,4.63,4.63,4.63,2.4633,2.766,3.086,3.3925,3.4968,3.5438,3.6245,3.6758,3.7148,3.7504,3.8489,3.9404,3.9861,4.034,4.0681,4.0754,4.073,4.0736,4.0796,4.115,4.1393,4.1446,4.1776,4.2198,4.2684,4.2727,4.3308,4.4708,4.4868,4.5285,4.6144,4.6265,4.6308,4.6308,4.6308,4.6308,4.6308,4.6308,4.6308,4.6308,4.6308,4.6308,4.6308,4.6308,4.6308,4.6308,4.6308,4.6308,4.6308,4.6308,4.6308,4.6308,4.6308,4.6308,4.6308,4.6308,4.6308,4.6308,4.6308,4.6308,4.6308,4.6308,4.6308,4.6308,4.6308,4.6308,4.6308,4.6308,4.6308,4.6308,4.6308,4.6308,4.6308,4.6308,4.6308,4.6308,4.6308,4.6308,4.6308,4.6308,4.6308,4.6308,4.6308,4.6308,4.6308,4.6308,4.6308,4.6308,4.6308,4.6308,4.6308,4.6308,4.6308,4.6308,4.6307,4.6305,4.6301,4.6294,4.6309,4.6305,4.63,4.63,4.63,4.63,4.63,4.63,4.63,4.63,4.63,4.63,4.63,4.63,2.5296,2.7601,2.9651,3.2657,3.4061,3.4856,3.5451,3.6238,3.6807,3.6758,3.7444,3.8222,3.8828,3.9748,4.051,4.0824,4.0801,4.0791,4.0883,4.0905,4.0915,4.0964,4.099,4.123,4.1852,4.1911,4.254,4.4075,4.4247,4.475,4.5844,4.5935,4.6074,4.6289,4.6308,4.6308,4.6308,4.6308,4.6308,4.6308,4.6308,4.6308,4.6308,4.6308,4.6308,4.6308,4.6308,4.6308,4.6308,4.6308,4.6308,4.6308,4.6308,4.6308,4.6308,4.6308,4.6308,4.6308,4.6308,4.6308,4.6308,4.6308,4.6308,4.6308,4.6308,4.6308,4.6308,4.6308,4.6308,4.6308,4.6308,4.6308,4.6308,4.6308,4.6308,4.6308,4.6308,4.6308,4.6308,4.6308,4.6308,4.6308,4.6308,4.6308,4.6308,4.6308,4.6308,4.6308,4.6308,4.6308,4.6308,4.6308,4.6308,4.6308,4.6307,4.6307,4.6305,4.6299,4.6295,4.629,4.6305,4.6302,4.63,4.63,4.63,4.63,4.63,4.63,4.63,4.63,4.63,4.63,2.3811,2.5805,2.7562,2.9417,3.2306,3.4705,3.4743,3.5425,3.6067,3.6046,3.6749,3.7354,3.7412,3.8595,3.9849,4.0674,4.0848,4.0885,4.0889,4.0906,4.0893,4.0893,4.0964,4.1037,4.1142,4.1165,4.1547,4.246,4.2539,4.3262,4.4961,4.5078,4.5449,4.6269,4.6308,4.6308,4.6308,4.6308,4.6308,4.6308,4.6308,4.6308,4.6308,4.6308,4.6308,4.6308,4.6308,4.6308,4.6308,4.6308,4.6308,4.6308,4.6308,4.6308,4.6308,4.6308,4.6308,4.6308,4.6308,4.6308,4.6308,4.6308,4.6308,4.6308,4.6308,4.6308,4.6308,4.6308,4.6308,4.6308,4.6308,4.6308,4.6308,4.6308,4.6308,4.6308,4.6308,4.6308,4.6308,4.6308,4.6308,4.6308,4.6308,4.6308,4.6308,4.6308,4.6308,4.6308,4.6308,4.6308,4.6308,4.6308,4.6308,4.6308,4.6308,4.6308,4.6307,4.6306,4.63,4.6293,4.6293,4.6305,4.63,4.63,4.63,4.63,4.63,4.63,4.63,4.63,4.63,4.63,2.3168,2.4848,2.6723,2.9026,3.0919,3.2636,3.4315,3.494,3.533,3.5875,3.6246,3.6636,3.7204,3.8127,3.9094,4.0017,4.0133,4.0341,4.0937,4.1027,4.1037,4.103,4.1052,4.1099,4.1168,4.1169,4.1502,4.2344,4.2402,4.293,4.4101,4.418,4.457,4.5449,4.5469,4.5723,4.6289,4.6308,4.6308,4.6308,4.6308,4.6308,4.6308,4.6308,4.6308,4.6308,4.6308,4.6308,4.6308,4.6308,4.6308,4.6308,4.6308,4.6308,4.6308,4.6308,4.6308,4.6308,4.6308,4.6308,4.6308,4.6308,4.6308,4.6308,4.6308,4.6308,4.6308,4.6308,4.6308,4.6308,4.6308,4.6308,4.6308,4.6308,4.6308,4.6308,4.6308,4.6308,4.6308,4.6308,4.6308,4.6308,4.6308,4.6308,4.6308,4.6308,4.6308,4.6308,4.6308,4.6308,4.6308,4.6308,4.6308,4.6308,4.6308,4.6308,4.6308,4.6307,4.6305,4.6302,4.6299,4.6293,4.6308,4.6308,4.6303,4.63,4.63,4.63,4.63,4.63,4.63,4.63,2.2523,2.4165,2.6195,2.8226,2.9572,3.0997,3.33,3.4042,3.451,3.5387,3.5797,3.6187,3.6755,3.726,3.799,3.9192,3.9583,3.9947,4.0584,4.0921,4.1101,4.1108,4.1091,4.1112,4.1152,4.1191,4.1426,4.1953,4.1992,4.2363,4.3223,4.3262,4.3808,4.4961,4.5,4.543,4.6289,4.6308,4.6308,4.6308,4.6308,4.6308,4.6308,4.6308,4.6308,4.6308,4.6308,4.6308,4.6308,4.6308,4.6308,4.6308,4.6308,4.6308,4.6308,4.6308,4.6308,4.6308,4.6308,4.6308,4.6308,4.6308,4.6308,4.6308,4.6308,4.6308,4.6308,4.6308,4.6308,4.6308,4.6308,4.6308,4.6308,4.6308,4.6308,4.6308,4.6308,4.6308,4.6308,4.6308,4.6308,4.6308,4.6308,4.6308,4.6308,4.6308,4.6308,4.6308,4.6308,4.6308,4.6308,4.6308,4.6308,4.6308,4.6308,4.6308,4.6308,4.6308,4.6306,4.6305,4.6301,4.6294,4.6309,4.6309,4.6303,4.63,4.63,4.63,4.63,4.63,4.63,4.63,0.0,0.0,0.0,2.6742,2.8245,2.9963,3.1662,3.2695,3.3552,3.4491,3.5349,3.5934,3.5992,3.5992,3.6558,3.8259,3.9195,3.9741,3.98,4.0528,4.1078,4.1098,4.1108,4.1092,4.1092,4.1152,4.1191,4.1191,4.1191,4.1543,4.2324,4.2383,4.3183,4.4902,4.498,4.543,4.6289,4.6308,4.6308,4.6308,4.6308,4.6308,4.6308,4.6308,4.6308,4.6308,4.6308,4.6308,4.6308,4.6308,4.6308,4.6308,4.6308,4.6308,4.6308,4.6308,4.6308,4.6308,4.6308,4.6308,4.6308,4.6308,4.6308,4.6308,4.6308,4.6308,4.6308,4.6308,4.6308,4.6308,4.6308,4.6308,4.6308,4.6308,4.6308,4.6308,4.6308,4.6308,4.6308,4.6308,4.6308,4.6308,4.6308,4.6308,4.6308,4.6308,4.6308,4.6308,4.6308,4.6308,4.6308,4.6308,4.6308,4.6308,4.6308,4.6308,4.6308,4.6308,4.6306,4.6301,4.6301,4.629,4.6302,4.6302,4.63,4.63,4.63,4.63,4.63,4.63,4.63,4.63,2.2932,0.0,0.0,0.0,0.0,0.0,3.0626,3.0899,3.1426,3.4139,3.4393,3.4509,3.5778,3.5992,3.6168,3.6636,3.7438,3.8414,3.9624,4.0016,4.039,4.1039,4.1105,4.111,4.1092,4.1152,4.1191,4.1191,4.1191,4.1308,4.1523,4.207,4.291,4.4023,4.4668,4.543,4.6289,4.6308,4.6308,4.6308,4.6308,4.6308,4.6308,4.6308,4.6308,4.6308,4.6308,4.6308,4.6308,4.6308,4.6308,4.6308,4.6308,4.6308,4.6308,4.6308,4.6308,4.6308,4.6308,4.6308,4.6308,4.6308,4.6308,4.6308,4.6308,4.6308,4.6308,4.6308,4.6308,4.6308,4.6308,4.6308,4.6308,4.6308,4.6308,4.6308,4.6308,4.6308,4.6308,4.6308,4.6308,4.6308,4.6308,4.6308,4.6308,4.6308,4.6308,4.6308,4.6308,4.6308,4.6308,4.6308,4.6308,4.6308,4.6308,4.6308,4.6308,4.6308,4.6307,4.6306,4.6306,4.6297,4.6309,4.6309,4.6303,4.63,4.63,4.63,4.63,4.63,4.63,4.63,0.0,0.0,0.0,2.6156,0.0,0.0,2.9708,2.9944,3.0354,3.3067,3.3495,3.3709,3.4724,3.5211,3.5465,3.5465,3.6189,3.736,3.9058,3.9585,4.0114,4.0996,4.1103,4.1108,4.109,4.1152,4.1191,4.1191,4.1191,4.1191,4.1191,4.1641,4.2285,4.3125,4.4004,4.4883,4.5742,4.6113,4.6308,4.6308,4.6308,4.6308,4.6308,4.6308,4.6308,4.6308,4.6308,4.6308,4.6308,4.6308,4.6308,4.6308,4.6308,4.6308,4.6308,4.6308,4.6308,4.6308,4.6308,4.6308,4.6308,4.6308,4.6308,4.6308,4.6308,4.6308,4.6308,4.6308,4.6308,4.6308,4.6308,4.6308,4.6308,4.6308,4.6308,4.6308,4.6308,4.6308,4.6308,4.6308,4.6308,4.6308,4.6308,4.6308,4.6308,4.6308,4.6308,4.6308,4.6308,4.6308,4.6308,4.6308,4.6308,4.6308,4.6308,4.6308,4.6308,4.6308,4.6308,4.6307,4.6307,4.6301,4.6297,4.6297,4.6294,4.6291,4.6291,4.6303,4.63,4.63,4.63,4.63,2.5038,2.5394,0.0,2.6821,2.6567,0.0,2.8831,2.9456,3.0041,3.1622,3.2578,3.3162,3.3357,3.4022,3.4569,3.4569,3.5291,3.6501,3.8337,3.9214,4.0015,4.0992,4.11,4.1106,4.1106,4.1151,4.1191,4.1191,4.1191,4.1191,4.1191,4.1191,4.1562,4.2363,4.3144,4.3965,4.4844,4.5723,4.6152,4.6152,4.625,4.6308,4.6308,4.6308,4.6308,4.6308,4.6308,4.6308,4.6308,4.6308,4.6308,4.6308,4.6308,4.6308,4.6308,4.6308,4.6308,4.6308,4.6308,4.6308,4.6308,4.6308,4.6308,4.6308,4.6308,4.6308,4.6308,4.6308,4.6308,4.6308,4.6308,4.6308,4.6308,4.6308,4.6308,4.6308,4.6308,4.6308,4.6308,4.6308,4.6308,4.6308,4.6308,4.6308,4.6308,4.6308,4.6308,4.6308,4.6308,4.6308,4.6308,4.6308,4.6308,4.6308,4.6308,4.6308,4.6308,4.6308,4.6308,4.6307,4.6307,4.6304,4.6301,4.6301,4.6301,4.6301,4.6301,4.6291,4.6303,4.6303,4.6302,4.6302,2.7588,2.7653,2.7678,2.7133,2.7933,0.0,2.7718,2.8597,2.9885,3.0841,3.1191,3.1737,3.3143,3.3533,3.365,3.365,3.4374,3.5818,3.8259,3.8747,3.9391,4.0914,4.1097,4.11,4.11,4.1106,4.111,4.1112,4.1172,4.1191,4.1191,4.1191,4.1562,4.2363,4.2558,4.3066,4.3945,4.4824,4.5254,4.5254,4.5957,4.6308,4.6308,4.6308,4.6308,4.6308,4.6308,4.6308,4.6308,4.6308,4.6308,4.6308,4.6308,4.6308,4.6308,4.6308,4.6308,4.6308,4.6308,4.6308,4.6308,4.6308,4.6308,4.6308,4.6308,4.6308,4.6308,4.6308,4.6308,4.6308,4.6308,4.6308,4.6308,4.6308,4.6308,4.6308,4.6308,4.6308,4.6308,4.6308,4.6308,4.6308,4.6308,4.6308,4.6308,4.6308,4.6308,4.6308,4.6308,4.6308,4.6308,4.6308,4.6308,4.6308,4.6308,4.6308,4.6308,4.6308,4.6308,4.6307,4.6307,4.6304,4.6301,4.6301,4.6301,4.6301,4.6301,4.63,4.6299,4.6299,4.6294,4.6291,2.8406,2.8297,2.8205,2.7756,2.8303,0.0,0.0,2.8968,2.9944,3.1192,3.1094,3.1191,3.2519,3.2753,3.2753,3.2753,3.3476,3.4666,3.6405,3.74,3.8415,3.9704,3.9846,4.0025,4.0455,4.0499,4.0679,4.1072,4.1132,4.1152,4.1191,4.1191,4.1387,4.1797,4.2187,4.2617,4.3047,4.4355,4.5,4.5019,4.5879,4.6308,4.6308,4.6308,4.6308,4.6308,4.6308,4.6308,4.6308,4.6308,4.6308,4.6308,4.6308,4.6308,4.6308,4.6308,4.6308,4.6308,4.6308,4.6308,4.6308,4.6308,4.6308,4.6308,4.6308,4.6308,4.6308,4.6308,4.6308,4.6308,4.6308,4.6308,4.6308,4.6308,4.6308,4.6308,4.6308,4.6308,4.6308,4.6308,4.6308,4.6308,4.6308,4.6308,4.6308,4.6308,4.6308,4.6308,4.6308,4.668,4.6777,4.6348,4.6699,4.6777,4.6348,4.6308,4.6308,4.6308,4.6308,4.6308,4.6308,4.6307,4.6307,4.6307,4.6307,4.6307,4.6307,4.6307,4.6305,4.6301,4.6296,4.6293,0.0,2.9272,2.9201,2.8869,2.9025,2.9298,0.0,0.0,0.0,3.1408,3.1172,3.1016,3.1719,3.1856,3.1856,3.1856,3.2578,3.3398,3.41,3.5408,3.6755,3.7966,3.8244,3.8638,3.9321,3.9405,3.9741,4.0563,4.0623,4.0722,4.0937,4.1113,4.1191,4.1191,4.1836,4.2168,4.2168,4.3711,4.457,4.4766,4.5625,4.6133,4.6308,4.6308,4.6308,4.6308,4.6308,4.6308,4.6308,4.6308,4.6308,4.6308,4.6308,4.6308,4.6308,4.6308,4.6308,4.6308,4.6308,4.6308,4.6308,4.6308,4.6308,4.6308,4.6308,4.6308,4.6308,4.6308,4.6308,4.6308,4.6308,4.6308,4.6308,4.6308,4.6308,4.6308,4.6308,4.6308,4.6308,4.6308,4.6308,4.6308,4.6308,4.6308,4.6308,4.6308,4.6308,4.6308,4.6308,4.6914,4.707,4.6387,4.6933,4.7051,4.6367,4.6308,4.6308,4.6308,4.6308,4.6308,4.6308,4.6308,4.6308,4.6308,4.6308,4.6308,4.6308,4.6308,4.6308,4.6304,4.63,4.6296,0.0,0.0,0.0,3.0898,3.1679,3.2049,2.9123,0.0,3.1447,3.0158,0.0,3.0839,3.0937,0.0,0.0,3.0956,3.168,3.2285,3.2384,3.2579,3.3593,3.6012,3.6989,3.7498,3.7596,3.7606,3.7943,3.8822,3.8885,3.9219,4.0019,4.0781,4.1191,4.1191,4.1289,4.1348,4.1348,4.2246,4.3086,4.3867,4.4726,4.5547,4.6308,4.6308,4.6308,4.6308,4.6308,4.6308,4.6308,4.6308,4.6308,4.6308,4.6308,4.6308,4.6308,4.6308,4.6308,4.6308,4.6308,4.6308,4.6308,4.6308,4.6308,4.6308,4.6308,4.6308,4.6308,4.6308,4.6308,4.6308,4.6308,4.6308,4.6308,4.6308,4.6308,4.6308,4.6308,4.6308,4.6308,4.6308,4.6308,4.6308,4.6308,4.6308,4.6308,4.6308,4.6308,4.6308,4.6308,4.6387,4.6406,4.6308,4.6387,4.6406,4.6308,4.6308,4.6308,4.6308,4.6308,4.6308,4.6308,4.6308,4.6308,4.6308,4.6308,4.6308,4.6308,4.6308,4.6308,4.6308,4.6307,4.6305,0.0,0.0,3.3011,3.1831,3.2051,3.2034,3.0171,3.0587,3.1289,3.1095,0.0,0.0,0.0,0.0,0.0,0.0,3.1114,3.1172,3.0725,3.1078,3.2173,3.4242,3.4376,3.4686,3.5681,3.6705,3.7452,3.7826,3.785,3.8457,3.9824,4.0254,4.0684,4.1172,4.1191,4.1191,4.1191,4.1992,4.2832,4.3711,4.457,4.5469,4.6308,4.6308,4.6308,4.6308,4.6308,4.6308,4.6308,4.6308,4.6308,4.6308,4.6308,4.6308,4.6308,4.6308,4.6308,4.6308,4.6308,4.6308,4.6308,4.6308,4.6308,4.6308,4.6308,4.6308,4.6308,4.6308,4.6308,4.6308,4.6308,4.6308,4.6308,4.6308,4.6308,4.6308,4.6308,4.6308,4.6308,4.6308,4.6308,4.6308,4.6308,4.6308,4.6308,4.6308,4.6308,4.6308,4.6308,4.6737,4.6853,4.6345,4.6757,4.6855,4.6347,4.6308,4.6308,4.6308,4.6308,4.6308,4.6308,4.6308,4.6308,4.6308,4.6308,4.6308,4.6308,4.6308,4.6308,4.6308,4.6308,4.6306,3.3936,3.404,3.3721,3.2708,3.2377,3.2043,3.1028,3.0976,3.127,3.166,3.1426,0.0,0.0,0.0,3.08,3.08,0.0,3.0578,3.0001,3.0246,3.0929,3.2214,3.2214,3.2602,3.3851,3.5126,3.6067,3.6559,3.66,3.7343,3.9082,3.9648,4.0195,4.082,4.1074,4.1191,4.1191,4.1777,4.25,4.3359,4.4238,4.5098,4.5957,4.6191,4.6308,4.6308,4.6308,4.6308,4.6308,4.6308,4.6308,4.6308,4.6308,4.6308,4.6308,4.6308,4.6308,4.6308,4.6308,4.6308,4.6308,4.6308,4.6308,4.6308,4.6308,4.6308,4.6308,4.6308,4.6308,4.6308,4.6308,4.6308,4.6308,4.6308,4.6308,4.6308,4.6308,4.6308,4.6308,4.6308,4.6308,4.6308,4.6308,4.6308,4.6308,4.6308,4.6308,4.6307,4.6306,4.6851,4.7004,4.636,4.6871,4.699,4.6346,4.6308,4.6308,4.6308,4.6308,4.6308,4.6308,4.6308,4.6308,4.6308,4.6308,4.6308,4.6308,4.6308,4.6308,4.6308,4.6542,4.6659,3.5875,3.5901,3.5503,3.3787,3.3356,3.2907,3.1191,3.1446,3.1836,3.1015,0.0,3.1816,3.0995,0.0,0.0,0.0,3.0757,0.0,0.0,2.9954,2.9441,2.9691,3.1125,3.2123,3.2181,3.2224,3.2967,3.4667,3.4785,3.5547,3.7285,3.8984,3.9902,3.9941,4.0762,4.1191,4.1191,4.123,4.1641,4.2441,4.332,4.4199,4.5078,4.5918,4.6308,4.6308,4.6308,4.6308,4.6308,4.6308,4.6308,4.6308,4.6308,4.6308,4.6308,4.6308,4.6308,4.6308,4.6308,4.6308,4.6308,4.6308,4.6308,4.6308,4.6308,4.6308,4.6308,4.6308,4.6308,4.6308,4.6308,4.6308,4.6308,4.6308,4.6308,4.6308,4.6308,4.6308,4.6308,4.6308,4.6308,4.6308,4.6308,4.6308,4.6308,4.6307,4.6307,4.6306,4.6302,4.6321,4.6321,4.6301,4.6321,4.6323,4.6307,4.6307,4.6308,4.6308,4.6308,4.6308,4.6308,4.6308,4.6308,4.6308,4.6308,4.6308,4.6308,4.6308,4.6308,4.6328,4.7168,4.7558,3.5632,3.5741,3.5438,3.445,3.3691,3.2936,3.1903,3.1895,3.1856,3.0976,0.0,0.0,0.0,0.0,0.0,0.0,0.0,0.0,0.0,2.8727,2.8749,2.939,3.0996,3.1836,3.1342,3.1795,3.2577,3.3749,3.3847,3.4844,3.7187,3.8418,3.9297,3.9883,4.0742,4.1191,4.1191,4.1191,4.1601,4.2402,4.2695,4.3594,4.5019,4.5312,4.5742,4.6308,4.6308,4.6308,4.6308,4.6308,4.6308,4.6308,4.6308,4.6308,4.6308,4.6308,4.6308,4.6308,4.6308,4.6308,4.6308,4.6308,4.6308,4.6308,4.6308,4.6308,4.6308,4.6308,4.6308,4.6308,4.6308,4.6308,4.6308,4.6308,4.6308,4.6308,4.6308,4.6308,4.6308,4.6308,4.6308,4.6308,4.6308,4.6308,4.6307,4.6307,4.6303,4.6299,4.6296,4.6293,4.6523,4.7108,4.6644,4.6531,4.7119,4.7161,4.7163,4.7164,4.7694,4.8027,4.8027,4.8027,4.8027,4.8027,4.8027,4.8027,4.8027,4.8027,4.8027,4.8047,4.8906,4.8691,3.5539,3.564,3.5393,3.469,3.4046,3.3293,3.2288,3.2306,3.2287,3.1406,3.1663,0.0,0.0,0.0,0.0,0.0,0.0,0.0,0.0,2.8954,2.9191,2.9758,3.085,3.1246,3.0478,3.0872,3.1676,3.287,3.2969,3.3965,3.625,3.7793,3.8867,3.9414,4.0586,4.1191,4.1191,4.1191,4.1465,4.1973,4.2578,4.3457,4.4551,4.5176,4.5762,4.6308,4.6308,4.6308,4.6308,4.6308,4.6308,4.6308,4.6308,4.6308,4.6308,4.6308,4.6308,4.6308,4.6308,4.6308,4.6308,4.6308,4.6308,4.6308,4.6308,4.6308,4.6308,4.6308,4.6308,4.6308,4.6308,4.6308,4.6308,4.6308,4.6308,4.6308,4.6308,4.6308,4.6308,4.6308,4.6308,4.6308,4.6307,4.6559,4.6655,4.6342,4.6551,4.676,4.6757,4.7006,4.7393,4.7978,4.7515,4.7422,4.797,4.8055,4.8058,4.8058,4.8589,4.8903,4.8903,4.8905,4.8906,4.8906,4.8906,4.8906,4.8906,4.8906,4.8906,4.8925,4.9785,4.9569]}]]